GFSWCAN_prec_snow_114.txt.gz
Snowfall_Accumulation
0.0 0.0 0.0 0.0 0.0 0.0 0.0 0.0 0.0 0.0 0.0 0.0 0.0 0.0 0.0 0.0 0.0 0.0 0.0 0.0 0.0 7.5 0.7 0.0 0.0 0.2 1.0 1.7 2.0 3.0 2.5 3.2 2.8 4.0 1.9 0.9 1.5 1.8 1.0 0.3 5.9 7.4 11.2 5.0 5.0 5.3 1.5 0.0 0.0 1.4 0.0 0.0 0.0 0.0
0.0 0.0 0.0 0.0 0.0 0.0 0.0 0.0 0.0 0.0 0.0 0.0 0.0 0.0 0.0 0.0 0.0 0.0 0.0 0.0 0.0 0.7 2.2 0.0 0.0 0.0 0.0 0.0 0.0 0.0 2.9 3.9 6.6 7.6 6.2 2.8 1.7 1.7 1.1 2.2 3.9 9.4 4.8 3.4 2.8 1.9 0.0 0.0 0.0 0.0 0.0 0.0 0.0 0.0
0.0 0.0 0.0 0.0 0.0 0.0 0.0 0.0 0.0 0.0 0.0 0.0 0.0 0.0 0.0 0.0 0.0 0.0 0.0 0.0 0.0 5.4 6.9 0.0 0.0 0.0 0.0 0.0 0.0 0.6 0.0 0.0 0.0 0.0 5.1 3.0 2.3 1.7 2.1 1.7 4.9 7.1 5.0 7.3 1.1 0.1 0.0 0.0 0.0 0.0 0.0 0.0 0.0 0.0
0.0 0.0 0.0 0.0 0.0 0.0 0.0 0.0 0.0 0.0 0.0 0.0 0.0 0.0 0.0 0.0 0.0 0.0 0.0 0.0 0.0 4.1 11.1 1.4 0.0 0.0 0.0 0.0 0.0 0.0 0.0 0.0 0.0 0.0 4.7 3.1 2.0 0.0 0.5 0.7 1.3 6.1 5.9 6.7 6.9 7.7 0.0 0.0 0.0 0.0 0.0 0.0 0.0 0.0
0.0 0.0 0.0 0.0 0.0 0.0 0.0 0.0 0.0 0.0 0.0 0.0 0.0 0.0 0.0 0.0 0.0 0.0 0.0 0.0 0.0 0.0 3.6 1.5 0.0 0.0 0.0 0.0 0.0 0.0 0.0 0.0 0.0 3.4 4.9 2.7 0.0 0.8 0.0 0.1 1.0 0.0 1.6 2.1 6.3 1.0 2.0 0.0 0.0 0.0 0.0 0.0 0.0 0.0
0.0 0.0 0.0 0.0 0.0 0.0 0.0 0.0 0.0 0.0 0.0 0.0 0.0 0.0 0.0 0.0 0.0 0.0 11.0 0.0 0.0 0.0 6.9 4.2 0.0 0.0 0.0 0.0 0.0 0.0 0.0 0.0 0.0 3.3 2.8 0.0 0.0 0.4 2.0 1.0 0.0 0.0 0.1 0.3 0.5 0.0 0.0 0.0 0.0 0.0 0.0 0.0 0.3 0.0
0.0 0.0 0.0 0.0 0.0 0.0 0.0 0.0 0.0 0.0 0.0 0.0 0.0 0.0 0.0 0.0 0.0 2.5 9.1 0.0 0.0 0.0 10.8 9.3 0.5 0.0 0.0 0.0 0.0 0.0 0.0 0.0 0.0 3.2 3.6 0.3 0.0 0.5 1.7 1.0 0.0 0.0 0.0 0.1 0.0 0.0 0.0 0.0 0.9 0.0 0.0 0.0 0.6 0.0
0.0 0.0 0.0 0.0 0.0 0.0 0.0 0.0 0.0 0.0 0.0 0.0 0.0 0.0 0.0 0.0 0.0 1.0 0.0 0.0 0.0 0.0 1.8 11.6 3.1 3.4 0.0 0.0 0.5 0.0 0.1 0.0 0.7 0.3 1.6 0.8 0.1 0.5 3.5 0.2 0.0 0.0 0.0 0.0 0.0 0.0 0.0 0.0 0.0 0.0 0.0 0.0 0.0 0.0
0.0 0.0 0.0 0.0 0.0 0.0 0.0 0.0 0.0 0.0 0.0 0.0 0.0 0.0 0.0 0.0 15.6 0.0 0.0 0.0 0.0 0.0 6.8 6.6 6.8 8.2 0.0 0.0 0.0 0.4 0.0 5.5 0.0 2.9 0.4 0.9 1.3 2.3 0.8 0.0 0.0 0.0 0.0 0.0 0.0 0.0 0.0 0.0 0.0 0.0 0.0 0.0 0.0 0.0
0.0 0.0 0.0 0.0 0.0 0.0 0.0 0.0 0.0 0.0 0.0 0.0 0.0 28.9 48.1 7.3 0.0 0.0 0.0 11.0 8.7 4.7 2.0 5.3 0.5 8.3 0.0 8.1 3.8 7.9 2.5 4.0 4.3 0.8 0.0 1.6 2.1 0.7 0.2 0.0 0.0 0.0 0.0 0.0 0.0 0.0 0.0 0.1 0.0 0.0 0.0 0.0 0.0 0.0
0.0 0.0 0.0 0.0 0.0 0.0 0.0 0.0 0.0 0.0 0.0 0.0 23.2 13.0 0.0 0.0 0.0 4.9 16.4 18.0 9.3 8.9 3.3 1.0 0.2 4.2 0.0 11.8 8.3 0.0 14.6 3.9 3.1 0.2 1.1 2.2 1.5 0.8 0.1 0.1 0.0 0.0 0.0 0.0 0.0 0.0 0.0 0.0 0.0 0.0 0.0 0.0 0.0 0.0
0.0 0.0 0.0 0.0 0.0 0.0 0.0 0.0 0.0 0.0 0.0 0.0 0.0 0.0 0.0 1.0 7.7 11.1 11.1 9.9 2.9 0.8 0.2 0.0 0.0 0.0 1.1 0.8 10.8 7.5 3.5 9.4 4.2 0.0 3.3 1.4 1.6 0.2 0.0 0.0 0.0 0.0 0.0 0.0 0.0 0.0 0.0 0.0 0.0 0.0 0.0 0.0 0.3 0.1
0.0 0.0 0.0 0.0 0.0 0.0 0.0 0.0 0.0 0.0 0.0 0.0 0.0 7.4 11.5 17.8 17.8 11.3 7.0 3.8 1.2 0.2 0.2 0.1 1.7 1.0 1.7 5.2 11.2 9.4 9.0 6.5 0.7 4.5 2.1 1.0 0.4 0.0 0.0 0.0 0.0 0.0 0.0 0.0 0.0 0.0 0.0 0.0 0.0 0.0 0.4 1.2 1.6 2.9
0.0 0.0 0.0 0.0 0.0 0.0 0.0 0.0 0.0 0.0 0.0 4.1 18.9 21.6 17.7 13.9 9.6 5.7 2.0 0.4 0.5 0.5 0.3 0.2 2.7 5.1 3.9 6.2 7.6 12.6 11.6 6.2 8.1 4.1 2.4 2.4 1.0 0.8 0.4 0.1 0.0 0.0 0.0 0.0 0.0 0.1 0.0 0.0 0.8 1.6 2.3 3.7 3.2 4.6
0.0 0.0 0.0 0.0 0.0 0.0 0.0 0.0 0.0 0.0 1.7 8.6 7.0 9.1 9.8 7.6 5.4 4.2 2.0 0.5 0.7 0.3 0.2 1.0 2.3 6.2 9.6 11.4 9.2 8.2 10.8 8.7 6.1 5.1 5.2 3.7 1.5 1.4 1.2 1.6 1.5 0.6 0.7 2.7 5.1 5.7 4.8 4.3 4.2 5.7 6.2 6.0 4.5 4.9
0.0 0.0 0.0 0.0 0.0 0.0 0.0 0.0 0.0 0.6 2.3 4.7 4.8 5.4 5.3 4.1 5.6 4.4 3.4 3.8 1.9 1.9 0.8 2.7 11.1 11.6 12.5 9.7 9.4 6.3 6.0 5.4 5.7 3.8 3.7 2.5 2.9 3.1 3.2 3.4 4.3 5.1 5.9 6.9 7.8 8.3 8.8 7.7 6.8 7.7 8.3 7.1 7.3 6.0
0.0 0.0 0.0 0.0 0.0 0.0 0.0 0.0 0.6 6.5 7.8 4.6 6.5 5.6 4.6 4.5 7.0 6.0 5.3 5.2 2.1 4.4 6.9 6.6 9.2 9.6 8.1 6.4 6.3 4.7 5.2 4.6 3.3 3.3 4.0 3.9 4.1 4.7 5.1 5.3 6.2 6.0 6.0 6.8 7.7 6.9 7.4 7.4 6.3 4.3 5.6 7.3 6.1 5.7
0.0 0.0 0.0 0.0 0.0 0.0 1.4 0.7 2.2 4.5 4.6 6.6 7.1 8.1 4.1 5.2 5.9 5.0 4.5 4.7 5.4 5.5 2.9 3.6 2.6 4.5 6.1 5.7 6.3 6.2 5.6 6.0 5.5 5.1 5.4 6.3 5.9 6.5 6.3 6.0 6.9 6.2 5.8 6.5 6.2 5.4 4.8 5.0 4.5 5.3 4.6 4.5 4.1 4.6
0.0 0.0 0.0 0.0 0.0 0.2 4.6 1.9 0.4 1.8 5.1 6.9 9.0 8.0 5.9 6.8 7.8 7.5 5.1 4.2 5.0 4.7 3.9 4.6 5.0 5.2 6.7 7.8 7.4 7.1 6.5 5.9 6.8 8.9 10.1 11.0 9.8 8.3 7.9 6.4 5.8 6.0 5.5 5.9 5.8 6.0 5.4 4.6 4.6 4.3 3.8 3.7 4.2 5.0
0.0 0.0 0.0 0.0 0.0 4.2 3.5 2.7 0.0 1.1 4.8 6.2 7.2 7.0 5.8 8.5 7.2 6.0 4.3 3.6 2.6 3.7 6.3 7.7 10.2 11.5 11.1 11.4 9.3 8.2 8.5 8.4 6.2 7.3 11.5 11.7 11.1 8.7 9.0 6.7 6.4 5.5 4.6 4.4 4.8 4.7 3.5 3.6 3.9 3.8 3.7 3.9 3.5 3.8
0.0 0.0 0.0 0.0 0.0 2.2 4.1 4.6 3.2 2.8 3.7 4.2 6.3 3.9 6.6 3.4 4.3 3.7 2.7 1.4 2.0 6.4 9.3 11.8 12.5 15.5 15.1 12.4 10.0 7.6 8.3 6.5 7.5 5.2 6.7 8.9 10.3 6.2 7.1 6.8 5.5 4.6 3.8 4.0 3.6 4.8 3.6 3.2 3.2 2.7 2.9 3.4 2.9 2.4
0.0 0.0 0.0 0.0 2.0 0.9 1.2 3.1 2.4 3.2 1.9 4.7 4.7 2.8 4.0 3.7 3.2 3.9 1.2 1.7 7.4 11.2 13.0 12.5 11.5 11.6 9.7 9.8 10.0 8.2 8.4 6.1 5.7 5.8 6.1 4.8 6.2 5.5 5.6 6.0 4.0 4.4 4.4 4.3 3.4 3.7 3.3 2.3 2.2 2.2 1.9 1.8 1.6 1.7
0.0 1.8 2.5 2.3 1.9 1.4 4.0 4.0 2.9 4.8 4.1 5.0 2.9 2.8 3.9 3.8 4.0 0.6 2.3 6.2 9.2 11.9 12.4 10.4 10.4 9.8 8.2 9.6 5.7 6.5 7.8 4.1 4.6 5.4 5.3 4.8 4.6 4.6 3.8 4.6 4.4 3.7 3.6 3.9 2.6 2.3 2.2 2.2 1.8 1.6 1.4 1.1 1.1 1.3
0.1 3.6 3.6 2.4 2.1 2.6 0.7 1.3 1.8 2.3 2.4 2.4 2.1 3.3 4.1 3.9 0.5 1.2 3.7 6.3 9.8 7.9 7.2 8.3 7.3 7.1 5.5 4.1 4.6 5.5 8.0 5.4 3.5 4.0 5.1 3.3 2.4 4.1 3.1 3.3 3.6 3.3 2.1 1.8 1.8 1.7 1.8 1.6 1.4 1.1 1.0 1.9 2.0 1.8
6.9 5.2 2.8 1.8 0.6 0.5 0.3 0.3 0.6 0.6 1.8 1.4 1.3 3.0 4.0 1.6 1.3 2.1 3.5 6.1 5.5 6.1 7.1 7.2 5.8 5.5 4.9 5.5 5.5 5.6 5.9 4.6 3.7 2.5 4.7 4.0 3.6 2.9 2.7 2.1 1.5 1.6 0.9 1.0 1.9 2.3 1.9 1.2 1.6 1.8 1.7 1.5 1.2 0.9
5.1 2.2 1.0 0.3 0.5 0.2 0.2 0.2 0.4 0.7 0.5 0.5 1.4 1.7 1.1 0.6 0.5 1.6 2.8 4.8 4.4 4.9 5.6 6.0 5.8 4.7 4.8 5.0 4.7 4.0 5.0 4.0 2.4 1.9 3.6 3.1 3.3 3.2 3.0 2.4 1.7 1.5 0.7 1.1 1.7 1.8 0.8 0.9 0.9 0.7 0.5 0.2 0.6 0.9
1.9 0.8 0.0 0.0 0.4 0.5 0.4 0.1 0.2 0.5 0.4 1.2 0.8 1.1 1.4 1.1 1.3 3.2 3.2 3.3 3.3 4.4 4.2 4.0 3.3 3.5 4.0 4.5 4.3 4.2 3.2 2.2 2.0 2.5 1.5 1.1 0.9 1.1 1.6 2.8 3.2 2.9 1.4 1.3 1.4 1.8 1.8 1.2 1.0 0.7 0.9 0.6 0.8 1.7
0.5 0.1 0.3 0.5 0.8 0.9 0.9 0.8 0.6 1.1 1.3 1.2 0.7 1.1 1.4 1.2 2.9 3.9 4.1 4.5 3.8 3.2 2.9 2.9 2.5 2.1 2.3 2.5 2.8 2.7 2.8 2.4 1.6 0.9 0.4 0.6 0.9 0.9 1.1 1.4 1.4 1.0 1.1 1.2 1.5 1.3 1.4 1.4 1.7 1.5 1.8 1.8 1.8 1.3
0.5 0.2 0.1 0.3 1.2 1.5 1.8 1.8 2.2 2.3 2.1 2.1 1.4 1.6 2.2 3.8 6.3 5.1 5.2 4.0 3.1 2.1 2.3 2.4 3.2 2.2 1.7 1.3 1.4 1.5 1.2 1.5 2.1 1.8 1.2 1.8 2.2 2.0 1.5 1.2 0.8 0.8 1.0 0.9 0.9 1.7 1.6 2.0 1.6 1.8 2.2 2.1 2.1 2.2
0.5 1.5 1.5 0.9 1.1 2.2 4.0 3.0 2.9 2.6 1.7 1.5 1.1 0.7 1.4 4.1 6.6 4.3 3.0 2.6 2.0 2.2 2.6 2.2 2.2 1.4 1.7 1.2 1.1 0.9 1.5 1.3 1.9 2.6 2.4 1.7 2.0 1.6 1.4 1.6 1.3 1.2 1.6 2.0 1.7 1.2 1.5 1.1 1.3 2.8 2.5 2.1 2.9 2.8
1.3 1.5 1.0 1.2 2.1 2.4 1.8 1.3 1.1 0.8 0.7 0.7 0.4 0.7 1.2 2.5 3.0 2.3 2.6 3.3 1.8 1.7 1.2 1.2 1.1 1.6 1.1 0.8 1.5 1.4 1.5 1.7 1.2 1.2 1.5 1.8 2.1 2.0 2.2 1.8 1.9 1.6 1.5 1.4 1.6 1.6 1.9 1.9 2.3 2.5 2.1 1.7 1.6 1.8
0.4 0.4 0.7 0.7 1.7 1.2 1.3 2.7 1.7 1.1 1.0 0.7 0.8 0.1 0.8 1.0 1.4 1.9 2.2 2.2 1.0 0.9 1.1 1.1 1.2 1.4 1.5 1.5 1.8 1.7 1.7 1.6 1.3 1.5 1.6 1.8 2.0 1.9 1.6 1.4 1.4 1.3 1.1 0.9 1.1 1.3 1.2 1.2 1.3 0.9 0.9 0.7 1.0 0.7
0.6 0.8 0.5 1.0 0.8 0.6 0.9 1.1 0.6 0.4 0.6 0.6 1.0 0.6 0.8 0.9 2.2 3.2 1.5 1.4 1.9 1.8 1.9 2.0 1.9 2.3 2.4 2.2 2.1 1.9 1.5 1.5 1.4 1.2 1.3 1.2 1.0 0.8 0.7 1.0 1.0 0.9 0.9 0.8 0.9 1.0 0.8 0.7 0.8 0.9 0.9 1.0 0.8 0.6

GFSWCAN_prec_snow_117.txt.gz
Snowfall_Accumulation
0.0 0.0 0.0 0.0 0.0 0.0 0.0 0.0 0.0 0.0 0.0 0.0 0.0 0.0 0.0 0.0 0.0 0.0 0.0 0.0 0.0 7.5 0.7 0.0 0.0 0.2 1.0 1.7 2.0 3.0 2.5 3.2 2.8 4.0 1.9 0.9 1.6 1.8 1.8 0.7 7.0 8.6 12.0 5.8 5.8 6.0 1.6 0.0 0.4 1.7 0.0 0.0 0.0 0.0
0.0 0.0 0.0 0.0 0.0 0.0 0.0 0.0 0.0 0.0 0.0 0.0 0.0 0.0 0.0 0.0 0.0 0.0 0.0 0.0 0.0 0.7 2.2 0.0 0.0 0.0 0.0 0.0 0.0 0.0 2.9 3.9 6.6 7.6 6.2 2.8 1.7 1.7 1.3 2.6 4.9 10.6 6.9 4.8 3.1 1.9 0.0 0.0 0.0 0.0 0.0 0.0 0.0 0.0
0.0 0.0 0.0 0.0 0.0 0.0 0.0 0.0 0.0 0.0 0.0 0.0 0.0 0.0 0.0 0.0 0.0 0.0 0.0 0.0 0.0 5.9 6.9 0.0 0.0 0.0 0.0 0.0 0.0 0.6 0.0 0.0 0.0 0.0 5.7 3.0 2.3 1.7 2.2 1.7 5.2 7.5 5.9 9.2 1.7 0.3 0.0 0.0 0.0 0.0 0.0 0.0 0.0 0.0
0.0 0.0 0.0 0.0 0.0 0.0 0.0 0.0 0.0 0.0 0.0 0.0 0.0 0.0 0.0 0.0 0.0 0.0 0.0 0.0 0.0 4.1 11.2 1.4 0.0 0.0 0.0 0.0 0.0 0.0 0.0 0.0 0.0 0.0 4.7 3.1 2.0 0.0 0.5 0.7 1.3 6.7 6.2 7.3 8.3 9.0 0.0 0.0 0.0 0.0 0.0 0.0 0.0 0.0
0.0 0.0 0.0 0.0 0.0 0.0 0.0 0.0 0.0 0.0 0.0 0.0 0.0 0.0 0.0 0.0 0.0 0.0 0.0 0.0 0.0 0.0 3.8 1.5 0.0 0.0 0.0 0.0 0.0 0.0 0.0 0.0 0.0 3.4 4.9 2.7 0.0 0.9 0.0 0.2 1.4 0.2 2.0 3.6 8.1 4.2 5.5 3.4 4.3 1.6 0.0 0.0 0.0 0.0
0.0 0.0 0.0 0.0 0.0 0.0 0.0 0.0 0.0 0.0 0.0 0.0 0.0 0.0 0.0 0.0 0.0 0.0 11.0 0.0 0.0 0.0 7.3 4.2 0.0 0.0 0.0 0.0 0.0 0.0 0.0 0.0 0.0 3.3 2.8 0.0 0.0 0.4 2.3 1.0 0.0 0.0 0.5 2.1 2.0 2.9 2.8 3.9 0.0 0.0 0.7 1.6 1.2 0.0
0.0 0.0 0.0 0.0 0.0 0.0 0.0 0.0 0.0 0.0 0.0 0.0 0.0 0.0 0.0 0.0 0.0 2.5 9.1 0.0 0.0 0.0 11.3 9.4 0.5 0.0 0.0 0.0 0.0 0.0 0.0 0.0 0.0 3.2 3.7 0.3 0.0 0.9 1.9 1.0 0.0 0.0 0.0 0.1 0.0 0.0 0.0 0.0 1.0 0.0 0.0 0.0 0.6 0.0
0.0 0.0 0.0 0.0 0.0 0.0 0.0 0.0 0.0 0.0 0.0 0.0 0.0 0.0 0.0 0.0 0.0 1.1 0.0 0.0 0.0 0.0 2.0 11.6 3.1 3.4 0.0 0.0 0.5 0.0 0.1 0.2 1.1 0.5 1.7 0.9 0.3 0.9 3.8 0.2 0.0 0.0 0.0 0.0 0.0 0.0 0.1 0.0 0.0 0.0 0.0 0.0 0.0 0.0
0.0 0.0 0.0 0.0 0.0 0.0 0.0 0.0 0.0 0.0 0.0 0.0 0.0 0.0 0.0 0.0 16.0 0.0 0.0 0.0 0.0 0.0 6.8 6.6 6.8 8.2 0.0 0.0 0.0 0.8 0.0 6.2 0.0 3.2 0.5 1.2 1.3 2.7 1.0 0.1 0.0 0.0 0.0 0.0 0.0 0.0 0.0 0.0 0.0 0.0 0.0 0.0 0.0 0.0
0.0 0.0 0.0 0.0 0.0 0.0 0.0 0.0 0.0 0.0 0.0 0.0 0.0 30.1 49.2 7.6 0.0 0.0 0.0 12.7 10.3 5.4 2.2 5.4 0.5 8.3 0.0 8.1 3.8 7.9 2.9 5.0 4.7 1.0 0.3 2.0 2.4 0.8 0.3 0.1 0.1 0.0 0.0 0.0 0.0 0.0 0.0 0.1 0.0 0.0 0.0 0.0 0.0 0.0
0.0 0.0 0.0 0.0 0.0 0.0 0.0 0.0 0.0 0.0 0.0 0.0 24.9 13.6 0.0 0.0 0.0 4.9 17.7 18.8 9.6 9.1 3.3 1.0 0.2 4.2 0.0 11.8 8.3 0.0 15.1 4.7 3.3 0.3 1.6 2.5 1.6 0.9 0.2 0.2 0.0 0.0 0.0 0.0 0.0 0.0 0.0 0.0 0.0 0.0 0.0 0.0 0.0 0.0
0.0 0.0 0.0 0.0 0.0 0.0 0.0 0.0 0.0 0.0 0.0 0.0 0.0 0.0 0.0 2.2 8.5 11.8 11.1 10.0 2.9 0.8 0.2 0.0 0.0 0.0 1.1 0.8 10.8 7.5 3.8 9.6 4.2 0.0 3.6 1.6 1.7 0.3 0.0 0.0 0.0 0.0 0.0 0.0 0.0 0.0 0.0 0.0 0.0 0.0 0.0 0.0 0.3 0.1
0.0 0.0 0.0 0.0 0.0 0.0 0.0 0.0 0.0 0.0 0.0 0.0 1.6 8.7 13.2 18.6 18.2 11.3 7.1 3.9 1.2 0.2 0.2 0.1 1.7 1.0 1.7 5.2 11.2 9.4 9.1 6.5 0.7 4.5 2.1 1.1 0.5 0.0 0.0 0.0 0.0 0.0 0.0 0.0 0.0 0.0 0.0 0.0 0.0 0.0 0.4 1.2 1.6 2.9
0.0 0.0 0.0 0.0 0.0 0.0 0.0 0.0 0.0 0.0 0.0 7.2 20.1 22.5 18.1 13.9 9.6 5.7 2.0 0.4 0.5 0.5 0.3 0.2 2.7 5.1 3.9 6.2 7.6 12.7 11.6 6.2 8.1 4.1 2.4 2.5 1.1 0.8 0.4 0.1 0.0 0.0 0.0 0.0 0.0 0.1 0.0 0.0 0.8 1.6 2.3 3.7 3.2 4.6
0.0 0.0 0.0 0.0 0.0 0.0 0.0 0.0 0.0 0.0 4.8 11.2 7.1 9.1 9.8 7.6 5.4 4.2 2.0 0.5 0.7 0.3 0.2 1.0 2.3 6.2 9.6 11.6 9.2 8.2 10.8 8.7 6.1 5.1 5.2 3.7 1.5 1.4 1.2 1.6 1.5 0.6 0.7 2.7 5.1 5.7 4.8 4.3 4.2 5.7 6.2 6.0 4.5 4.9
0.0 0.0 0.0 0.0 0.0 0.0 0.0 0.0 0.0 3.6 4.7 5.7 4.8 5.4 5.3 4.1 5.6 4.4 3.4 3.8 1.9 1.9 0.8 2.7 11.1 11.7 12.5 9.7 9.4 6.3 6.0 5.4 5.7 3.8 3.7 2.5 2.9 3.1 3.2 3.4 4.3 5.1 5.9 6.9 7.8 8.3 8.8 7.7 6.8 7.7 8.3 7.1 7.3 6.0
0.0 0.0 0.0 0.0 0.0 0.0 0.0 3.3 3.0 8.8 9.0 4.7 6.5 5.7 4.6 4.5 7.0 6.0 5.3 5.2 2.1 4.4 6.9 6.6 9.2 9.6 8.1 6.4 6.3 4.7 5.2 4.6 3.3 3.4 4.0 3.9 4.1 4.7 5.1 5.3 6.2 6.0 6.0 6.8 7.7 6.9 7.4 7.4 6.3 4.3 5.6 7.3 6.1 5.8
0.0 0.0 0.0 0.0 0.0 0.0 3.7 2.7 3.8 5.7 4.8 6.6 7.1 8.1 4.1 5.3 5.9 5.0 4.5 4.7 5.4 5.7 3.0 3.6 2.6 4.5 6.1 5.7 6.3 6.2 5.6 6.0 5.5 5.1 5.4 6.3 5.9 6.5 6.3 6.0 6.9 6.2 5.8 6.5 6.2 5.4 4.8 5.0 4.5 5.3 4.6 4.5 4.1 4.7
0.0 0.0 0.0 0.0 0.0 0.7 5.9 3.1 0.7 1.9 5.2 6.9 9.1 8.0 5.9 6.9 7.9 7.6 5.1 4.4 5.1 4.7 3.9 4.6 5.1 5.2 6.7 7.8 7.4 7.1 6.5 5.9 6.8 8.9 10.1 11.0 9.8 8.4 7.9 6.4 5.8 6.0 5.5 5.9 5.8 6.0 5.4 4.6 4.6 4.3 3.8 3.7 4.2 5.0
0.0 0.0 0.0 0.0 0.0 4.2 3.6 2.8 0.0 1.1 4.8 6.2 7.2 7.1 5.8 8.5 7.3 6.0 4.3 3.7 2.7 4.0 6.7 7.9 10.3 11.5 11.1 11.4 9.3 8.2 8.5 8.4 6.2 7.3 11.5 11.7 11.1 8.7 9.1 6.8 6.4 5.5 4.6 4.4 4.8 4.7 3.5 3.6 3.9 3.8 3.7 3.9 3.5 3.9
0.0 0.0 0.0 0.0 0.0 2.2 4.1 4.6 3.2 2.8 3.7 4.2 6.4 3.9 6.6 3.4 4.4 3.8 2.7 1.4 2.0 6.5 9.4 11.8 12.5 15.6 15.2 12.5 10.1 7.7 8.4 6.6 7.5 5.2 6.7 8.9 10.3 6.2 7.1 6.8 5.5 4.6 3.8 4.0 3.6 4.8 3.6 3.2 3.2 2.7 3.0 3.5 3.0 2.5
0.0 0.0 0.0 0.0 2.0 0.9 1.2 3.1 2.4 3.2 1.9 4.8 4.7 2.8 4.0 3.7 3.2 3.9 1.2 1.7 7.4 11.3 13.0 12.5 11.6 11.7 9.8 9.9 10.1 8.3 8.5 6.1 5.7 5.8 6.1 4.8 6.2 5.5 5.6 6.0 4.0 4.4 4.4 4.3 3.4 3.7 3.3 2.3 2.2 2.2 1.9 1.9 1.7 1.8
0.0 1.8 2.5 2.3 1.9 1.4 4.0 4.1 2.9 4.8 4.1 5.0 2.9 2.8 3.9 3.8 4.0 0.6 2.3 6.2 9.3 12.0 12.5 10.5 10.5 9.8 8.2 9.6 5.7 6.5 7.8 4.1 4.6 5.4 5.3 4.8 4.6 4.6 3.8 4.6 4.4 3.7 3.6 3.9 2.6 2.3 2.2 2.2 1.8 1.6 1.4 1.2 1.3 1.5
0.1 3.6 3.6 2.4 2.1 2.7 0.8 1.4 1.8 2.3 2.4 2.4 2.1 3.3 4.1 3.9 0.5 1.2 3.7 6.3 9.9 8.0 7.3 8.4 7.4 7.1 5.5 4.2 4.6 5.6 8.1 5.4 3.5 4.0 5.1 3.3 2.4 4.1 3.1 3.3 3.6 3.3 2.1 1.8 1.8 1.7 1.8 1.6 1.4 1.1 1.0 2.0 2.1 1.9
7.1 5.3 2.8 1.8 0.6 0.5 0.3 0.3 0.6 0.6 1.8 1.4 1.3 3.0 4.0 1.6 1.3 2.1 3.5 6.1 5.6 6.2 7.2 7.3 5.8 5.5 5.0 5.7 5.6 5.7 6.0 4.7 3.7 2.5 4.7 4.0 3.6 2.9 2.7 2.1 1.5 1.6 0.9 1.0 1.9 2.3 1.9 1.2 1.6 1.8 1.7 1.5 1.2 1.0
5.1 2.2 1.0 0.3 0.5 0.2 0.2 0.2 0.4 0.7 0.5 0.5 1.5 1.7 1.1 0.6 0.5 1.6 2.8 4.8 4.4 5.0 5.7 6.0 5.8 4.7 4.8 5.0 4.7 4.0 5.1 4.0 2.4 1.9 3.7 3.1 3.3 3.2 3.0 2.4 1.7 1.5 0.8 1.1 1.7 1.8 0.8 0.9 0.9 0.7 0.6 0.3 0.7 1.0
1.9 0.8 0.0 0.0 0.4 0.5 0.4 0.1 0.2 0.5 0.4 1.2 0.8 1.1 1.4 1.1 1.3 3.2 3.2 3.3 3.3 4.4 4.2 4.0 3.3 3.5 4.0 4.5 4.3 4.3 3.3 2.2 2.0 2.6 1.5 1.2 0.9 1.2 1.6 2.8 3.3 2.9 1.4 1.4 1.5 1.8 1.8 1.2 1.0 0.7 0.9 0.6 0.8 1.7
0.5 0.1 0.3 0.5 0.8 0.9 0.9 0.8 0.6 1.1 1.3 1.2 0.7 1.1 1.4 1.2 2.9 3.9 4.2 4.5 3.8 3.2 2.9 2.9 2.5 2.1 2.3 2.5 2.8 2.7 2.8 2.4 1.6 0.9 0.4 0.6 0.9 0.9 1.1 1.5 1.5 1.0 1.2 1.3 1.5 1.4 1.4 1.4 1.7 1.5 1.8 1.8 1.8 1.3
0.5 0.2 0.1 0.3 1.2 1.5 1.8 1.8 2.2 2.3 2.1 2.1 1.4 1.6 2.2 3.8 6.4 5.2 5.3 4.1 3.1 2.1 2.3 2.4 3.2 2.2 1.7 1.3 1.4 1.5 1.2 1.5 2.1 1.8 1.2 1.8 2.2 2.0 1.5 1.2 0.8 0.8 1.0 0.9 0.9 1.7 1.6 2.1 1.7 1.9 2.2 2.2 2.1 2.2
0.5 1.5 1.5 0.9 1.1 2.2 4.0 3.0 3.0 2.6 1.7 1.5 1.1 0.7 1.4 4.2 6.7 4.4 3.0 2.6 2.0 2.2 2.6 2.2 2.2 1.4 1.7 1.2 1.1 0.9 1.5 1.3 1.9 2.6 2.4 1.7 2.0 1.6 1.4 1.6 1.3 1.2 1.6 2.0 1.7 1.2 1.6 1.2 1.4 2.9 2.5 2.2 2.9 2.9
1.3 1.5 1.0 1.2 2.1 2.5 1.8 1.3 1.1 0.8 0.7 0.7 0.4 0.7 1.2 2.5 3.0 2.3 2.6 3.3 1.8 1.7 1.2 1.2 1.1 1.6 1.1 0.8 1.5 1.4 1.5 1.7 1.2 1.2 1.5 1.8 2.1 2.0 2.2 1.8 1.9 1.6 1.5 1.4 1.6 1.6 1.9 1.9 2.3 2.5 2.1 1.7 1.6 1.8
0.4 0.4 0.7 0.7 1.7 1.2 1.3 2.7 1.7 1.1 1.0 0.7 0.8 0.1 0.8 1.0 1.4 1.9 2.2 2.2 1.0 0.9 1.1 1.1 1.2 1.4 1.5 1.5 1.8 1.7 1.7 1.6 1.3 1.5 1.6 1.8 2.0 1.9 1.6 1.4 1.4 1.3 1.1 0.9 1.1 1.3 1.2 1.2 1.3 0.9 0.9 0.7 1.0 0.7
0.6 0.8 0.5 1.0 0.8 0.6 0.9 1.1 0.6 0.4 0.6 0.6 1.0 0.6 0.8 0.9 2.2 3.2 1.5 1.4 1.9 1.8 1.9 2.0 1.9 2.3 2.4 2.2 2.1 1.9 1.5 1.5 1.4 1.2 1.3 1.2 1.0 0.8 0.7 1.0 1.0 0.9 0.9 0.8 0.9 1.0 0.8 0.7 0.8 0.9 0.9 1.0 0.8 0.6

GFSWCAN_prec_snow_120.txt.gz
Snowfall_Accumulation
0.0 0.0 0.0 0.0 0.0 0.0 0.0 0.0 0.0 0.0 0.0 0.0 0.0 0.0 0.0 0.0 0.0 0.0 0.0 0.0 0.0 7.5 0.7 0.0 0.0 0.2 1.0 1.7 2.0 3.0 2.5 3.2 2.8 4.0 1.9 1.0 1.7 1.9 2.2 1.4 8.1 9.8 12.7 6.7 6.6 6.8 1.9 0.0 0.4 2.1 0.0 0.0 0.0 0.0
0.0 0.0 0.0 0.0 0.0 0.0 0.0 0.0 0.0 0.0 0.0 0.0 0.0 0.0 0.0 0.0 0.0 0.0 0.0 0.0 0.0 0.8 2.2 0.0 0.0 0.0 0.0 0.0 0.0 0.0 2.9 3.9 6.6 7.7 6.3 3.1 1.8 1.8 1.6 2.9 5.3 11.3 8.2 6.5 3.8 2.2 0.0 0.0 0.0 0.0 0.0 0.0 0.0 0.0
0.0 0.0 0.0 0.0 0.0 0.0 0.0 0.0 0.0 0.0 0.0 0.0 0.0 0.0 0.0 0.0 0.0 0.0 0.0 0.0 0.0 6.2 6.9 0.0 0.0 0.0 0.0 0.0 0.0 0.6 0.0 0.0 0.0 0.0 6.1 3.3 2.4 1.8 2.4 1.9 5.4 7.6 6.3 10.9 3.4 1.6 0.9 0.5 0.0 0.0 0.0 0.0 0.0 0.0
0.0 0.0 0.0 0.0 0.0 0.0 0.0 0.0 0.0 0.0 0.0 0.0 0.0 0.0 0.0 0.0 0.0 0.0 0.0 0.0 0.0 4.1 11.3 1.4 0.0 0.0 0.0 0.0 0.0 0.0 0.0 0.0 0.0 0.0 4.9 3.3 2.1 0.1 0.6 0.9 1.4 7.4 6.6 7.8 10.4 11.6 1.5 1.4 1.6 1.2 0.6 0.5 0.9 0.0
0.0 0.0 0.0 0.0 0.0 0.0 0.0 0.0 0.0 0.0 0.0 0.0 0.0 0.0 0.0 0.0 0.0 0.0 0.0 0.0 0.0 0.0 3.8 1.5 0.0 0.0 0.0 0.0 0.0 0.0 0.0 0.0 0.0 3.5 5.1 2.9 0.0 1.0 0.0 0.2 1.8 0.5 2.7 4.6 9.7 6.5 7.5 5.8 7.9 4.7 2.0 0.6 0.0 0.0
0.0 0.0 0.0 0.0 0.0 0.0 0.0 0.0 0.0 0.0 0.0 0.0 0.0 0.0 0.0 0.0 0.0 0.0 11.1 0.0 0.0 0.0 7.4 4.2 0.0 0.0 0.0 0.0 0.0 0.0 0.0 0.0 0.0 3.4 2.9 0.1 0.0 0.6 2.5 1.2 0.0 0.0 1.0 3.0 2.5 2.9 4.0 4.7 0.0 0.0 0.8 1.6 1.2 0.0
0.0 0.0 0.0 0.0 0.0 0.0 0.0 0.0 0.0 0.0 0.0 0.0 0.0 0.0 0.0 0.0 0.0 2.5 9.1 0.0 0.0 0.0 11.6 9.4 0.5 0.0 0.0 0.0 0.0 0.0 0.0 0.0 0.0 3.3 3.8 0.3 0.0 1.3 2.1 1.0 0.0 0.0 0.1 0.1 0.0 0.0 0.0 0.0 1.1 0.0 0.0 0.0 0.6 0.0
0.0 0.0 0.0 0.0 0.0 0.0 0.0 0.0 0.0 0.0 0.0 0.0 0.0 0.0 0.0 0.0 0.0 1.2 0.0 0.0 0.0 0.0 2.1 11.6 3.1 3.4 0.0 0.0 0.5 0.0 0.1 0.2 1.1 0.6 1.9 1.0 0.5 1.2 4.0 0.2 0.0 0.0 0.0 0.1 0.0 0.0 0.1 0.0 0.0 0.0 0.0 0.0 0.0 0.0
0.0 0.0 0.0 0.0 0.0 0.0 0.0 0.0 0.0 0.0 0.0 0.0 0.0 0.0 0.0 0.0 16.2 0.0 0.0 0.0 0.0 0.0 7.0 6.6 6.8 8.2 0.0 0.0 0.0 1.3 0.0 6.5 0.0 3.5 0.6 1.5 1.5 3.0 1.1 0.1 0.0 0.0 0.0 0.0 0.0 0.0 0.0 0.0 0.0 0.0 0.0 0.0 0.0 0.0
0.0 0.0 0.0 0.0 0.0 0.0 0.0 0.0 0.0 0.0 0.0 0.0 0.0 30.1 49.6 7.8 0.0 0.0 0.0 12.9 10.9 6.2 2.6 5.5 0.5 8.3 0.0 8.1 4.0 7.9 3.5 5.5 5.2 1.0 0.3 2.2 2.6 0.8 0.3 0.2 0.1 0.0 0.0 0.0 0.0 0.0 0.0 0.1 0.0 0.0 0.0 0.0 0.0 0.0
0.0 0.0 0.0 0.0 0.0 0.0 0.0 0.0 0.0 0.0 0.0 0.0 24.9 13.6 0.0 0.0 0.0 5.2 18.1 19.2 9.6 9.4 3.3 1.0 0.2 4.2 0.0 11.8 8.3 0.0 15.3 5.4 3.8 0.5 2.1 2.9 1.8 1.0 0.2 0.2 0.0 0.0 0.0 0.0 0.0 0.0 0.0 0.0 0.0 0.0 0.0 0.0 0.0 0.0
0.0 0.0 0.0 0.0 0.0 0.0 0.0 0.0 0.0 0.0 0.0 0.0 0.0 0.0 0.0 2.8 9.0 12.0 11.4 10.2 2.9 0.8 0.2 0.0 0.0 0.0 1.1 0.8 10.8 7.5 4.1 10.0 4.5 0.0 4.0 1.7 1.8 0.3 0.0 0.0 0.0 0.0 0.0 0.0 0.0 0.0 0.0 0.0 0.0 0.0 0.0 0.0 0.3 0.1
0.0 0.0 0.0 0.0 0.0 0.0 0.0 0.0 0.0 0.0 0.0 0.0 3.2 9.2 14.5 19.3 18.5 11.4 7.1 3.9 1.2 0.2 0.2 0.1 1.7 1.0 1.7 5.2 11.3 9.4 9.3 6.6 0.7 4.5 2.1 1.1 0.5 0.0 0.0 0.0 0.0 0.0 0.0 0.0 0.0 0.0 0.0 0.0 0.0 0.0 0.4 1.2 1.6 2.9
0.0 0.0 0.0 0.0 0.0 0.0 0.0 0.0 0.0 0.0 0.0 8.5 21.7 23.4 18.4 14.2 9.6 5.7 2.0 0.4 0.5 0.5 0.3 0.2 2.7 5.1 4.0 6.3 7.6 12.9 11.7 6.2 8.2 4.1 2.4 2.5 1.1 0.8 0.4 0.1 0.0 0.0 0.0 0.0 0.0 0.1 0.0 0.0 0.8 1.6 2.3 3.7 3.2 4.6
0.0 0.0 0.0 0.0 0.0 0.0 0.0 0.0 0.0 0.0 4.8 13.5 8.6 9.5 9.8 7.6 5.4 4.2 2.0 0.5 0.7 0.3 0.2 1.0 2.3 6.2 9.7 11.9 9.2 8.2 10.9 8.7 6.1 5.1 5.2 3.8 1.5 1.4 1.2 1.6 1.5 0.6 0.7 2.7 5.1 5.7 4.8 4.3 4.2 5.7 6.2 6.0 4.5 4.9
0.0 0.0 0.0 0.0 0.0 0.0 0.0 0.0 0.0 3.6 4.7 7.3 5.6 5.5 5.3 4.1 5.6 4.4 3.4 3.8 1.9 1.9 0.8 2.7 11.1 11.7 12.7 9.7 9.5 6.3 6.0 5.4 5.7 3.9 3.7 2.5 2.9 3.1 3.2 3.4 4.3 5.1 5.9 6.9 7.8 8.3 8.8 7.7 6.8 7.7 8.3 7.1 7.3 6.0
0.0 0.0 0.0 0.0 0.0 0.0 0.0 3.3 4.0 10.2 10.5 5.6 6.9 5.7 4.6 4.5 7.0 6.1 5.3 5.2 2.1 4.5 7.1 6.6 9.3 9.7 8.1 6.4 6.3 4.7 5.2 4.6 3.3 3.4 4.0 3.9 4.1 4.7 5.1 5.3 6.2 6.0 6.0 6.8 7.7 6.9 7.4 7.4 6.3 4.3 5.6 7.3 6.1 5.8
0.0 0.0 0.0 0.0 0.0 0.0 3.7 4.3 4.4 6.3 5.4 6.6 7.2 8.2 4.1 5.3 5.9 5.1 4.5 4.7 5.4 5.7 3.1 3.6 2.6 4.5 6.1 5.7 6.3 6.2 5.6 6.1 5.6 5.1 5.4 6.3 5.9 6.5 6.3 6.0 6.9 6.2 5.8 6.5 6.2 5.4 4.8 5.0 4.5 5.3 4.6 4.5 4.1 4.7
0.0 0.0 0.0 0.0 0.0 1.5 7.2 4.4 1.2 2.1 5.2 6.9 9.2 8.1 6.0 6.9 8.0 7.7 5.1 4.4 5.1 4.9 3.9 4.6 5.1 5.2 6.7 7.8 7.4 7.1 6.6 5.9 6.8 8.9 10.1 11.0 9.8 8.4 7.9 6.4 5.8 6.0 5.5 5.9 5.9 6.0 5.4 4.6 4.6 4.3 3.8 3.7 4.2 5.1
0.0 0.0 0.0 0.0 0.0 4.4 3.6 2.8 0.0 1.1 5.0 6.3 7.2 7.1 5.8 8.6 7.4 6.2 4.4 3.8 2.9 4.3 7.0 8.1 10.3 11.5 11.1 11.4 9.4 8.2 8.5 8.4 6.3 7.3 11.6 11.7 11.1 8.7 9.1 6.8 6.4 5.5 4.6 4.5 4.8 4.7 3.5 3.6 3.9 3.9 3.8 3.9 3.6 4.0
0.0 0.0 0.0 0.0 0.4 2.4 4.2 4.7 3.2 2.8 3.7 4.2 6.4 3.9 6.7 3.5 4.4 4.0 2.9 1.5 2.1 6.6 9.4 11.9 12.6 15.7 15.3 12.5 10.2 7.7 8.4 6.6 7.6 5.2 6.7 8.9 10.3 6.2 7.1 6.8 5.5 4.6 3.8 4.1 3.6 4.8 3.7 3.2 3.2 2.7 3.0 3.5 3.1 2.6
1.2 0.0 0.5 0.0 2.1 0.9 1.2 3.1 2.4 3.2 1.9 4.8 4.8 2.8 4.0 3.7 3.2 3.9 1.2 1.8 7.5 11.3 13.0 12.6 11.7 11.7 9.8 9.9 10.1 8.3 8.5 6.1 5.7 5.8 6.1 4.8 6.2 5.5 5.6 6.0 4.0 4.4 4.4 4.4 3.4 3.7 3.3 2.3 2.2 2.3 1.9 2.0 1.8 1.9
0.0 1.8 2.5 2.4 1.9 1.4 4.0 4.1 2.9 4.8 4.1 5.0 2.9 2.8 3.9 3.8 4.0 0.6 2.3 6.2 9.3 12.1 12.5 10.6 10.5 9.9 8.2 9.6 5.7 6.5 7.8 4.1 4.6 5.4 5.3 4.8 4.6 4.6 3.8 4.6 4.4 3.7 3.6 4.0 2.6 2.3 2.2 2.2 1.8 1.7 1.5 1.3 1.4 1.6
0.1 3.6 3.6 2.4 2.1 2.7 0.8 1.4 1.8 2.3 2.4 2.4 2.1 3.3 4.1 3.9 0.5 1.2 3.7 6.3 9.9 8.0 7.4 8.5 7.4 7.2 5.6 4.2 4.6 5.6 8.2 5.4 3.5 4.0 5.1 3.3 2.4 4.2 3.1 3.4 3.6 3.3 2.1 1.8 1.8 1.7 1.8 1.6 1.4 1.2 1.0 2.1 2.2 2.0
7.2 5.4 2.8 1.8 0.6 0.5 0.3 0.3 0.6 0.6 1.8 1.4 1.3 3.0 4.0 1.6 1.3 2.1 3.5 6.2 5.6 6.3 7.3 7.4 5.8 5.6 5.1 5.8 5.7 5.8 6.1 4.7 3.7 2.5 4.7 4.0 3.6 2.9 2.7 2.1 1.6 1.6 1.0 1.0 1.9 2.3 1.9 1.2 1.6 1.8 1.7 1.5 1.2 1.1
5.1 2.2 1.0 0.3 0.5 0.2 0.2 0.2 0.4 0.7 0.5 0.5 1.5 1.7 1.1 0.6 0.5 1.6 2.8 4.8 4.4 5.0 5.8 6.1 5.8 4.8 4.8 5.0 4.7 4.0 5.1 4.0 2.4 1.9 3.7 3.1 3.3 3.2 3.1 2.5 1.7 1.6 0.8 1.2 1.8 1.8 0.8 0.9 0.9 0.7 0.6 0.3 0.7 1.0
1.9 0.8 0.0 0.0 0.4 0.5 0.4 0.1 0.2 0.5 0.4 1.2 0.8 1.1 1.4 1.1 1.3 3.2 3.3 3.3 3.3 4.4 4.2 4.0 3.3 3.5 4.0 4.5 4.3 4.3 3.3 2.2 2.0 2.6 1.5 1.2 0.9 1.2 1.6 2.9 3.3 3.0 1.5 1.4 1.6 1.9 1.9 1.3 1.1 0.7 0.9 0.6 0.8 1.7
0.5 0.1 0.3 0.5 0.8 0.9 0.9 0.8 0.6 1.1 1.3 1.2 0.7 1.2 1.4 1.2 2.9 4.0 4.2 4.6 3.8 3.2 2.9 2.9 2.5 2.1 2.3 2.5 2.8 2.7 2.8 2.4 1.6 0.9 0.4 0.6 0.9 0.9 1.1 1.6 1.6 1.1 1.2 1.3 1.6 1.5 1.5 1.5 1.8 1.6 1.8 1.8 1.8 1.3
0.5 0.2 0.1 0.3 1.2 1.5 1.8 1.8 2.2 2.3 2.1 2.1 1.4 1.6 2.2 3.8 6.4 5.2 5.3 4.1 3.1 2.1 2.3 2.4 3.2 2.2 1.7 1.3 1.4 1.5 1.2 1.5 2.1 1.8 1.2 1.8 2.2 2.0 1.5 1.2 0.8 0.8 1.0 1.0 1.0 1.7 1.6 2.2 1.8 2.0 2.3 2.3 2.2 2.3
0.5 1.5 1.5 0.9 1.1 2.2 4.0 3.0 3.0 2.6 1.7 1.5 1.1 0.7 1.4 4.3 6.8 4.5 3.1 2.7 2.0 2.2 2.6 2.2 2.2 1.4 1.7 1.2 1.1 0.9 1.5 1.3 1.9 2.6 2.4 1.7 2.0 1.6 1.4 1.6 1.3 1.2 1.6 2.0 1.8 1.3 1.6 1.2 1.4 3.0 2.6 2.2 3.0 2.9
1.3 1.5 1.0 1.2 2.1 2.5 1.8 1.3 1.1 0.8 0.7 0.7 0.4 0.7 1.2 2.5 3.1 2.3 2.6 3.3 1.8 1.7 1.2 1.2 1.1 1.6 1.1 0.8 1.5 1.4 1.5 1.7 1.2 1.2 1.5 1.8 2.1 2.0 2.2 1.8 1.9 1.6 1.5 1.4 1.6 1.6 1.9 1.9 2.3 2.5 2.1 1.7 1.6 1.8
0.4 0.4 0.7 0.7 1.7 1.2 1.3 2.7 1.7 1.1 1.0 0.7 0.8 0.1 0.8 1.0 1.4 1.9 2.2 2.2 1.0 0.9 1.1 1.1 1.2 1.4 1.5 1.5 1.8 1.7 1.7 1.6 1.3 1.5 1.6 1.8 2.0 1.9 1.6 1.4 1.4 1.3 1.1 0.9 1.1 1.3 1.2 1.2 1.3 0.9 0.9 0.7 1.0 0.7
0.6 0.8 0.5 1.0 0.8 0.6 0.9 1.1 0.6 0.4 0.6 0.6 1.0 0.6 0.8 0.9 2.2 3.2 1.5 1.4 1.9 1.8 1.9 2.0 1.9 2.3 2.4 2.2 2.1 1.9 1.5 1.5 1.4 1.2 1.3 1.2 1.0 0.8 0.7 1.0 1.0 0.9 0.9 0.8 0.9 1.0 0.8 0.7 0.8 0.9 0.9 1.0 0.8 0.6

GFSWCAN_prec_snow_123.txt.gz
Snowfall_Accumulation
0.0 0.0 0.0 0.0 0.0 0.0 0.0 0.0 0.0 0.0 0.0 0.0 0.0 0.0 0.0 0.0 0.0 0.0 0.0 0.0 0.0 7.5 0.7 0.0 0.0 0.2 1.0 1.7 2.0 3.0 2.5 3.2 2.9 4.0 2.1 1.1 1.8 2.0 2.4 1.4 8.4 10.6 13.3 7.9 7.8 7.9 3.8 0.5 0.4 2.9 0.0 0.0 0.0 0.0
0.0 0.0 0.0 0.0 0.0 0.0 0.0 0.0 0.0 0.0 0.0 0.0 0.0 0.0 0.0 0.0 0.0 0.0 0.0 0.0 0.0 0.8 2.2 0.0 0.0 0.0 0.0 0.0 0.0 0.0 2.9 3.9 6.6 7.8 6.6 3.4 2.2 2.0 1.7 3.2 5.6 12.1 9.4 8.5 5.2 3.8 1.2 0.2 0.2 0.2 0.0 0.0 0.0 0.0
0.0 0.0 0.0 0.0 0.0 0.0 0.0 0.0 0.0 0.0 0.0 0.0 0.0 0.0 0.0 0.0 0.0 0.0 0.0 0.0 0.0 6.2 6.9 0.0 0.0 0.0 0.0 0.0 0.0 0.6 0.0 0.0 0.0 0.0 6.6 3.6 2.5 1.8 2.5 2.2 5.6 8.0 6.8 12.5 5.6 3.3 1.9 1.1 0.4 0.5 0.9 0.7 0.0 0.0
0.0 0.0 0.0 0.0 0.0 0.0 0.0 0.0 0.0 0.0 0.0 0.0 0.0 0.0 0.0 0.0 0.0 0.0 0.0 0.0 0.0 4.1 11.3 1.4 0.0 0.0 0.0 0.0 0.0 0.0 0.0 0.0 0.0 0.0 5.2 3.4 2.2 0.2 0.6 0.9 1.5 7.9 7.0 8.0 11.3 11.6 1.5 2.0 2.6 2.9 1.9 1.4 0.9 0.0
0.0 0.0 0.0 0.0 0.0 0.0 0.0 0.0 0.0 0.0 0.0 0.0 0.0 0.0 0.0 0.0 0.0 0.0 0.0 0.0 0.0 0.0 4.1 1.5 0.0 0.0 0.0 0.0 0.0 0.0 0.0 0.0 0.1 3.6 5.3 3.0 0.1 1.1 0.1 0.2 2.7 0.5 2.9 4.9 10.0 6.5 8.0 6.2 8.4 4.7 2.5 0.6 0.0 0.0
0.0 0.0 0.0 0.0 0.0 0.0 0.0 0.0 0.0 0.0 0.0 0.0 0.0 0.0 0.0 0.0 0.0 0.0 11.1 0.0 0.0 0.0 7.7 4.3 0.0 0.0 0.0 0.0 0.0 0.0 0.0 0.0 0.1 3.4 3.0 0.1 0.0 0.8 2.6 1.3 0.0 0.0 1.2 3.0 2.7 2.9 4.0 4.7 0.0 0.0 0.8 1.6 1.2 0.0
0.0 0.0 0.0 0.0 0.0 0.0 0.0 0.0 0.0 0.0 0.0 0.0 0.0 0.0 0.0 0.0 0.0 2.5 9.3 0.0 0.0 0.0 11.8 9.5 0.6 0.0 0.0 0.0 0.0 0.0 0.0 0.0 0.0 3.4 3.8 0.3 0.0 1.6 2.4 1.1 0.1 0.0 0.1 0.1 0.0 0.0 0.0 0.0 1.1 0.0 0.0 0.0 0.6 0.0
0.0 0.0 0.0 0.0 0.0 0.0 0.0 0.0 0.0 0.0 0.0 0.0 0.0 0.0 0.0 0.0 0.0 1.2 0.0 0.0 0.0 0.0 2.3 11.6 3.1 3.4 0.0 0.0 0.8 0.0 0.1 0.2 1.2 0.7 2.0 1.1 0.8 1.5 4.2 0.2 0.0 0.0 0.0 0.1 0.0 0.0 0.1 0.0 0.0 0.0 0.0 0.0 0.0 0.0
0.0 0.0 0.0 0.0 0.0 0.0 0.0 0.0 0.0 0.0 0.0 0.0 0.0 0.0 0.0 0.0 16.5 0.0 0.0 0.0 0.0 0.0 7.4 6.6 6.8 8.3 0.0 0.0 0.0 1.3 0.0 6.7 0.0 3.6 0.7 1.7 1.8 3.3 1.2 0.1 0.0 0.0 0.0 0.0 0.0 0.0 0.0 0.0 0.0 0.0 0.0 0.0 0.0 0.0
0.0 0.0 0.0 0.0 0.0 0.0 0.0 0.0 0.0 0.0 0.0 0.0 0.0 30.3 49.8 7.8 0.0 0.0 0.0 13.3 11.3 6.4 2.9 5.6 0.5 8.3 0.0 8.3 4.3 7.9 3.5 5.8 5.6 1.1 0.3 2.4 2.9 0.8 0.3 0.2 0.1 0.0 0.0 0.0 0.0 0.0 0.0 0.1 0.0 0.0 0.0 0.0 0.0 0.0
0.0 0.0 0.0 0.0 0.0 0.0 0.0 0.0 0.0 0.0 0.0 0.0 25.1 13.6 0.0 0.0 0.0 5.2 18.5 19.5 9.6 9.6 3.4 1.0 0.2 4.2 0.0 11.8 8.4 0.0 15.5 5.8 4.4 1.0 2.3 3.4 2.2 1.0 0.2 0.2 0.0 0.0 0.0 0.0 0.0 0.0 0.0 0.0 0.0 0.0 0.0 0.0 0.0 0.0
0.0 0.0 0.0 0.0 0.0 0.0 0.0 0.0 0.0 0.0 0.0 0.0 0.0 0.0 0.0 3.2 9.4 12.3 11.7 10.5 3.1 0.9 0.2 0.0 0.0 0.0 1.1 0.8 10.8 7.5 4.3 10.4 5.0 0.0 4.2 2.1 1.8 0.3 0.0 0.0 0.0 0.0 0.0 0.0 0.0 0.0 0.0 0.0 0.0 0.0 0.0 0.0 0.3 0.2
0.0 0.0 0.0 0.0 0.0 0.0 0.0 0.0 0.0 0.0 0.0 0.0 3.2 9.2 15.3 19.6 19.0 11.4 7.2 4.0 1.3 0.2 0.2 0.1 1.7 1.0 1.8 5.2 11.4 9.6 9.4 6.8 0.7 4.6 2.2 1.1 0.5 0.0 0.0 0.0 0.0 0.0 0.0 0.0 0.0 0.0 0.0 0.0 0.0 0.0 0.4 1.2 1.6 2.9
0.0 0.0 0.0 0.0 0.0 0.0 0.0 0.0 0.0 0.0 0.0 8.9 23.1 23.8 19.0 14.6 9.6 5.7 2.0 0.4 0.5 0.5 0.3 0.2 2.7 5.1 4.1 6.3 7.7 13.1 11.7 6.2 8.4 4.3 2.5 2.5 1.1 0.8 0.4 0.1 0.0 0.0 0.0 0.0 0.0 0.1 0.0 0.0 0.8 1.6 2.3 3.7 3.3 4.7
0.0 0.0 0.0 0.0 0.0 0.0 0.0 0.0 0.0 0.0 5.0 13.5 9.7 10.3 9.8 7.8 5.4 4.2 2.0 0.5 0.7 0.3 0.2 1.0 2.4 6.3 9.9 11.9 9.3 8.4 11.1 8.9 6.3 5.3 5.3 3.8 1.5 1.4 1.2 1.6 1.5 0.6 0.7 2.7 5.1 5.7 4.8 4.3 4.2 5.7 6.2 6.0 4.5 4.9
0.0 0.0 0.0 0.0 0.0 0.0 0.0 0.0 0.0 3.6 4.7 7.9 6.3 6.1 5.5 4.2 5.7 4.5 3.5 3.9 1.9 1.9 0.8 2.7 11.1 11.7 13.0 9.7 9.9 6.6 6.2 5.5 5.9 3.9 3.7 2.5 2.9 3.1 3.2 3.4 4.3 5.1 5.9 6.9 7.8 8.3 8.8 7.7 6.8 7.7 8.3 7.1 7.3 6.0
0.0 0.0 0.0 0.0 0.0 0.0 0.0 6.3 4.0 10.3 10.5 6.0 7.0 5.7 4.6 4.6 7.1 6.1 5.3 5.3 2.1 4.5 7.3 6.8 9.3 9.7 8.1 6.7 6.5 4.7 5.2 4.6 3.3 3.4 4.0 3.9 4.1 4.7 5.1 5.3 6.2 6.0 6.0 6.8 7.7 6.9 7.4 7.4 6.3 4.4 5.6 7.4 6.1 5.8
0.0 0.0 0.0 0.0 0.0 0.0 5.2 4.3 4.4 6.5 5.6 6.6 7.2 8.2 4.1 5.3 6.0 5.1 4.5 4.7 5.4 5.7 3.4 4.1 2.9 4.7 6.1 6.0 6.5 6.2 5.6 6.1 5.6 5.1 5.4 6.3 5.9 6.5 6.3 6.1 7.0 6.2 5.8 6.5 6.2 5.4 4.9 5.0 4.5 5.3 4.6 4.6 4.1 4.7
0.0 0.0 0.0 0.0 0.0 1.5 7.4 4.4 1.2 2.1 5.2 6.9 9.2 8.1 6.0 7.0 8.0 7.7 5.1 4.4 5.1 4.9 3.9 4.6 5.3 5.3 6.8 7.8 7.5 7.2 6.6 6.0 6.9 9.0 10.2 11.0 9.8 8.4 7.9 6.4 5.8 6.1 5.5 6.0 5.9 6.0 5.4 4.6 4.6 4.3 3.8 3.8 4.3 5.1
0.0 0.0 0.0 0.0 0.0 4.4 3.6 2.9 0.0 1.1 5.0 6.3 7.2 7.1 5.8 8.7 7.4 6.4 4.7 3.9 3.1 4.6 7.3 8.2 10.4 11.5 11.2 11.4 9.4 8.3 8.6 8.4 6.3 7.4 11.7 11.8 11.1 8.7 9.2 6.8 6.4 5.6 4.7 4.5 4.9 4.7 3.5 3.6 3.9 3.9 3.8 4.0 3.7 4.1
0.0 0.0 0.0 0.0 0.6 2.4 4.2 4.9 3.2 2.8 3.7 4.2 6.4 4.0 6.8 3.5 4.5 4.2 3.1 1.6 2.3 6.7 9.5 11.9 12.7 15.8 15.3 12.6 10.3 7.8 8.5 6.6 7.6 5.2 6.8 8.9 10.3 6.2 7.1 6.8 5.5 4.6 3.8 4.1 3.6 4.8 3.7 3.3 3.2 2.7 3.1 3.6 3.1 2.7
1.2 0.0 0.5 0.0 2.3 0.9 1.2 3.1 2.4 3.2 1.9 4.9 4.9 2.9 4.2 3.9 3.4 4.0 1.2 1.9 7.6 11.4 13.1 12.6 11.7 11.8 9.9 10.0 10.2 8.4 8.5 6.1 5.7 5.8 6.1 4.8 6.2 5.6 5.7 6.0 4.1 4.4 4.5 4.4 3.4 3.8 3.3 2.3 2.2 2.3 2.0 2.1 1.8 2.0
0.0 1.8 2.5 2.4 1.9 1.4 4.2 4.3 3.1 4.8 4.1 5.1 2.9 2.8 3.9 3.8 4.0 0.6 2.4 6.2 9.4 12.1 12.6 10.7 10.6 9.9 8.3 9.6 5.7 6.5 7.8 4.1 4.6 5.4 5.3 4.8 4.6 4.6 3.8 4.6 4.4 3.8 3.6 4.0 2.6 2.4 2.2 2.2 1.8 1.7 1.5 1.4 1.4 1.6
0.1 4.1 4.2 2.8 2.1 3.1 1.1 1.6 1.9 2.3 2.5 2.4 2.1 3.4 4.1 3.9 0.5 1.2 3.7 6.4 10.0 8.1 7.5 8.6 7.5 7.2 5.6 4.2 4.6 5.6 8.2 5.4 3.5 4.0 5.1 3.4 2.4 4.2 3.1 3.4 3.6 3.3 2.1 1.9 1.8 1.8 1.9 1.7 1.4 1.2 1.1 2.1 2.3 2.1
7.9 6.0 3.1 2.1 0.9 0.7 0.4 0.3 0.6 0.6 1.8 1.4 1.3 3.0 4.0 1.6 1.3 2.1 3.5 6.2 5.7 6.4 7.3 7.4 5.8 5.6 5.2 5.8 5.8 5.8 6.1 4.7 3.7 2.6 4.8 4.0 3.6 3.0 2.8 2.1 1.6 1.7 1.0 1.1 2.0 2.4 2.0 1.3 1.6 1.9 1.8 1.6 1.3 1.2
5.5 2.3 1.1 0.3 0.5 0.2 0.2 0.2 0.4 0.7 0.5 0.5 1.5 1.7 1.1 0.6 0.5 1.6 2.8 4.9 4.5 5.1 5.9 6.2 5.9 4.8 4.9 5.1 4.7 4.1 5.2 4.0 2.4 1.9 3.7 3.1 3.4 3.3 3.1 2.5 1.8 1.6 0.9 1.3 1.9 1.9 0.9 1.0 1.0 0.8 0.7 0.3 0.7 1.1
1.9 0.8 0.0 0.0 0.4 0.5 0.4 0.1 0.2 0.5 0.4 1.2 0.8 1.2 1.4 1.1 1.3 3.2 3.3 3.4 3.4 4.4 4.2 4.0 3.3 3.5 4.0 4.5 4.3 4.4 3.3 2.2 2.0 2.6 1.5 1.2 0.9 1.2 1.7 3.0 3.4 3.1 1.5 1.5 1.6 2.0 2.0 1.3 1.1 0.8 1.0 0.7 0.8 1.8
0.5 0.1 0.3 0.5 0.8 0.9 0.9 0.8 0.6 1.1 1.3 1.2 0.7 1.2 1.4 1.2 2.9 4.0 4.3 4.6 3.9 3.2 2.9 2.9 2.5 2.1 2.3 2.5 2.8 2.8 2.9 2.5 1.6 0.9 0.4 0.6 0.9 1.0 1.2 1.6 1.6 1.1 1.3 1.4 1.6 1.6 1.6 1.6 1.9 1.6 1.8 1.8 1.8 1.3
0.5 0.2 0.1 0.3 1.2 1.5 1.8 1.8 2.2 2.3 2.1 2.1 1.5 1.6 2.3 3.8 6.5 5.3 5.4 4.2 3.1 2.1 2.3 2.4 3.3 2.2 1.7 1.3 1.4 1.5 1.2 1.5 2.2 1.8 1.2 1.9 2.3 2.1 1.5 1.2 0.8 0.9 1.1 1.1 1.0 1.7 1.6 2.2 1.9 2.1 2.4 2.4 2.3 2.4
0.5 1.5 1.5 0.9 1.1 2.2 4.1 3.1 3.1 2.7 1.7 1.5 1.1 0.7 1.4 4.3 6.9 4.5 3.1 2.7 2.0 2.2 2.6 2.2 2.2 1.5 1.7 1.3 1.1 0.9 1.5 1.4 1.9 2.7 2.4 1.7 2.1 1.6 1.4 1.6 1.3 1.2 1.6 2.1 1.8 1.3 1.6 1.3 1.4 3.0 2.6 2.3 3.1 3.0
1.3 1.5 1.0 1.2 2.1 2.5 1.9 1.3 1.1 0.8 0.7 0.7 0.4 0.7 1.2 2.6 3.1 2.3 2.6 3.3 1.8 1.7 1.2 1.2 1.1 1.6 1.1 0.8 1.6 1.4 1.6 1.7 1.2 1.2 1.5 1.8 2.1 2.0 2.2 1.8 1.9 1.6 1.5 1.5 1.6 1.7 1.9 2.0 2.3 2.6 2.1 1.7 1.6 1.8
0.4 0.4 0.7 0.7 1.7 1.3 1.3 2.8 1.7 1.1 1.1 0.7 0.8 0.1 0.8 1.1 1.4 2.0 2.2 2.2 1.0 0.9 1.1 1.1 1.2 1.4 1.5 1.5 1.8 1.7 1.7 1.6 1.3 1.5 1.6 1.8 2.0 1.9 1.6 1.4 1.4 1.4 1.1 1.0 1.2 1.3 1.2 1.3 1.3 1.0 0.9 0.7 1.0 0.7
0.6 0.8 0.5 1.0 0.8 0.6 0.9 1.1 0.6 0.4 0.6 0.6 1.0 0.6 0.8 0.9 2.2 3.2 1.5 1.4 1.9 1.8 1.9 2.0 1.9 2.3 2.4 2.2 2.1 1.9 1.5 1.5 1.4 1.2 1.3 1.2 1.0 0.8 0.7 1.0 1.1 0.9 0.9 0.8 1.0 1.0 0.8 0.7 0.8 0.9 0.9 1.0 0.8 0.6

GFSWCAN_prec_snow_129.txt.gz
Snowfall_Accumulation
0.0 0.0 0.0 0.0 0.0 0.0 0.0 0.0 0.0 0.0 0.0 0.0 0.0 0.0 0.0 0.0 0.0 0.0 0.0 0.0 0.0 7.5 0.7 0.0 0.0 0.2 1.0 1.7 2.0 3.0 2.5 3.2 2.9 4.0 2.3 1.3 2.1 2.0 2.6 1.4 8.8 11.1 13.6 8.2 8.7 7.9 6.5 1.3 0.4 4.3 2.4 0.9 0.9 1.1
0.0 0.0 0.0 0.0 0.0 0.0 0.0 0.0 0.0 0.0 0.0 0.0 0.0 0.0 0.0 0.0 0.0 0.0 0.0 0.0 0.0 0.8 2.2 0.0 0.0 0.0 0.0 0.0 0.0 0.0 2.9 3.9 6.6 7.8 6.8 3.4 2.4 2.0 1.7 3.5 6.0 12.5 10.6 10.4 7.5 6.3 3.6 2.1 2.3 2.4 1.9 1.5 1.7 2.3
0.0 0.0 0.0 0.0 0.0 0.0 0.0 0.0 0.0 0.0 0.0 0.0 0.0 0.0 0.0 0.0 0.0 0.0 0.0 0.0 0.0 6.2 6.9 0.0 0.0 0.0 0.0 0.0 0.0 0.6 0.0 0.0 0.0 0.0 6.7 3.8 2.6 1.8 2.6 2.3 5.6 8.1 7.5 13.1 6.4 4.3 1.9 3.2 1.6 2.0 2.6 2.6 1.1 0.0
0.0 0.0 0.0 0.0 0.0 0.0 0.0 0.0 0.0 0.0 0.0 0.0 0.0 0.0 0.0 0.0 0.0 0.0 0.0 0.0 0.0 4.1 11.3 1.4 0.0 0.0 0.0 0.0 0.0 0.0 0.0 0.0 0.0 0.0 5.2 3.5 2.3 0.2 0.7 0.9 1.5 8.4 7.4 8.0 11.8 11.6 1.5 2.5 3.3 3.5 2.8 1.4 1.5 0.0
0.0 0.0 0.0 0.0 0.0 0.0 0.0 0.0 0.0 0.0 0.0 0.0 0.0 0.0 0.0 0.0 0.0 0.0 0.0 0.0 0.0 0.0 4.1 1.5 0.0 0.0 0.0 0.0 0.0 0.0 0.0 0.0 0.1 3.7 5.4 3.0 0.1 1.1 0.1 0.2 3.7 0.5 2.9 5.1 10.4 7.1 8.7 6.4 8.5 4.7 2.5 0.6 0.0 0.0
0.0 0.0 0.0 0.0 0.0 0.0 0.0 0.0 0.0 0.0 0.0 0.0 0.0 0.0 0.0 0.0 0.0 0.0 11.2 0.0 0.0 0.0 7.7 4.3 0.0 0.0 0.0 0.0 0.0 0.0 0.0 0.0 0.1 3.5 3.0 0.1 0.0 0.8 2.8 1.4 0.0 0.0 1.2 3.0 2.7 2.9 4.1 4.7 0.0 0.0 0.8 1.6 1.2 0.0
0.0 0.0 0.0 0.0 0.0 0.0 0.0 0.0 0.0 0.0 0.0 0.0 0.0 0.0 0.0 0.0 0.0 2.5 9.5 0.0 0.0 0.0 12.0 9.6 0.6 0.0 0.0 0.0 0.0 0.0 0.0 0.0 0.1 3.5 3.8 0.3 0.0 1.8 2.5 1.1 0.5 0.0 0.1 0.1 0.0 0.0 0.0 0.0 1.1 0.0 0.0 0.0 0.6 0.0
0.0 0.0 0.0 0.0 0.0 0.0 0.0 0.0 0.0 0.0 0.0 0.0 0.0 0.0 0.0 0.0 0.0 1.2 0.0 0.0 0.0 0.0 2.3 11.7 3.1 3.4 0.0 0.2 1.1 0.0 0.1 0.2 1.2 0.7 2.0 1.1 0.9 1.5 4.6 0.2 0.0 0.0 0.0 0.1 0.0 0.0 0.1 0.0 0.0 0.0 0.0 0.0 0.0 0.0
0.0 0.0 0.0 0.0 0.0 0.0 0.0 0.0 0.0 0.0 0.0 0.0 0.0 0.0 0.0 0.0 16.5 0.0 0.0 0.0 0.0 0.0 7.6 6.6 6.8 8.7 0.0 0.0 0.0 2.2 0.0 6.9 0.0 3.8 0.7 1.8 2.1 3.9 1.3 0.1 0.0 0.0 0.0 0.0 0.0 0.0 0.0 0.0 0.0 0.0 0.0 0.0 0.0 0.0
0.0 0.0 0.0 0.0 0.0 0.0 0.0 0.0 0.0 0.0 0.0 0.0 0.0 30.6 50.1 7.8 0.0 0.0 0.0 13.4 11.3 6.6 2.9 5.6 0.5 8.3 0.0 8.9 5.7 7.9 3.5 5.9 6.4 1.3 0.3 2.6 3.1 0.8 0.3 0.2 0.1 0.0 0.0 0.0 0.0 0.0 0.0 0.1 0.0 0.0 0.0 0.0 0.0 0.0
0.0 0.0 0.0 0.0 0.0 0.0 0.0 0.0 0.0 0.0 0.0 0.0 25.4 13.9 0.0 0.0 0.0 5.2 18.5 19.7 9.6 9.7 3.4 1.0 0.2 4.2 0.0 11.9 8.6 0.0 15.7 6.2 4.6 1.6 2.3 3.8 2.9 1.0 0.2 0.2 0.0 0.0 0.0 0.0 0.0 0.0 0.0 0.0 0.0 0.0 0.0 0.0 0.0 0.0
0.0 0.0 0.0 0.0 0.0 0.0 0.0 0.0 0.0 0.0 0.0 0.0 0.0 0.0 0.0 3.2 9.7 12.5 12.0 10.6 3.2 0.9 0.2 0.0 0.0 0.0 1.2 0.8 10.9 7.7 4.5 10.4 5.0 0.0 4.5 2.4 2.0 0.3 0.0 0.0 0.0 0.0 0.0 0.0 0.0 0.0 0.0 0.0 0.0 0.0 0.0 0.0 0.3 0.2
0.0 0.0 0.0 0.0 0.0 0.0 0.0 0.0 0.0 0.0 0.0 0.0 3.5 9.2 15.3 19.6 19.4 11.6 7.3 4.1 1.3 0.2 0.3 0.1 1.7 1.0 1.8 5.2 11.5 9.6 9.4 6.8 0.7 4.9 2.4 1.1 0.5 0.0 0.0 0.0 0.0 0.0 0.0 0.0 0.0 0.0 0.0 0.0 0.0 0.0 0.4 1.2 1.6 2.9
0.0 0.0 0.0 0.0 0.0 0.0 0.0 0.0 0.0 0.0 0.0 9.2 23.1 23.9 19.0 14.6 9.6 5.7 2.0 0.4 0.5 0.5 0.3 0.2 2.7 5.2 4.1 6.3 7.8 13.1 11.7 6.3 8.5 4.4 2.9 2.5 1.1 0.8 0.4 0.1 0.0 0.0 0.0 0.0 0.0 0.1 0.0 0.0 0.8 1.6 2.3 3.7 3.3 4.7
0.0 0.0 0.0 0.0 0.0 0.0 0.0 0.0 0.0 0.0 5.0 13.6 9.7 10.9 9.8 7.8 5.8 4.5 2.0 0.5 0.7 0.3 0.2 1.0 2.5 6.3 10.3 12.0 9.4 8.6 11.5 9.1 6.3 5.7 5.3 3.8 1.5 1.4 1.2 1.6 1.5 0.6 0.7 2.7 5.1 5.7 4.8 4.3 4.2 5.7 6.2 6.0 4.5 4.9
0.0 0.0 0.0 0.0 0.0 0.0 0.0 0.0 0.0 3.6 5.0 7.9 6.3 6.9 5.5 4.4 5.7 4.5 3.5 3.9 1.9 1.9 0.8 2.7 11.5 11.7 13.3 9.7 10.4 6.6 6.6 6.1 6.4 4.0 3.7 2.5 2.9 3.1 3.2 3.4 4.3 5.1 5.9 6.9 7.8 8.3 8.8 7.7 6.8 7.8 8.4 7.3 7.3 6.1
0.0 0.0 0.0 0.0 0.0 0.0 0.0 8.5 6.6 11.6 10.9 6.0 7.2 6.1 5.1 4.8 7.5 6.1 5.4 5.3 2.1 4.5 8.0 7.7 9.9 9.7 8.6 7.2 7.0 5.0 5.7 4.8 3.5 3.5 4.1 3.9 4.1 4.7 5.1 5.3 6.2 6.0 6.0 6.8 7.7 6.9 7.5 7.4 6.3 4.4 5.6 7.4 6.1 5.9
0.0 0.0 0.0 0.0 0.0 0.0 5.2 5.9 5.0 6.6 5.8 6.6 7.2 8.4 4.1 5.3 6.0 5.1 4.5 4.7 5.4 5.7 3.4 4.7 3.5 5.4 6.5 6.4 7.1 6.8 6.0 6.3 5.6 5.2 5.5 6.3 5.9 6.5 6.3 6.2 7.0 6.2 5.8 6.5 6.2 5.4 5.0 5.0 4.5 5.3 4.6 4.6 4.1 4.7
0.0 0.0 0.0 0.0 0.0 3.1 9.4 5.6 1.2 2.1 5.3 6.9 9.2 8.1 6.0 7.0 8.0 7.7 5.1 4.4 5.1 5.0 3.9 4.9 5.9 5.7 7.2 7.8 7.5 7.6 6.9 6.0 7.0 9.0 10.2 11.0 9.8 8.4 7.9 6.4 5.8 6.3 5.5 6.0 5.9 6.0 5.4 4.7 4.7 4.3 3.8 3.8 4.3 5.3
0.0 0.0 0.0 0.0 0.0 5.0 3.9 3.4 0.0 1.1 5.0 6.3 7.2 7.1 5.8 8.7 7.4 6.4 4.7 3.9 3.4 5.5 8.4 8.8 10.6 11.6 11.2 11.5 9.5 8.4 8.6 8.4 6.3 7.7 12.1 11.9 11.1 8.8 9.2 6.8 6.4 5.6 4.7 4.5 5.1 4.7 3.5 3.6 3.9 3.9 3.8 4.0 3.7 4.2
0.0 0.0 0.0 0.0 0.6 2.4 4.2 4.9 3.2 2.8 3.7 4.2 6.4 4.0 6.8 3.5 4.5 4.3 3.3 1.6 3.0 7.3 9.8 12.0 12.7 15.9 15.4 12.7 10.3 7.8 8.5 6.7 7.7 5.5 7.2 9.2 10.3 6.2 7.1 6.9 5.6 4.7 3.9 4.2 3.7 4.9 3.7 3.3 3.2 2.8 3.1 3.6 3.1 2.8
1.2 0.0 0.5 0.0 2.5 0.9 1.2 3.1 2.4 3.2 1.9 4.9 4.9 2.9 4.4 4.1 3.6 4.1 1.2 2.3 7.8 11.4 13.2 12.9 11.8 11.9 10.0 10.1 10.3 8.4 8.5 6.1 5.7 5.8 6.1 4.8 6.2 5.6 5.7 6.0 4.1 4.6 4.5 4.4 3.5 3.8 3.4 2.3 2.2 2.4 2.0 2.1 1.9 2.0
0.0 1.8 2.5 2.4 1.9 1.4 4.2 4.3 3.3 4.8 4.1 5.2 2.9 2.9 4.0 3.9 4.0 0.6 2.5 6.2 9.4 12.1 12.7 10.7 10.7 9.9 8.4 9.7 5.7 6.5 7.8 4.2 4.6 5.4 5.3 4.8 4.6 4.6 3.9 4.7 4.4 3.8 3.7 4.0 2.6 2.4 2.3 2.2 1.8 1.7 1.6 1.4 1.5 1.8
0.1 4.1 4.2 2.8 2.1 3.3 1.1 1.7 2.0 2.3 2.5 2.4 2.2 3.4 4.2 3.9 0.5 1.2 3.9 6.5 10.1 8.1 7.5 8.6 7.5 7.3 5.6 4.3 4.8 5.7 8.3 5.4 3.5 4.0 5.1 3.5 2.4 4.2 3.1 3.4 3.6 3.3 2.1 2.1 1.9 1.8 2.0 1.7 1.4 1.3 1.1 2.3 2.3 2.2
7.9 6.0 3.2 2.3 1.0 0.7 0.6 0.3 0.7 0.6 1.9 1.4 1.4 3.1 4.0 1.6 1.4 2.1 3.5 6.4 5.7 6.5 7.4 7.5 5.9 5.7 5.4 6.0 5.8 5.8 6.1 4.8 3.7 2.6 4.8 4.0 3.7 3.2 3.0 2.1 1.6 1.7 1.0 1.1 2.1 2.6 2.0 1.3 1.7 1.9 1.9 1.6 1.3 1.3
6.1 2.3 1.3 0.3 0.5 0.3 0.2 0.3 0.5 0.7 0.5 0.5 1.5 1.7 1.1 0.7 0.6 1.7 2.8 5.0 4.6 5.2 5.9 6.3 6.0 4.9 5.1 5.1 4.8 4.1 5.2 4.0 2.4 1.9 3.7 3.1 3.4 3.3 3.2 2.8 2.3 1.8 0.9 1.4 2.0 2.1 1.3 1.0 1.0 0.8 0.8 0.4 0.7 1.1
2.4 1.1 0.0 0.0 0.4 0.5 0.4 0.1 0.2 0.5 0.4 1.2 0.8 1.2 1.4 1.1 1.3 3.3 3.3 3.5 3.5 4.5 4.2 4.0 3.4 3.5 4.0 4.5 4.3 4.4 3.4 2.2 2.0 2.6 1.5 1.2 0.9 1.2 1.7 3.0 3.5 3.1 1.5 1.6 1.6 2.2 2.2 1.6 1.3 0.8 1.1 0.9 0.9 1.8
0.6 0.1 0.3 0.5 0.8 0.9 0.9 0.8 0.6 1.1 1.3 1.2 0.7 1.2 1.4 1.2 3.1 4.2 4.4 4.7 3.9 3.2 2.9 2.9 2.5 2.1 2.3 2.6 2.9 2.9 2.9 2.5 1.6 0.9 0.4 0.6 0.9 1.0 1.2 1.6 1.7 1.1 1.3 1.6 1.6 1.6 1.6 1.7 2.0 1.8 1.9 1.9 1.8 1.3
0.5 0.3 0.1 0.3 1.2 1.5 1.8 1.8 2.2 2.3 2.1 2.1 1.6 1.6 2.3 3.8 6.7 5.5 5.5 4.2 3.1 2.1 2.3 2.4 3.3 2.2 1.7 1.3 1.4 1.5 1.2 1.5 2.3 2.0 1.2 2.2 2.6 2.2 1.5 1.2 0.9 0.9 1.1 1.3 1.3 1.7 1.6 2.2 1.9 2.1 2.4 2.5 2.4 2.5
0.5 1.5 1.6 0.9 1.1 2.2 4.1 3.1 3.1 2.7 1.7 1.5 1.1 0.7 1.4 4.4 7.1 4.6 3.2 2.8 2.1 2.4 2.7 2.3 2.3 1.6 1.8 1.3 1.2 1.0 1.5 1.4 1.9 2.8 2.5 1.8 2.2 1.6 1.4 1.6 1.3 1.2 1.6 2.1 1.9 1.4 1.6 1.3 1.5 3.2 2.7 2.4 3.1 3.1
1.3 1.5 1.0 1.2 2.1 2.6 2.0 1.3 1.2 0.8 0.7 0.7 0.4 0.7 1.2 2.7 3.2 2.3 3.0 3.6 1.9 1.7 1.2 1.3 1.2 1.7 1.2 0.9 1.6 1.5 1.6 1.7 1.2 1.2 1.5 1.8 2.1 2.0 2.2 1.8 1.9 1.6 1.6 1.5 1.6 1.7 1.9 2.0 2.4 2.6 2.1 1.7 1.6 1.8
0.6 0.5 0.7 0.7 1.7 1.3 1.5 2.9 1.8 1.2 1.1 0.7 0.8 0.1 0.9 1.1 1.4 2.0 2.3 2.2 1.0 1.0 1.1 1.2 1.2 1.5 1.5 1.5 1.8 1.7 1.7 1.6 1.3 1.5 1.6 1.8 2.0 1.9 1.6 1.5 1.4 1.4 1.1 1.0 1.2 1.3 1.2 1.3 1.3 1.0 0.9 0.7 1.0 0.7
0.7 1.0 0.6 1.0 0.9 0.8 1.0 1.3 0.7 0.5 0.7 0.7 1.0 0.6 0.8 0.9 2.2 3.3 1.5 1.4 2.0 1.8 1.9 2.0 1.9 2.3 2.4 2.2 2.1 1.9 1.5 1.5 1.4 1.2 1.3 1.2 1.0 0.8 0.7 1.0 1.1 0.9 0.9 0.8 1.0 1.0 0.8 0.7 0.8 0.9 0.9 1.0 0.8 0.6

GFSWCAN_prec_snow_135.txt.gz
Snowfall_Accumulation
0.0 0.0 0.0 0.0 0.0 0.0 0.0 0.0 0.0 0.0 0.0 0.0 0.0 0.0 0.0 0.0 0.0 0.0 0.0 0.0 0.0 7.5 0.7 0.0 0.0 0.2 1.0 1.7 2.0 3.0 2.5 3.2 2.9 4.0 2.3 1.3 2.1 2.0 2.6 1.4 8.8 11.1 13.6 8.2 8.7 7.9 6.5 1.3 0.4 4.3 3.1 1.6 1.8 2.1
0.0 0.0 0.0 0.0 0.0 0.0 0.0 0.0 0.0 0.0 0.0 0.0 0.0 0.0 0.0 0.0 0.0 0.0 0.0 0.0 0.0 0.8 2.2 0.0 0.0 0.0 0.0 0.0 0.0 0.0 2.9 3.9 6.6 7.8 6.8 3.4 2.4 2.0 1.7 3.5 6.0 12.5 10.6 10.5 7.8 6.7 3.9 2.4 2.7 3.3 3.1 2.9 2.9 3.6
0.0 0.0 0.0 0.0 0.0 0.0 0.0 0.0 0.0 0.0 0.0 0.0 0.0 0.0 0.0 0.0 0.0 0.0 0.0 0.0 0.0 6.2 6.9 0.0 0.0 0.0 0.0 0.0 0.0 0.6 0.0 0.0 0.0 0.0 6.7 3.8 2.6 1.8 2.6 2.3 5.6 8.1 7.5 13.1 6.4 4.7 2.0 3.6 2.0 2.2 3.1 3.2 1.6 0.0
0.0 0.0 0.0 0.0 0.0 0.0 0.0 0.0 0.0 0.0 0.0 0.0 0.0 0.0 0.0 0.0 0.0 0.0 0.0 0.0 0.0 4.1 11.3 1.4 0.0 0.0 0.0 0.0 0.0 0.0 0.0 0.0 0.0 0.0 5.2 3.5 2.3 0.2 0.7 0.9 1.5 8.4 7.4 8.0 11.8 11.7 1.7 3.1 3.4 3.6 2.8 1.4 1.5 0.0
0.0 0.0 0.0 0.0 0.0 0.0 0.0 0.0 0.0 0.0 0.0 0.0 0.0 0.0 0.0 0.0 0.0 0.0 0.0 0.0 0.0 0.0 4.1 1.5 0.0 0.0 0.0 0.0 0.0 0.0 0.0 0.0 0.1 3.7 5.4 3.0 0.1 1.1 0.1 0.2 3.7 0.5 2.9 5.1 10.4 7.1 8.9 6.4 8.5 4.7 2.5 0.6 0.0 0.0
0.0 0.0 0.0 0.0 0.0 0.0 0.0 0.0 0.0 0.0 0.0 0.0 0.0 0.0 0.0 0.0 0.0 0.0 11.2 0.0 0.0 0.0 7.7 4.3 0.0 0.0 0.0 0.0 0.0 0.0 0.0 0.0 0.1 3.5 3.0 0.1 0.0 0.8 2.8 1.4 0.0 0.0 1.2 3.0 2.7 2.9 4.1 4.7 0.0 0.0 0.8 1.6 1.2 0.0
0.0 0.0 0.0 0.0 0.0 0.0 0.0 0.0 0.0 0.0 0.0 0.0 0.0 0.0 0.0 0.0 0.0 2.5 9.5 0.0 0.0 0.0 12.0 9.6 0.6 0.0 0.0 0.0 0.0 0.0 0.0 0.0 0.1 3.5 3.8 0.3 0.0 1.8 2.5 1.1 0.5 0.0 0.1 0.1 0.0 0.0 0.0 0.0 1.1 0.0 0.0 0.0 0.6 0.0
0.0 0.0 0.0 0.0 0.0 0.0 0.0 0.0 0.0 0.0 0.0 0.0 0.0 0.0 0.0 0.0 0.0 1.2 0.0 0.0 0.0 0.0 2.3 11.7 3.1 3.4 0.0 0.2 1.1 0.0 0.1 0.2 1.2 0.7 2.0 1.1 0.9 1.5 4.6 0.2 0.0 0.0 0.0 0.1 0.0 0.0 0.1 0.0 0.0 0.0 0.0 0.0 0.0 0.0
0.0 0.0 0.0 0.0 0.0 0.0 0.0 0.0 0.0 0.0 0.0 0.0 0.0 0.0 0.0 0.0 16.5 0.0 0.0 0.0 0.0 0.0 7.6 6.6 6.8 8.7 0.0 0.0 0.0 2.2 0.0 6.9 0.0 3.8 0.7 1.8 2.1 4.1 1.3 0.1 0.0 0.0 0.0 0.0 0.0 0.0 0.0 0.0 0.0 0.0 0.0 0.0 0.0 0.0
0.0 0.0 0.0 0.0 0.0 0.0 0.0 0.0 0.0 0.0 0.0 0.0 0.0 30.6 50.1 7.8 0.0 0.0 0.0 13.4 11.3 6.6 2.9 5.6 0.5 8.3 0.0 8.9 6.2 7.9 3.5 5.9 6.4 1.3 0.3 2.6 3.1 0.8 0.3 0.2 0.1 0.0 0.0 0.0 0.0 0.0 0.0 0.1 0.0 0.0 0.0 0.0 0.0 0.0
0.0 0.0 0.0 0.0 0.0 0.0 0.0 0.0 0.0 0.0 0.0 0.0 25.4 13.9 0.0 0.0 0.0 5.2 18.5 19.7 9.6 9.7 3.4 1.0 0.2 4.2 0.0 11.9 8.6 0.0 15.7 6.2 4.6 1.6 2.3 3.9 3.1 1.0 0.2 0.2 0.0 0.0 0.0 0.0 0.0 0.0 0.0 0.0 0.0 0.0 0.0 0.0 0.0 0.0
0.0 0.0 0.0 0.0 0.0 0.0 0.0 0.0 0.0 0.0 0.0 0.0 0.0 0.0 0.0 3.2 9.7 12.5 12.0 10.6 3.2 0.9 0.2 0.0 0.0 0.0 1.2 0.8 10.9 7.7 4.5 10.4 5.0 0.0 5.5 4.2 2.4 0.4 0.0 0.0 0.0 0.0 0.0 0.0 0.0 0.0 0.0 0.0 0.0 0.0 0.0 0.0 0.3 0.2
0.0 0.0 0.0 0.0 0.0 0.0 0.0 0.0 0.0 0.0 0.0 0.0 3.5 9.2 15.3 19.6 19.4 11.6 7.3 4.1 1.3 0.2 0.3 0.1 1.7 1.0 1.8 5.2 11.5 9.6 9.4 6.8 0.7 5.2 2.4 1.1 0.5 0.0 0.0 0.0 0.0 0.0 0.0 0.0 0.0 0.0 0.0 0.0 0.0 0.0 0.4 1.2 1.6 2.9
0.0 0.0 0.0 0.0 0.0 0.0 0.0 0.0 0.0 0.0 0.0 9.2 23.1 23.9 19.0 14.6 9.6 5.7 2.0 0.4 0.5 0.5 0.3 0.2 2.7 5.2 4.1 6.3 7.8 13.1 11.7 6.3 8.6 4.5 2.9 2.5 1.1 0.8 0.4 0.1 0.0 0.0 0.0 0.0 0.0 0.1 0.0 0.0 0.8 1.6 2.3 3.7 3.3 4.7
0.0 0.0 0.0 0.0 0.0 0.0 0.0 0.0 0.0 0.0 5.0 13.6 9.7 10.9 9.8 7.8 5.8 4.5 2.0 0.5 0.7 0.3 0.2 1.0 2.5 6.3 10.3 12.0 9.4 8.6 11.5 9.1 6.3 5.7 5.3 3.8 1.5 1.4 1.2 1.6 1.5 0.6 0.7 2.7 5.1 5.7 4.8 4.3 4.2 5.7 6.2 6.0 4.5 4.9
0.0 0.0 0.0 0.0 0.0 0.0 0.0 0.0 0.0 3.6 5.0 7.9 6.3 6.9 5.5 4.4 5.7 4.5 3.5 3.9 1.9 1.9 0.8 2.7 11.5 11.7 13.3 9.7 10.4 6.6 6.6 6.1 6.4 4.2 3.8 2.8 3.0 3.1 3.2 3.4 4.3 5.1 5.9 6.9 7.8 8.3 8.8 7.7 6.8 7.8 8.4 7.3 7.3 6.1
0.0 0.4 0.0 0.0 0.0 0.0 0.0 8.5 6.6 11.6 10.9 6.0 7.2 6.1 5.1 4.8 7.5 6.1 5.4 5.3 2.1 4.6 8.3 8.4 9.9 9.7 8.6 7.2 7.0 5.0 5.8 4.8 3.5 3.9 4.7 4.3 4.2 4.7 5.1 5.3 6.2 6.0 6.0 6.8 7.7 6.9 7.5 7.4 6.3 4.4 5.6 7.4 6.1 5.9
0.0 0.0 0.0 0.0 0.0 0.0 6.5 5.9 5.3 6.6 5.8 6.6 7.2 8.4 4.1 5.3 6.0 5.1 4.5 4.7 5.4 5.8 3.4 5.5 4.7 5.7 6.5 6.4 7.1 6.8 6.0 7.0 6.3 5.5 6.0 6.4 5.9 6.5 6.3 6.2 7.0 6.2 5.8 6.5 6.2 5.4 5.0 5.0 4.5 5.3 4.6 4.6 4.1 4.7
0.0 0.0 0.0 0.0 2.6 5.0 11.1 6.3 1.2 2.1 5.3 6.9 9.2 8.1 6.0 7.0 8.0 7.7 5.1 4.4 5.1 5.0 3.9 4.9 5.9 5.7 7.2 7.8 7.5 7.6 6.9 6.0 7.1 9.1 10.2 11.0 9.8 8.4 7.9 6.4 5.8 6.3 5.5 6.0 5.9 6.0 5.4 4.7 4.7 4.3 3.8 3.8 4.3 5.3
0.0 0.0 0.0 0.0 0.0 5.5 3.9 3.5 0.0 1.1 5.0 6.3 7.2 7.1 5.8 8.7 7.4 6.4 4.7 3.9 3.4 5.5 8.4 8.8 10.6 11.6 11.2 11.5 9.5 8.4 8.6 8.4 6.3 7.7 12.1 11.9 11.1 8.8 9.2 6.8 6.4 5.6 4.7 4.5 5.1 4.7 3.5 3.6 3.9 3.9 3.8 4.0 3.7 4.2
0.0 0.0 0.0 0.0 1.7 2.8 4.2 4.9 3.2 2.8 3.7 4.2 6.4 4.0 6.8 3.5 4.5 4.3 3.3 1.6 3.0 7.3 9.8 12.0 12.7 16.0 15.4 12.7 10.3 7.8 8.5 6.7 7.7 5.5 7.2 9.2 10.4 6.2 7.1 6.9 5.6 4.7 3.9 4.2 3.7 4.9 3.7 3.3 3.2 2.8 3.1 3.6 3.1 2.8
4.1 0.0 3.9 0.0 2.6 0.9 1.2 3.1 2.4 3.2 1.9 4.9 4.9 2.9 4.4 4.1 3.6 4.1 1.2 2.3 7.8 11.4 13.2 12.9 11.8 11.9 10.0 10.1 10.3 8.4 8.5 6.1 5.8 5.9 6.1 4.8 6.3 5.6 5.7 6.0 4.1 4.6 4.5 4.4 3.5 3.8 3.4 2.3 2.2 2.4 2.0 2.1 1.9 2.0
0.0 2.9 2.8 2.4 1.9 1.4 4.2 4.3 3.3 4.8 4.1 5.2 2.9 2.9 4.0 3.9 4.0 0.6 2.5 6.2 9.4 12.1 12.7 10.7 10.7 9.9 8.4 9.7 5.7 6.5 7.8 4.2 4.8 5.6 5.5 4.8 4.6 4.6 3.9 4.7 4.4 3.8 3.7 4.0 2.6 2.4 2.3 2.2 1.8 1.7 1.6 1.4 1.5 1.8
0.1 4.3 4.3 2.9 2.1 3.3 1.1 1.7 2.0 2.3 2.5 2.4 2.2 3.4 4.2 3.9 0.5 1.2 3.9 6.5 10.1 8.1 7.5 8.6 7.5 7.3 5.6 4.3 4.9 6.0 8.5 5.4 3.6 4.2 5.1 3.6 2.4 4.2 3.1 3.4 3.6 3.3 2.1 2.2 2.0 1.8 2.0 1.7 1.4 1.3 1.1 2.3 2.3 2.2
8.0 6.0 3.2 2.3 1.0 0.7 0.6 0.4 0.7 0.6 1.9 1.4 1.4 3.1 4.0 1.6 1.4 2.1 3.5 6.4 5.8 6.5 7.4 7.5 5.9 5.7 5.4 6.0 5.9 5.9 6.1 4.8 3.7 2.6 4.8 4.0 3.7 3.2 3.1 2.1 1.6 1.7 1.0 1.1 2.1 2.6 2.0 1.3 1.7 1.9 1.9 1.6 1.3 1.3
6.1 2.3 1.3 0.3 0.5 0.3 0.2 0.3 0.5 0.7 0.5 0.5 1.5 1.7 1.1 0.7 0.6 1.7 2.8 5.0 4.6 5.2 5.9 6.3 6.0 4.9 5.3 5.1 4.8 4.1 5.2 4.0 2.4 1.9 3.7 3.1 3.4 3.3 3.2 2.8 2.3 1.8 0.9 1.4 2.0 2.1 1.3 1.0 1.0 0.8 0.8 0.4 0.7 1.1
2.4 1.1 0.0 0.0 0.4 0.5 0.4 0.1 0.2 0.5 0.4 1.2 0.8 1.2 1.4 1.1 1.3 3.3 3.4 3.6 3.5 4.5 4.2 4.0 3.4 3.5 4.0 4.5 4.3 4.4 3.4 2.2 2.0 2.6 1.5 1.2 0.9 1.2 1.7 3.0 3.5 3.1 1.5 1.6 1.6 2.2 2.2 1.6 1.3 0.8 1.1 0.9 0.9 1.8
0.6 0.1 0.3 0.5 0.8 0.9 0.9 0.8 0.6 1.1 1.3 1.2 0.7 1.2 1.4 1.2 3.1 4.3 4.4 4.8 3.9 3.2 2.9 2.9 2.5 2.1 2.3 2.6 2.9 2.9 2.9 2.5 1.6 0.9 0.4 0.6 0.9 1.0 1.2 1.6 1.7 1.1 1.3 1.6 1.6 1.6 1.6 1.7 2.0 1.8 1.9 1.9 1.8 1.3
0.5 0.3 0.1 0.3 1.2 1.5 1.8 1.8 2.2 2.3 2.1 2.1 1.6 1.6 2.3 3.8 6.8 5.6 5.5 4.2 3.1 2.1 2.3 2.4 3.4 2.2 1.7 1.3 1.4 1.5 1.2 1.5 2.3 2.0 1.2 2.2 2.6 2.2 1.5 1.2 0.9 0.9 1.1 1.3 1.3 1.7 1.6 2.2 1.9 2.1 2.4 2.5 2.5 2.5
0.5 1.5 1.6 0.9 1.1 2.2 4.1 3.1 3.1 2.7 1.7 1.5 1.1 0.7 1.4 4.4 7.2 4.6 3.2 2.8 2.1 2.4 2.7 2.3 2.3 1.6 1.8 1.3 1.2 1.0 1.5 1.4 1.9 2.8 2.5 1.8 2.2 1.6 1.4 1.6 1.3 1.2 1.6 2.1 1.9 1.4 1.6 1.3 1.6 3.2 2.7 2.4 3.1 3.1
1.3 1.5 1.0 1.2 2.1 2.6 2.0 1.3 1.2 0.8 0.8 0.7 0.4 0.7 1.2 2.7 3.2 2.3 3.0 3.6 1.9 1.7 1.2 1.3 1.2 1.7 1.2 0.9 1.6 1.5 1.6 1.7 1.2 1.2 1.5 1.8 2.1 2.0 2.2 1.8 1.9 1.6 1.6 1.5 1.6 1.7 1.9 2.0 2.4 2.6 2.1 1.7 1.6 1.8
0.6 0.5 0.7 0.7 1.7 1.4 1.5 2.9 1.8 1.2 1.1 0.7 0.8 0.1 0.9 1.1 1.4 2.0 2.3 2.2 1.0 1.0 1.1 1.2 1.2 1.5 1.5 1.5 1.8 1.7 1.7 1.6 1.3 1.5 1.6 1.8 2.0 1.9 1.6 1.5 1.4 1.4 1.1 1.0 1.2 1.3 1.2 1.3 1.3 1.0 0.9 0.7 1.0 0.7
1.0 1.1 0.7 1.1 1.0 0.8 1.0 1.3 0.7 0.5 0.7 0.7 1.0 0.6 0.8 0.9 2.2 3.3 1.5 1.4 2.0 1.8 1.9 2.0 1.9 2.3 2.4 2.2 2.1 1.9 1.5 1.5 1.4 1.2 1.3 1.2 1.0 0.8 0.7 1.0 1.1 0.9 0.9 0.8 1.0 1.0 0.8 0.7 0.8 0.9 0.9 1.0 0.8 0.6

GFSWCAN_prec_snow_138.txt.gz
Snowfall_Accumulation
0.0 0.0 0.0 0.0 0.0 0.0 0.0 0.0 0.0 0.0 0.0 0.0 0.0 0.0 0.0 0.0 0.0 0.0 0.0 0.0 0.0 7.5 0.7 0.0 0.0 0.2 1.0 1.7 2.0 3.0 2.5 3.2 2.9 4.0 2.3 1.3 2.1 2.0 2.6 1.4 8.8 11.1 13.6 8.2 8.7 7.9 6.5 1.3 0.4 4.3 3.1 1.6 2.1 2.5
0.0 0.0 0.0 0.0 0.0 0.0 0.0 0.0 0.0 0.0 0.0 0.0 0.0 0.0 0.0 0.0 0.0 0.0 0.0 0.0 0.0 0.8 2.2 0.0 0.0 0.0 0.0 0.0 0.0 0.0 2.9 3.9 6.6 7.8 6.8 3.4 2.4 2.0 1.7 3.5 6.0 12.5 10.6 10.5 7.8 6.7 3.9 2.4 2.7 3.3 3.2 3.0 3.3 3.8
0.0 0.0 0.0 0.0 0.0 0.0 0.0 0.0 0.0 0.0 0.0 0.0 0.0 0.0 0.0 0.0 0.0 0.0 0.0 0.0 0.0 6.2 6.9 0.0 0.0 0.0 0.0 0.0 0.0 0.6 0.0 0.0 0.0 0.0 6.7 3.8 2.6 1.8 2.6 2.3 5.6 8.1 7.5 13.1 6.4 4.7 2.0 3.6 2.0 2.2 3.1 3.2 1.6 0.0
0.0 0.0 0.0 0.0 0.0 0.0 0.0 0.0 0.0 0.0 0.0 0.0 0.0 0.0 0.0 0.0 0.0 0.0 0.0 0.0 0.0 4.1 11.3 1.4 0.0 0.0 0.0 0.0 0.0 0.0 0.0 0.0 0.0 0.0 5.2 3.5 2.3 0.2 0.7 0.9 1.5 8.4 7.4 8.0 11.8 11.7 1.7 3.1 3.4 3.6 2.8 1.4 1.5 0.0
0.0 0.0 0.0 0.0 0.0 0.0 0.0 0.0 0.0 0.0 0.0 0.0 0.0 0.0 0.0 0.0 0.0 0.0 0.0 0.0 0.0 0.0 4.1 1.5 0.0 0.0 0.0 0.0 0.0 0.0 0.0 0.0 0.1 3.7 5.4 3.0 0.1 1.1 0.1 0.2 3.7 0.5 2.9 5.1 10.4 7.1 8.9 6.4 8.5 4.7 2.5 0.6 0.0 0.0
0.0 0.0 0.0 0.0 0.0 0.0 0.0 0.0 0.0 0.0 0.0 0.0 0.0 0.0 0.0 0.0 0.0 0.0 11.2 0.0 0.0 0.0 7.7 4.3 0.0 0.0 0.0 0.0 0.0 0.0 0.0 0.0 0.1 3.5 3.0 0.1 0.0 0.8 2.8 1.4 0.0 0.0 1.2 3.0 2.7 2.9 4.1 4.7 0.0 0.0 0.8 1.6 1.2 0.0
0.0 0.0 0.0 0.0 0.0 0.0 0.0 0.0 0.0 0.0 0.0 0.0 0.0 0.0 0.0 0.0 0.0 2.5 9.5 0.0 0.0 0.0 12.0 9.6 0.6 0.0 0.0 0.0 0.0 0.0 0.0 0.0 0.1 3.5 3.8 0.3 0.0 1.8 2.5 1.1 0.5 0.0 0.1 0.1 0.0 0.0 0.0 0.0 1.1 0.0 0.0 0.0 0.6 0.0
0.0 0.0 0.0 0.0 0.0 0.0 0.0 0.0 0.0 0.0 0.0 0.0 0.0 0.0 0.0 0.0 0.0 1.2 0.0 0.0 0.0 0.0 2.3 11.7 3.1 3.4 0.0 0.2 1.1 0.0 0.1 0.2 1.2 0.7 2.0 1.1 0.9 1.5 4.6 0.2 0.0 0.0 0.0 0.1 0.0 0.0 0.1 0.0 0.0 0.0 0.0 0.0 0.0 0.0
0.0 0.0 0.0 0.0 0.0 0.0 0.0 0.0 0.0 0.0 0.0 0.0 0.0 0.0 0.0 0.0 16.5 0.0 0.0 0.0 0.0 0.0 7.6 6.6 6.8 8.7 0.0 0.0 0.0 2.2 0.0 6.9 0.0 3.8 0.7 1.8 2.1 4.1 1.3 0.1 0.0 0.0 0.0 0.0 0.0 0.0 0.0 0.0 0.0 0.0 0.0 0.0 0.0 0.0
0.0 0.0 0.0 0.0 0.0 0.0 0.0 0.0 0.0 0.0 0.0 0.0 0.0 30.6 50.1 7.8 0.0 0.0 0.0 13.4 11.3 6.6 2.9 5.6 0.5 8.3 0.0 8.9 6.2 7.9 3.5 5.9 6.4 1.3 0.3 2.6 3.1 0.8 0.3 0.2 0.1 0.0 0.0 0.0 0.0 0.0 0.0 0.1 0.0 0.0 0.0 0.0 0.0 0.0
0.0 0.0 0.0 0.0 0.0 0.0 0.0 0.0 0.0 0.0 0.0 0.0 25.4 13.9 0.0 0.0 0.0 5.2 18.5 19.7 9.6 9.7 3.4 1.0 0.2 4.2 0.0 11.9 8.6 0.0 15.7 6.2 4.6 1.6 2.3 3.9 3.1 1.0 0.2 0.2 0.0 0.0 0.0 0.0 0.0 0.0 0.0 0.0 0.0 0.0 0.0 0.0 0.0 0.0
0.0 0.0 0.0 0.0 0.0 0.0 0.0 0.0 0.0 0.0 0.0 0.0 0.0 0.0 0.0 3.2 9.7 12.5 12.0 10.6 3.2 0.9 0.2 0.0 0.0 0.0 1.2 0.8 10.9 7.7 4.5 10.4 5.0 0.0 5.7 4.2 2.4 0.4 0.0 0.0 0.0 0.0 0.0 0.0 0.0 0.0 0.0 0.0 0.0 0.0 0.0 0.0 0.3 0.2
0.0 0.0 0.0 0.0 0.0 0.0 0.0 0.0 0.0 0.0 0.0 0.0 3.5 9.2 15.3 19.6 19.4 11.6 7.3 4.1 1.3 0.2 0.3 0.1 1.7 1.0 1.8 5.2 11.5 9.6 9.4 6.8 0.7 5.2 2.4 1.1 0.5 0.0 0.0 0.0 0.0 0.0 0.0 0.0 0.0 0.0 0.0 0.0 0.0 0.0 0.4 1.2 1.6 2.9
0.0 0.0 0.0 0.0 0.0 0.0 0.0 0.0 0.0 0.0 0.0 9.2 23.1 23.9 19.0 14.6 9.6 5.7 2.0 0.4 0.5 0.5 0.3 0.2 2.7 5.2 4.1 6.3 7.8 13.1 11.7 6.3 8.6 4.5 2.9 2.5 1.1 0.8 0.4 0.1 0.0 0.0 0.0 0.0 0.0 0.1 0.0 0.0 0.8 1.6 2.3 3.7 3.3 4.7
0.0 0.0 0.0 0.0 0.0 0.0 0.0 0.0 0.0 0.0 5.0 13.6 9.7 10.9 9.8 7.8 5.8 4.5 2.0 0.5 0.7 0.3 0.2 1.0 2.5 6.3 10.3 12.0 9.4 8.6 11.5 9.1 6.3 5.7 5.3 3.8 1.5 1.4 1.2 1.6 1.5 0.6 0.7 2.7 5.1 5.7 4.8 4.3 4.2 5.7 6.2 6.0 4.5 4.9
0.0 0.0 0.0 0.0 0.0 0.0 0.0 0.0 0.0 3.6 5.0 7.9 6.3 7.0 5.6 4.4 5.7 4.5 3.5 3.9 1.9 1.9 0.8 2.7 11.5 11.7 13.3 9.7 10.4 6.6 6.6 6.1 6.4 4.2 3.8 2.8 3.0 3.3 3.3 3.4 4.3 5.1 5.9 6.9 7.8 8.3 8.8 7.7 6.8 7.8 8.4 7.3 7.3 6.1
0.0 2.0 0.0 0.0 0.0 0.0 0.0 8.5 6.6 11.6 10.9 6.0 7.2 6.1 5.1 4.8 7.5 6.1 5.4 5.3 2.1 4.6 8.3 8.4 9.9 9.7 8.6 7.2 7.0 5.0 5.8 4.8 3.5 3.9 4.7 4.3 4.2 4.7 5.1 5.3 6.2 6.0 6.0 6.8 7.7 6.9 7.5 7.4 6.3 4.4 5.6 7.4 6.1 5.9
0.0 0.0 0.0 0.0 0.0 0.0 6.5 5.9 5.3 6.6 5.8 6.6 7.2 8.4 4.1 5.3 6.0 5.1 4.5 4.7 5.4 5.8 3.4 5.5 4.7 5.7 6.5 6.4 7.1 6.8 6.0 7.0 6.3 5.5 6.0 6.4 5.9 6.5 6.3 6.2 7.0 6.2 5.8 6.5 6.2 5.4 5.0 5.0 4.5 5.3 4.6 4.6 4.1 4.7
1.4 0.0 0.0 0.0 2.6 5.0 11.1 6.3 1.2 2.1 5.3 6.9 9.2 8.1 6.0 7.0 8.0 7.7 5.1 4.4 5.1 5.0 3.9 4.9 5.9 5.7 7.2 7.8 7.5 7.6 6.9 6.0 7.1 9.1 10.2 11.0 9.8 8.4 7.9 6.4 5.8 6.3 5.5 6.0 5.9 6.0 5.4 4.7 4.7 4.3 3.8 3.8 4.3 5.3
0.0 0.0 0.0 0.0 0.0 5.5 3.9 3.5 0.0 1.1 5.0 6.3 7.2 7.1 5.8 8.7 7.4 6.4 4.7 3.9 3.4 5.5 8.4 8.8 10.6 11.6 11.2 11.5 9.5 8.4 8.6 8.4 6.3 7.7 12.2 11.9 11.1 8.8 9.2 6.8 6.4 5.6 4.7 4.5 5.1 4.7 3.5 3.6 3.9 3.9 3.8 4.0 3.7 4.2
0.0 2.7 0.0 0.0 1.7 2.8 4.2 4.9 3.2 2.8 3.7 4.2 6.4 4.0 6.8 3.5 4.5 4.3 3.3 1.6 3.0 7.3 9.8 12.0 12.7 16.0 15.4 12.7 10.3 7.8 8.5 6.7 7.7 5.5 7.2 9.2 10.4 6.2 7.1 6.9 5.6 4.7 3.9 4.2 3.7 4.9 3.7 3.3 3.2 2.8 3.1 3.6 3.1 2.8
4.5 0.0 6.4 0.0 2.6 0.9 1.2 3.1 2.4 3.2 1.9 4.9 4.9 2.9 4.4 4.1 3.6 4.1 1.2 2.3 7.8 11.4 13.2 12.9 11.8 11.9 10.0 10.1 10.3 8.4 8.5 6.1 5.8 5.9 6.1 4.8 6.4 5.7 5.7 6.0 4.1 4.6 4.5 4.4 3.5 3.8 3.4 2.3 2.2 2.4 2.0 2.1 1.9 2.0
0.0 4.0 3.8 2.4 1.9 1.4 4.2 4.3 3.3 4.8 4.1 5.2 2.9 2.9 4.0 3.9 4.0 0.6 2.5 6.2 9.4 12.1 12.7 10.7 10.7 9.9 8.4 9.7 5.7 6.5 7.8 4.2 4.8 5.6 5.5 4.8 4.6 4.6 3.9 4.7 4.4 3.8 3.7 4.0 2.6 2.4 2.3 2.2 1.8 1.7 1.6 1.4 1.5 1.8
0.1 5.5 4.7 2.9 2.1 3.3 1.1 1.7 2.0 2.3 2.5 2.4 2.2 3.4 4.2 3.9 0.5 1.2 3.9 6.5 10.1 8.1 7.5 8.6 7.5 7.3 5.7 4.4 4.9 6.0 8.5 5.4 3.6 4.2 5.1 3.6 2.4 4.2 3.1 3.4 3.6 3.3 2.1 2.2 2.0 1.8 2.0 1.7 1.4 1.3 1.1 2.3 2.3 2.2
8.0 6.4 3.2 2.3 1.0 0.7 0.6 0.4 0.7 0.6 1.9 1.4 1.4 3.1 4.0 1.6 1.4 2.1 3.5 6.4 5.8 6.5 7.5 7.5 5.9 5.7 5.4 6.0 5.9 5.9 6.1 4.8 3.7 2.6 4.8 4.0 3.7 3.2 3.1 2.1 1.6 1.7 1.0 1.1 2.1 2.6 2.0 1.3 1.7 1.9 1.9 1.6 1.3 1.3
6.2 2.3 1.3 0.3 0.5 0.3 0.2 0.3 0.5 0.7 0.5 0.5 1.5 1.7 1.1 0.7 0.6 1.7 2.8 5.0 4.6 5.2 5.9 6.3 6.0 4.9 5.3 5.1 4.8 4.1 5.2 4.0 2.4 1.9 3.7 3.1 3.4 3.3 3.2 2.8 2.3 1.8 0.9 1.4 2.0 2.1 1.3 1.0 1.0 0.8 0.8 0.4 0.7 1.1
2.4 1.1 0.0 0.0 0.4 0.5 0.4 0.1 0.2 0.5 0.4 1.2 0.8 1.2 1.4 1.1 1.3 3.3 3.4 3.6 3.5 4.5 4.2 4.0 3.4 3.5 4.0 4.5 4.3 4.4 3.4 2.2 2.0 2.6 1.5 1.2 0.9 1.2 1.7 3.0 3.5 3.1 1.5 1.6 1.6 2.2 2.2 1.6 1.3 0.8 1.1 0.9 0.9 1.8
0.6 0.1 0.3 0.5 0.8 0.9 0.9 0.8 0.6 1.1 1.3 1.2 0.7 1.2 1.4 1.2 3.1 4.3 4.4 4.8 3.9 3.2 2.9 2.9 2.5 2.1 2.3 2.6 2.9 2.9 2.9 2.5 1.6 0.9 0.4 0.6 0.9 1.0 1.2 1.6 1.7 1.1 1.3 1.6 1.6 1.6 1.6 1.7 2.0 1.8 1.9 1.9 1.8 1.3
0.5 0.3 0.1 0.3 1.2 1.5 1.8 1.8 2.2 2.3 2.1 2.1 1.6 1.6 2.3 3.8 6.8 5.6 5.5 4.2 3.1 2.1 2.3 2.4 3.4 2.2 1.7 1.4 1.4 1.5 1.2 1.5 2.3 2.0 1.2 2.2 2.6 2.2 1.5 1.2 0.9 0.9 1.1 1.3 1.3 1.7 1.6 2.2 1.9 2.1 2.4 2.5 2.5 2.5
0.5 1.5 1.6 0.9 1.1 2.2 4.1 3.1 3.1 2.7 1.7 1.5 1.1 0.7 1.4 4.4 7.2 4.6 3.2 2.8 2.2 2.4 2.7 2.3 2.3 1.6 1.8 1.3 1.2 1.0 1.5 1.4 1.9 2.8 2.5 1.8 2.2 1.6 1.4 1.6 1.3 1.2 1.6 2.1 1.9 1.4 1.6 1.3 1.6 3.2 2.7 2.4 3.1 3.1
1.3 1.5 1.0 1.2 2.1 2.6 2.0 1.3 1.2 0.8 0.8 0.7 0.4 0.7 1.2 2.7 3.2 2.3 3.0 3.6 1.9 1.7 1.2 1.3 1.2 1.7 1.2 0.9 1.6 1.5 1.6 1.7 1.2 1.2 1.5 1.8 2.1 2.0 2.2 1.8 1.9 1.6 1.6 1.5 1.6 1.7 1.9 2.0 2.4 2.6 2.1 1.7 1.6 1.8
0.6 0.5 0.7 0.7 1.7 1.4 1.5 2.9 1.8 1.2 1.1 0.7 0.8 0.1 0.9 1.1 1.4 2.0 2.3 2.2 1.1 1.0 1.1 1.2 1.2 1.5 1.5 1.5 1.8 1.7 1.7 1.6 1.3 1.5 1.6 1.8 2.0 1.9 1.6 1.5 1.4 1.4 1.1 1.0 1.2 1.3 1.2 1.3 1.3 1.0 0.9 0.7 1.0 0.7
1.1 1.2 0.7 1.1 1.0 0.8 1.0 1.3 0.7 0.5 0.7 0.7 1.0 0.6 0.8 0.9 2.2 3.3 1.5 1.4 2.0 1.8 1.9 2.0 1.9 2.3 2.4 2.2 2.1 1.9 1.5 1.5 1.4 1.2 1.3 1.2 1.0 0.8 0.7 1.0 1.1 0.9 0.9 0.8 1.0 1.0 0.8 0.7 0.8 0.9 0.9 1.0 0.8 0.6

GFSWCAN_prec_snow_141.txt.gz
Snowfall_Accumulation
0.0 0.0 0.0 0.0 0.0 0.0 0.0 0.0 0.0 0.0 0.0 0.0 0.0 0.0 0.0 0.0 0.0 0.0 0.0 0.0 0.0 7.5 0.7 0.0 0.0 0.2 1.0 1.7 2.0 3.0 2.5 3.2 2.9 4.0 2.3 1.3 2.1 2.0 2.6 1.4 8.8 11.1 13.6 8.2 8.7 7.9 6.5 1.3 0.4 4.3 3.1 1.6 2.3 2.8
0.0 0.0 0.0 0.0 0.0 0.0 0.0 0.0 0.0 0.0 0.0 0.0 0.0 0.0 0.0 0.0 0.0 0.0 0.0 0.0 0.0 0.8 2.2 0.0 0.0 0.0 0.0 0.0 0.0 0.0 2.9 3.9 6.6 7.8 6.8 3.4 2.4 2.0 1.7 3.5 6.0 12.5 10.6 10.5 7.8 6.7 3.9 2.4 2.7 3.3 3.2 3.1 3.4 3.8
0.0 0.0 0.0 0.0 0.0 0.0 0.0 0.0 0.0 0.0 0.0 0.0 0.0 0.0 0.0 0.0 0.0 0.0 0.0 0.0 0.0 6.2 6.9 0.0 0.0 0.0 0.0 0.0 0.0 0.6 0.0 0.0 0.0 0.0 6.7 3.8 2.6 1.8 2.6 2.3 5.6 8.1 7.5 13.1 6.4 4.7 2.0 3.6 2.0 2.2 3.1 3.2 1.6 0.0
0.0 0.0 0.0 0.0 0.0 0.0 0.0 0.0 0.0 0.0 0.0 0.0 0.0 0.0 0.0 0.0 0.0 0.0 0.0 0.0 0.0 4.1 11.3 1.4 0.0 0.0 0.0 0.0 0.0 0.0 0.0 0.0 0.0 0.0 5.2 3.5 2.3 0.2 0.7 0.9 1.5 8.4 7.4 8.0 11.8 11.7 1.7 3.1 3.4 3.6 2.8 1.4 1.5 0.0
0.0 0.0 0.0 0.0 0.0 0.0 0.0 0.0 0.0 0.0 0.0 0.0 0.0 0.0 0.0 0.0 0.0 0.0 0.0 0.0 0.0 0.0 4.1 1.5 0.0 0.0 0.0 0.0 0.0 0.0 0.0 0.0 0.1 3.7 5.4 3.0 0.1 1.1 0.1 0.2 3.7 0.5 2.9 5.1 10.4 7.1 8.9 6.4 8.5 4.7 2.5 0.6 0.0 0.0
0.0 0.0 0.0 0.0 0.0 0.0 0.0 0.0 0.0 0.0 0.0 0.0 0.0 0.0 0.0 0.0 0.0 0.0 11.2 0.0 0.0 0.0 7.7 4.3 0.0 0.0 0.0 0.0 0.0 0.0 0.0 0.0 0.1 3.5 3.0 0.1 0.0 0.8 2.8 1.4 0.0 0.0 1.2 3.0 2.7 2.9 4.1 4.7 0.0 0.0 0.8 1.6 1.2 0.0
0.0 0.0 0.0 0.0 0.0 0.0 0.0 0.0 0.0 0.0 0.0 0.0 0.0 0.0 0.0 0.0 0.0 2.5 9.5 0.0 0.0 0.0 12.0 9.6 0.6 0.0 0.0 0.0 0.0 0.0 0.0 0.0 0.1 3.5 3.8 0.3 0.0 1.8 2.5 1.1 0.5 0.0 0.1 0.1 0.0 0.0 0.0 0.0 1.1 0.0 0.0 0.0 0.6 0.0
0.0 0.0 0.0 0.0 0.0 0.0 0.0 0.0 0.0 0.0 0.0 0.0 0.0 0.0 0.0 0.0 0.0 1.2 0.0 0.0 0.0 0.0 2.3 11.7 3.1 3.4 0.0 0.2 1.1 0.0 0.1 0.2 1.2 0.7 2.0 1.1 0.9 1.5 4.6 0.2 0.0 0.0 0.0 0.1 0.0 0.0 0.1 0.0 0.0 0.0 0.0 0.0 0.0 0.0
0.0 0.0 0.0 0.0 0.0 0.0 0.0 0.0 0.0 0.0 0.0 0.0 0.0 0.0 0.0 0.0 16.5 0.0 0.0 0.0 0.0 0.0 7.6 6.6 6.8 8.7 0.0 0.0 0.0 2.2 0.0 6.9 0.0 3.8 0.7 1.8 2.1 4.1 1.3 0.1 0.0 0.0 0.0 0.0 0.0 0.0 0.0 0.0 0.0 0.0 0.0 0.0 0.0 0.0
0.0 0.0 0.0 0.0 0.0 0.0 0.0 0.0 0.0 0.0 0.0 0.0 0.0 30.6 50.1 7.8 0.0 0.0 0.0 13.4 11.3 6.6 2.9 5.6 0.5 8.3 0.0 8.9 6.2 7.9 3.5 5.9 6.4 1.3 0.3 2.6 3.1 0.8 0.3 0.2 0.1 0.0 0.0 0.0 0.0 0.0 0.0 0.1 0.0 0.0 0.0 0.0 0.0 0.0
0.0 0.0 0.0 0.0 0.0 0.0 0.0 0.0 0.0 0.0 0.0 0.0 25.4 13.9 0.0 0.0 0.0 5.2 18.5 19.7 9.6 9.7 3.4 1.0 0.2 4.2 0.0 11.9 8.6 0.0 15.7 6.2 4.6 1.6 2.3 3.9 3.1 1.0 0.2 0.2 0.0 0.0 0.0 0.0 0.0 0.0 0.0 0.0 0.0 0.0 0.0 0.0 0.0 0.0
0.0 0.0 0.0 0.0 0.0 0.0 0.0 0.0 0.0 0.0 0.0 0.0 0.0 0.0 0.0 3.2 9.7 12.5 12.0 10.6 3.2 0.9 0.2 0.0 0.0 0.0 1.2 0.8 10.9 7.7 4.5 10.4 5.0 0.0 5.8 4.2 2.4 0.4 0.0 0.0 0.0 0.0 0.0 0.0 0.0 0.0 0.0 0.0 0.0 0.0 0.0 0.0 0.3 0.2
0.0 0.0 0.0 0.0 0.0 0.0 0.0 0.0 0.0 0.0 0.0 0.0 3.5 9.2 15.3 19.6 19.4 11.6 7.3 4.1 1.3 0.2 0.3 0.1 1.7 1.0 1.8 5.2 11.5 9.6 9.4 6.8 0.7 5.2 2.4 1.1 0.5 0.0 0.0 0.0 0.0 0.0 0.0 0.0 0.0 0.0 0.0 0.0 0.0 0.0 0.4 1.2 1.6 2.9
0.0 0.0 0.0 0.0 0.0 0.0 0.0 0.0 0.0 0.0 0.0 9.2 23.1 23.9 19.0 14.6 9.6 5.7 2.0 0.4 0.5 0.5 0.3 0.2 2.7 5.2 4.1 6.3 7.8 13.1 11.7 6.3 8.6 4.5 2.9 2.5 1.1 0.8 0.4 0.1 0.0 0.0 0.0 0.0 0.0 0.1 0.0 0.0 0.8 1.6 2.3 3.7 3.3 4.7
0.0 0.0 0.0 0.0 0.0 0.0 0.0 0.0 0.0 0.0 5.0 13.6 9.7 10.9 9.8 7.8 5.8 4.5 2.0 0.5 0.7 0.3 0.2 1.0 2.5 6.3 10.3 12.0 9.4 8.6 11.5 9.1 6.3 5.7 5.3 3.8 1.5 1.4 1.2 1.6 1.5 0.6 0.7 2.7 5.1 5.7 4.8 4.3 4.2 5.7 6.2 6.0 4.5 4.9
0.0 0.0 0.0 0.0 0.0 0.0 0.0 0.0 0.0 3.6 5.0 7.9 6.3 7.0 5.6 4.4 5.7 4.5 3.5 3.9 1.9 1.9 0.8 2.7 11.5 11.7 13.3 9.7 10.4 6.6 6.6 6.1 6.4 4.2 3.8 2.8 3.0 3.3 3.3 3.4 4.3 5.1 5.9 6.9 7.8 8.3 8.8 7.7 6.8 7.8 8.4 7.3 7.3 6.1
0.0 2.0 0.0 0.0 0.0 0.0 0.0 8.5 6.6 11.6 10.9 6.0 7.3 6.2 5.1 4.8 7.5 6.1 5.4 5.3 2.1 4.6 8.3 8.4 9.9 9.7 8.6 7.2 7.0 5.0 5.8 4.8 3.5 3.9 4.7 4.3 4.2 4.7 5.1 5.3 6.2 6.0 6.0 6.8 7.7 6.9 7.5 7.4 6.3 4.4 5.6 7.4 6.1 5.9
0.0 0.0 0.0 0.0 0.0 0.0 6.5 5.9 5.3 6.6 5.8 6.7 7.3 8.4 4.1 5.3 6.0 5.1 4.5 4.7 5.4 5.8 3.4 5.5 4.7 5.7 6.5 6.4 7.1 6.8 6.0 7.0 6.3 5.5 6.0 6.4 5.9 6.5 6.3 6.2 7.0 6.2 5.8 6.5 6.2 5.4 5.0 5.0 4.5 5.3 4.6 4.6 4.1 4.7
1.4 0.0 0.0 0.0 2.6 5.0 11.1 6.3 1.2 2.1 5.3 7.0 9.2 8.1 6.0 7.0 8.0 7.7 5.1 4.4 5.1 5.0 3.9 4.9 5.9 5.7 7.2 7.8 7.5 7.6 6.9 6.0 7.1 9.1 10.3 11.0 9.8 8.4 7.9 6.4 5.8 6.3 5.5 6.0 5.9 6.0 5.4 4.7 4.7 4.3 3.8 3.8 4.3 5.3
0.0 0.0 0.0 0.0 0.0 5.5 3.9 3.5 0.0 1.1 5.0 6.3 7.2 7.1 5.8 8.7 7.4 6.4 4.7 3.9 3.4 5.5 8.4 8.8 10.6 11.6 11.2 11.5 9.5 8.4 8.6 8.4 6.3 7.7 12.2 12.0 11.1 8.8 9.2 6.8 6.4 5.6 4.7 4.5 5.1 4.7 3.5 3.6 3.9 3.9 3.8 4.0 3.7 4.2
0.0 2.7 0.0 0.0 1.7 2.8 4.2 4.9 3.2 2.8 3.7 4.2 6.4 4.0 6.8 3.5 4.5 4.3 3.3 1.6 3.0 7.3 9.8 12.0 12.7 16.0 15.4 12.7 10.3 7.8 8.5 6.7 7.7 5.5 7.2 9.2 10.4 6.2 7.1 6.9 5.6 4.7 3.9 4.2 3.7 4.9 3.7 3.3 3.2 2.8 3.1 3.6 3.1 2.8
6.8 0.0 6.4 0.0 2.6 0.9 1.2 3.1 2.4 3.2 1.9 4.9 4.9 2.9 4.4 4.1 3.6 4.1 1.2 2.3 7.8 11.4 13.2 12.9 11.8 11.9 10.0 10.1 10.3 8.4 8.5 6.1 5.8 5.9 6.1 4.8 6.4 5.7 5.7 6.0 4.1 4.6 4.5 4.4 3.5 3.8 3.4 2.3 2.2 2.4 2.0 2.1 1.9 2.0
0.0 5.0 3.8 2.4 1.9 1.4 4.2 4.3 3.3 4.8 4.1 5.2 2.9 2.9 4.0 3.9 4.0 0.6 2.5 6.2 9.4 12.1 12.7 10.7 10.7 9.9 8.4 9.8 5.8 6.5 7.8 4.2 4.8 5.6 5.5 4.9 4.7 4.6 3.9 4.7 4.4 3.8 3.7 4.0 2.6 2.4 2.3 2.2 1.8 1.7 1.6 1.4 1.5 1.8
0.8 6.1 4.8 2.9 2.1 3.3 1.1 1.7 2.0 2.3 2.5 2.4 2.2 3.4 4.2 3.9 0.5 1.2 3.9 6.5 10.1 8.1 7.5 8.6 7.5 7.4 5.8 4.4 4.9 6.0 8.5 5.4 3.6 4.2 5.1 3.6 2.4 4.2 3.1 3.4 3.6 3.3 2.1 2.2 2.0 1.8 2.0 1.7 1.4 1.3 1.1 2.3 2.3 2.2
8.3 7.0 3.2 2.3 1.0 0.7 0.6 0.4 0.7 0.6 1.9 1.4 1.4 3.1 4.0 1.6 1.4 2.1 3.5 6.4 5.8 6.5 7.5 7.6 6.0 5.7 5.4 6.0 5.9 5.9 6.1 4.8 3.7 2.6 4.8 4.0 3.7 3.2 3.1 2.1 1.6 1.7 1.0 1.1 2.1 2.6 2.0 1.3 1.7 1.9 1.9 1.6 1.3 1.3
6.5 2.6 1.3 0.3 0.5 0.3 0.2 0.3 0.5 0.7 0.5 0.5 1.5 1.7 1.1 0.7 0.6 1.7 2.8 5.0 4.6 5.2 5.9 6.3 6.0 4.9 5.3 5.1 4.8 4.1 5.2 4.0 2.4 1.9 3.7 3.1 3.4 3.3 3.2 2.8 2.3 1.8 0.9 1.4 2.0 2.1 1.3 1.0 1.0 0.8 0.8 0.4 0.7 1.1
2.4 1.1 0.0 0.0 0.4 0.5 0.4 0.1 0.2 0.5 0.4 1.2 0.8 1.2 1.4 1.1 1.3 3.3 3.4 3.6 3.5 4.5 4.2 4.0 3.4 3.5 4.0 4.5 4.3 4.4 3.4 2.2 2.0 2.6 1.5 1.2 0.9 1.2 1.7 3.0 3.5 3.1 1.5 1.6 1.6 2.2 2.2 1.6 1.3 0.8 1.1 0.9 0.9 1.8
0.6 0.1 0.3 0.5 0.8 0.9 0.9 0.8 0.6 1.1 1.3 1.2 0.7 1.2 1.4 1.2 3.1 4.3 4.4 4.8 3.9 3.2 2.9 2.9 2.5 2.1 2.3 2.6 2.9 2.9 2.9 2.5 1.6 0.9 0.4 0.6 0.9 1.0 1.2 1.6 1.7 1.1 1.3 1.6 1.6 1.6 1.6 1.7 2.0 1.8 1.9 1.9 1.8 1.3
0.5 0.3 0.1 0.3 1.2 1.5 1.8 1.8 2.2 2.3 2.1 2.1 1.6 1.6 2.3 3.8 6.8 5.6 5.5 4.2 3.1 2.1 2.3 2.4 3.4 2.2 1.7 1.4 1.4 1.5 1.2 1.5 2.3 2.0 1.2 2.2 2.6 2.2 1.5 1.2 0.9 0.9 1.1 1.3 1.3 1.7 1.6 2.2 1.9 2.1 2.4 2.5 2.5 2.5
0.5 1.5 1.6 0.9 1.1 2.2 4.1 3.1 3.1 2.7 1.7 1.5 1.1 0.7 1.4 4.4 7.2 4.6 3.2 2.8 2.2 2.4 2.7 2.3 2.3 1.6 1.8 1.3 1.3 1.1 1.5 1.4 1.9 2.8 2.5 1.8 2.2 1.6 1.4 1.6 1.3 1.2 1.6 2.1 1.9 1.4 1.6 1.3 1.6 3.2 2.7 2.4 3.1 3.1
1.3 1.5 1.0 1.2 2.1 2.6 2.0 1.3 1.2 0.8 0.8 0.7 0.4 0.7 1.2 2.7 3.2 2.3 3.0 3.6 1.9 1.7 1.2 1.3 1.2 1.7 1.2 0.9 1.6 1.5 1.6 1.7 1.2 1.2 1.5 1.8 2.1 2.0 2.2 1.8 1.9 1.6 1.6 1.5 1.6 1.7 1.9 2.0 2.4 2.6 2.1 1.7 1.6 1.8
0.6 0.5 0.7 0.7 1.7 1.4 1.5 2.9 1.8 1.2 1.1 0.7 0.8 0.1 0.9 1.1 1.4 2.0 2.3 2.2 1.1 1.1 1.1 1.2 1.2 1.5 1.5 1.5 1.8 1.7 1.7 1.6 1.3 1.5 1.6 1.8 2.0 1.9 1.6 1.5 1.4 1.4 1.1 1.0 1.2 1.3 1.2 1.3 1.3 1.0 0.9 0.7 1.0 0.7
1.1 1.2 0.7 1.1 1.0 0.8 1.0 1.3 0.7 0.5 0.7 0.7 1.0 0.6 0.8 0.9 2.2 3.3 1.5 1.4 2.0 1.8 1.9 2.0 1.9 2.3 2.4 2.2 2.1 1.9 1.5 1.5 1.4 1.2 1.3 1.2 1.0 0.8 0.7 1.0 1.1 0.9 0.9 0.8 1.0 1.0 0.8 0.7 0.8 0.9 0.9 1.0 0.8 0.6

GFSWCAN_prec_snow_144.txt.gz
Snowfall_Accumulation
0.0 0.0 0.0 0.0 0.0 0.0 0.0 0.0 0.0 0.0 0.0 0.0 0.0 0.0 0.0 0.0 0.0 0.0 0.0 0.0 0.0 7.5 0.7 0.0 0.0 0.2 1.0 1.7 2.0 3.0 2.5 3.2 2.9 4.0 2.3 1.3 2.1 2.0 2.6 1.4 8.8 11.1 13.6 8.2 8.7 8.0 6.5 1.3 0.4 4.3 3.1 1.6 2.3 2.8
0.0 0.0 0.0 0.0 0.0 0.0 0.0 0.0 0.0 0.0 0.0 0.0 0.0 0.0 0.0 0.0 0.0 0.0 0.0 0.0 0.0 0.8 2.2 0.0 0.0 0.0 0.0 0.0 0.0 0.0 2.9 3.9 6.6 7.8 6.8 3.4 2.4 2.0 1.7 3.5 6.0 12.5 10.6 10.5 7.8 6.7 3.9 2.4 2.7 3.3 3.2 3.1 3.4 3.8
0.0 0.0 0.0 0.0 0.0 0.0 0.0 0.0 0.0 0.0 0.0 0.0 0.0 0.0 0.0 0.0 0.0 0.0 0.0 0.0 0.0 6.2 6.9 0.0 0.0 0.0 0.0 0.0 0.0 0.6 0.0 0.0 0.0 0.0 6.7 3.8 2.6 1.8 2.6 2.3 5.6 8.1 7.5 13.1 6.4 4.7 2.0 3.6 2.0 2.2 3.1 3.2 1.6 0.0
0.0 0.0 0.0 0.0 0.0 0.0 0.0 0.0 0.0 0.0 0.0 0.0 0.0 0.0 0.0 0.0 0.0 0.0 0.0 0.0 0.0 4.1 11.3 1.4 0.0 0.0 0.0 0.0 0.0 0.0 0.0 0.0 0.0 0.0 5.2 3.5 2.3 0.2 0.7 0.9 1.5 8.4 7.4 8.0 11.8 11.7 1.7 3.1 3.4 3.6 2.8 1.4 1.5 0.0
0.0 0.0 0.0 0.0 0.0 0.0 0.0 0.0 0.0 0.0 0.0 0.0 0.0 0.0 0.0 0.0 0.0 0.0 0.0 0.0 0.0 0.0 4.1 1.5 0.0 0.0 0.0 0.0 0.0 0.0 0.0 0.0 0.1 3.7 5.4 3.0 0.1 1.1 0.1 0.2 3.7 0.5 2.9 5.1 10.4 7.1 8.9 6.4 8.5 4.7 2.5 0.6 0.0 0.0
0.0 0.0 0.0 0.0 0.0 0.0 0.0 0.0 0.0 0.0 0.0 0.0 0.0 0.0 0.0 0.0 0.0 0.0 11.2 0.0 0.0 0.0 7.7 4.3 0.0 0.0 0.0 0.0 0.0 0.0 0.0 0.0 0.1 3.5 3.0 0.1 0.0 0.8 2.8 1.4 0.0 0.0 1.2 3.0 2.7 2.9 4.1 4.7 0.0 0.0 0.8 1.6 1.2 0.0
0.0 0.0 0.0 0.0 0.0 0.0 0.0 0.0 0.0 0.0 0.0 0.0 0.0 0.0 0.0 0.0 0.0 2.5 9.5 0.0 0.0 0.0 12.0 9.6 0.6 0.0 0.0 0.0 0.0 0.0 0.0 0.0 0.1 3.5 3.8 0.3 0.0 1.8 2.5 1.1 0.5 0.0 0.1 0.1 0.0 0.0 0.0 0.0 1.1 0.0 0.0 0.0 0.6 0.0
0.0 0.0 0.0 0.0 0.0 0.0 0.0 0.0 0.0 0.0 0.0 0.0 0.0 0.0 0.0 0.0 0.0 1.2 0.0 0.0 0.0 0.0 2.3 11.7 3.1 3.4 0.0 0.2 1.1 0.0 0.1 0.2 1.2 0.7 2.0 1.1 0.9 1.5 4.6 0.2 0.0 0.0 0.0 0.1 0.0 0.0 0.1 0.0 0.0 0.0 0.0 0.0 0.0 0.0
0.0 0.0 0.0 0.0 0.0 0.0 0.0 0.0 0.0 0.0 0.0 0.0 0.0 0.0 0.0 0.0 16.5 0.0 0.0 0.0 0.0 0.0 7.6 6.6 6.8 8.7 0.0 0.0 0.0 2.2 0.0 6.9 0.0 3.8 0.7 1.8 2.1 4.1 1.3 0.1 0.0 0.0 0.0 0.0 0.0 0.0 0.0 0.0 0.0 0.0 0.0 0.0 0.0 0.0
0.0 0.0 0.0 0.0 0.0 0.0 0.0 0.0 0.0 0.0 0.0 0.0 0.0 30.6 50.1 7.8 0.0 0.0 0.0 13.4 11.3 6.6 2.9 5.6 0.5 8.3 0.0 8.9 6.2 7.9 3.5 5.9 6.4 1.3 0.3 2.6 3.1 0.8 0.3 0.2 0.1 0.0 0.0 0.0 0.0 0.0 0.0 0.1 0.0 0.0 0.0 0.0 0.0 0.0
0.0 0.0 0.0 0.0 0.0 0.0 0.0 0.0 0.0 0.0 0.0 0.0 25.4 13.9 0.0 0.0 0.0 5.2 18.5 19.7 9.6 9.7 3.4 1.0 0.2 4.2 0.0 11.9 8.6 0.0 15.7 6.2 4.6 1.6 2.3 3.9 3.1 1.0 0.2 0.2 0.0 0.0 0.0 0.0 0.0 0.0 0.0 0.0 0.0 0.0 0.0 0.0 0.0 0.0
0.0 0.0 0.0 0.0 0.0 0.0 0.0 0.0 0.0 0.0 0.0 0.0 0.0 0.0 0.0 3.2 9.7 12.5 12.0 10.6 3.2 0.9 0.2 0.0 0.0 0.0 1.2 0.8 10.9 7.7 4.5 10.4 5.0 0.0 5.8 4.2 2.4 0.4 0.0 0.0 0.0 0.0 0.0 0.0 0.0 0.0 0.0 0.0 0.0 0.0 0.0 0.0 0.3 0.2
0.0 0.0 0.0 0.0 0.0 0.0 0.0 0.0 0.0 0.0 0.0 0.0 3.5 9.2 15.3 19.6 19.4 11.6 7.3 4.1 1.3 0.2 0.3 0.1 1.7 1.0 1.8 5.2 11.5 9.6 9.4 6.8 0.7 5.2 2.4 1.1 0.5 0.0 0.0 0.0 0.0 0.0 0.0 0.0 0.0 0.0 0.0 0.0 0.0 0.0 0.4 1.2 1.6 2.9
0.0 0.0 0.0 0.0 0.0 0.0 0.0 0.0 0.0 0.0 0.0 9.2 23.1 23.9 19.0 14.6 9.6 5.7 2.0 0.4 0.5 0.5 0.3 0.2 2.7 5.2 4.1 6.3 7.8 13.1 11.7 6.3 8.6 4.5 2.9 2.5 1.1 0.8 0.4 0.1 0.0 0.0 0.0 0.0 0.0 0.1 0.0 0.0 0.8 1.6 2.3 3.7 3.3 4.7
0.0 0.0 0.0 0.0 0.0 0.0 0.0 0.0 0.0 0.0 5.0 13.6 9.7 10.9 9.8 7.8 5.8 4.5 2.0 0.5 0.7 0.3 0.2 1.0 2.5 6.3 10.3 12.0 9.4 8.6 11.5 9.1 6.3 5.7 5.3 3.8 1.5 1.4 1.2 1.6 1.5 0.6 0.7 2.7 5.1 5.7 4.8 4.3 4.2 5.7 6.2 6.0 4.5 4.9
0.0 0.0 0.0 0.0 0.0 0.0 0.0 0.0 0.0 3.6 5.0 7.9 6.3 7.0 5.7 4.5 5.8 4.5 3.5 3.9 1.9 1.9 0.8 2.7 11.5 11.7 13.3 9.7 10.4 6.6 6.6 6.1 6.4 4.2 3.8 2.8 3.0 3.3 3.3 3.4 4.3 5.1 5.9 6.9 7.8 8.3 8.8 7.7 6.8 7.8 8.4 7.3 7.3 6.1
0.0 2.0 0.0 0.0 0.0 0.0 0.0 8.5 6.6 11.6 10.9 6.0 7.3 6.2 5.2 4.8 7.6 6.2 5.4 5.3 2.1 4.6 8.3 8.4 9.9 9.7 8.6 7.2 7.0 5.0 5.8 4.8 3.5 3.9 4.7 4.3 4.2 4.7 5.1 5.3 6.2 6.0 6.0 6.8 7.7 6.9 7.5 7.4 6.3 4.4 5.6 7.4 6.1 5.9
0.0 0.0 0.0 0.0 0.0 0.0 6.5 5.9 5.3 6.6 5.8 6.8 7.4 8.6 4.2 5.5 6.1 5.2 4.5 4.7 5.4 5.8 3.4 5.5 4.7 5.7 6.5 6.4 7.1 6.8 6.0 7.0 6.3 5.5 6.0 6.4 5.9 6.5 6.3 6.2 7.0 6.2 5.8 6.5 6.2 5.4 5.0 5.0 4.5 5.3 4.6 4.6 4.1 4.7
1.4 0.0 0.0 0.0 2.6 5.0 11.1 6.3 1.2 2.1 5.4 7.1 9.3 8.2 6.0 7.1 8.0 7.7 5.1 4.4 5.1 5.0 3.9 4.9 5.9 5.7 7.2 7.8 7.5 7.6 6.9 6.0 7.1 9.1 10.3 11.0 9.8 8.4 7.9 6.4 5.8 6.3 5.5 6.0 5.9 6.0 5.4 4.7 4.7 4.3 3.8 3.8 4.3 5.3
0.0 0.0 0.0 0.0 0.0 5.5 3.9 3.5 0.0 1.1 5.0 6.3 7.2 7.2 5.9 8.7 7.4 6.4 4.7 3.9 3.4 5.5 8.4 8.8 10.6 11.6 11.2 11.5 9.5 8.4 8.6 8.4 6.3 7.7 12.3 12.0 11.1 8.8 9.2 6.8 6.4 5.6 4.7 4.6 5.1 4.7 3.5 3.6 3.9 3.9 3.8 4.0 3.8 4.2
0.0 2.7 0.0 0.0 1.7 2.8 4.2 4.9 3.2 2.8 3.7 4.2 6.4 4.0 6.8 3.5 4.5 4.3 3.3 1.6 3.0 7.3 9.8 12.0 12.7 16.0 15.4 12.7 10.3 7.8 8.5 6.7 7.7 5.5 7.2 9.3 10.4 6.2 7.1 6.9 5.6 4.7 3.9 4.2 3.7 4.9 3.7 3.3 3.2 2.8 3.2 3.6 3.1 2.8
6.8 0.0 6.4 0.0 2.6 0.9 1.2 3.1 2.4 3.2 1.9 4.9 4.9 2.9 4.4 4.1 3.6 4.1 1.2 2.3 7.8 11.4 13.2 12.9 11.8 11.9 10.0 10.1 10.3 8.4 8.5 6.1 5.8 5.9 6.1 4.8 6.4 5.7 5.7 6.1 4.1 4.6 4.5 4.4 3.5 3.8 3.4 2.3 2.2 2.4 2.0 2.2 2.0 2.0
0.0 5.0 3.8 2.4 1.9 1.4 4.2 4.3 3.3 4.8 4.1 5.2 2.9 2.9 4.0 3.9 4.0 0.6 2.5 6.2 9.4 12.1 12.7 10.7 10.7 9.9 8.4 9.8 5.8 6.5 7.8 4.2 4.8 5.6 5.5 4.9 4.7 4.7 3.9 4.7 4.4 3.8 3.7 4.0 2.6 2.4 2.3 2.2 1.8 1.7 1.6 1.4 1.6 1.8
0.8 6.1 4.8 2.9 2.1 3.3 1.1 1.7 2.0 2.3 2.5 2.4 2.2 3.4 4.2 3.9 0.5 1.2 3.9 6.5 10.1 8.1 7.5 8.6 7.5 7.4 5.8 4.4 4.9 6.0 8.5 5.4 3.6 4.2 5.1 3.6 2.5 4.3 3.1 3.4 3.6 3.3 2.1 2.2 2.0 1.9 2.0 1.8 1.4 1.3 1.1 2.3 2.3 2.2
8.8 7.6 3.2 2.3 1.0 0.7 0.6 0.4 0.7 0.6 1.9 1.4 1.4 3.1 4.0 1.6 1.4 2.1 3.5 6.4 5.8 6.5 7.5 7.6 6.0 5.7 5.4 6.0 5.9 5.9 6.1 4.8 3.7 2.6 4.8 4.0 3.7 3.2 3.1 2.1 1.6 1.7 1.0 1.1 2.1 2.6 2.0 1.4 1.7 1.9 1.9 1.6 1.3 1.3
6.7 2.9 1.3 0.3 0.5 0.3 0.2 0.3 0.5 0.7 0.5 0.5 1.5 1.7 1.1 0.7 0.6 1.7 2.8 5.0 4.6 5.2 5.9 6.3 6.0 4.9 5.3 5.1 4.8 4.1 5.2 4.0 2.4 1.9 3.7 3.1 3.4 3.3 3.2 2.8 2.3 1.8 0.9 1.4 2.0 2.1 1.3 1.0 1.0 0.8 0.8 0.4 0.7 1.1
2.4 1.1 0.0 0.0 0.4 0.5 0.4 0.1 0.2 0.5 0.4 1.2 0.8 1.2 1.4 1.1 1.3 3.3 3.4 3.6 3.5 4.5 4.2 4.0 3.4 3.5 4.0 4.5 4.3 4.4 3.4 2.2 2.0 2.6 1.5 1.2 0.9 1.2 1.7 3.0 3.5 3.1 1.5 1.6 1.6 2.2 2.2 1.6 1.3 0.8 1.1 0.9 0.9 1.8
0.6 0.1 0.3 0.5 0.8 0.9 0.9 0.8 0.6 1.1 1.3 1.2 0.7 1.2 1.4 1.2 3.1 4.3 4.4 4.8 3.9 3.2 2.9 2.9 2.5 2.1 2.3 2.6 2.9 2.9 2.9 2.5 1.6 0.9 0.4 0.6 0.9 1.0 1.2 1.6 1.7 1.1 1.3 1.6 1.6 1.6 1.6 1.7 2.0 1.8 1.9 1.9 1.8 1.3
0.5 0.3 0.1 0.3 1.2 1.5 1.8 1.8 2.2 2.3 2.1 2.1 1.6 1.6 2.3 3.8 6.8 5.6 5.5 4.2 3.1 2.1 2.3 2.4 3.4 2.2 1.7 1.4 1.4 1.5 1.2 1.5 2.3 2.0 1.2 2.2 2.7 2.2 1.5 1.2 0.9 0.9 1.1 1.3 1.3 1.7 1.6 2.2 1.9 2.1 2.4 2.5 2.5 2.5
0.5 1.5 1.6 0.9 1.1 2.2 4.1 3.1 3.1 2.7 1.7 1.5 1.1 0.7 1.4 4.4 7.2 4.6 3.2 2.8 2.2 2.4 2.7 2.3 2.3 1.6 1.8 1.3 1.3 1.1 1.5 1.4 1.9 2.8 2.5 1.8 2.2 1.6 1.4 1.6 1.3 1.2 1.6 2.2 1.9 1.5 1.6 1.3 1.6 3.2 2.7 2.4 3.1 3.1
1.3 1.5 1.0 1.2 2.1 2.6 2.0 1.3 1.2 0.8 0.8 0.7 0.4 0.7 1.2 2.7 3.2 2.3 3.0 3.6 1.9 1.7 1.2 1.3 1.2 1.7 1.2 0.9 1.6 1.5 1.6 1.7 1.2 1.2 1.5 1.8 2.1 2.0 2.2 1.8 1.9 1.6 1.6 1.5 1.6 1.7 1.9 2.0 2.4 2.6 2.1 1.7 1.6 1.8
0.6 0.5 0.7 0.7 1.7 1.4 1.5 2.9 1.8 1.2 1.1 0.7 0.8 0.1 0.9 1.1 1.4 2.0 2.3 2.2 1.1 1.1 1.1 1.2 1.2 1.5 1.5 1.5 1.8 1.7 1.7 1.6 1.3 1.5 1.6 1.8 2.0 1.9 1.6 1.5 1.4 1.4 1.1 1.0 1.2 1.3 1.2 1.3 1.3 1.0 0.9 0.7 1.0 0.7
1.1 1.2 0.7 1.1 1.0 0.8 1.0 1.3 0.7 0.5 0.7 0.7 1.0 0.6 0.8 0.9 2.2 3.3 1.5 1.4 2.0 1.8 1.9 2.0 1.9 2.3 2.4 2.2 2.1 1.9 1.5 1.5 1.4 1.2 1.3 1.2 1.0 0.8 0.7 1.0 1.1 0.9 0.9 0.8 1.0 1.0 0.8 0.7 0.8 0.9 0.9 1.0 0.8 0.6

GFSWCAN_prec_snow_147.txt.gz
Snowfall_Accumulation
0.0 0.0 0.0 0.0 0.0 0.0 0.0 0.0 0.0 0.0 0.0 0.0 0.0 0.0 0.0 0.0 0.0 0.0 0.0 0.0 0.0 7.5 0.7 0.0 0.0 0.2 1.0 1.7 2.0 3.0 2.5 3.2 2.9 4.0 2.3 1.3 2.1 2.0 2.6 1.4 8.8 11.1 13.6 8.2 8.8 8.1 6.6 1.3 0.4 4.3 3.1 1.6 2.3 2.8
0.0 0.0 0.0 0.0 0.0 0.0 0.0 0.0 0.0 0.0 0.0 0.0 0.0 0.0 0.0 0.0 0.0 0.0 0.0 0.0 0.0 0.8 2.2 0.0 0.0 0.0 0.0 0.0 0.0 0.0 2.9 3.9 6.6 7.8 6.8 3.4 2.4 2.0 1.7 3.5 6.0 12.5 10.6 10.6 7.9 6.8 3.9 2.4 2.7 3.3 3.2 3.1 3.4 3.8
0.0 0.0 0.0 0.0 0.0 0.0 0.0 0.0 0.0 0.0 0.0 0.0 0.0 0.0 0.0 0.0 0.0 0.0 0.0 0.0 0.0 6.2 6.9 0.0 0.0 0.0 0.0 0.0 0.0 0.6 0.0 0.0 0.0 0.0 6.7 3.8 2.6 1.8 2.6 2.3 5.6 8.1 7.5 13.1 6.4 4.7 2.0 3.6 2.0 2.2 3.1 3.2 1.6 0.0
0.0 0.0 0.0 0.0 0.0 0.0 0.0 0.0 0.0 0.0 0.0 0.0 0.0 0.0 0.0 0.0 0.0 0.0 0.0 0.0 0.0 4.1 11.3 1.4 0.0 0.0 0.0 0.0 0.0 0.0 0.0 0.0 0.0 0.0 5.2 3.5 2.3 0.2 0.7 0.9 1.5 8.4 7.4 8.0 11.8 11.7 1.7 3.1 3.4 3.6 2.8 1.4 1.5 0.0
0.0 0.0 0.0 0.0 0.0 0.0 0.0 0.0 0.0 0.0 0.0 0.0 0.0 0.0 0.0 0.0 0.0 0.0 0.0 0.0 0.0 0.0 4.1 1.5 0.0 0.0 0.0 0.0 0.0 0.0 0.0 0.0 0.1 3.7 5.4 3.0 0.1 1.1 0.1 0.2 3.7 0.5 2.9 5.1 10.4 7.1 8.9 6.4 8.5 4.7 2.5 0.6 0.0 0.0
0.0 0.0 0.0 0.0 0.0 0.0 0.0 0.0 0.0 0.0 0.0 0.0 0.0 0.0 0.0 0.0 0.0 0.0 11.2 0.0 0.0 0.0 7.7 4.3 0.0 0.0 0.0 0.0 0.0 0.0 0.0 0.0 0.1 3.5 3.0 0.1 0.0 0.8 2.8 1.4 0.0 0.0 1.2 3.0 2.7 2.9 4.1 4.7 0.0 0.0 0.8 1.6 1.2 0.0
0.0 0.0 0.0 0.0 0.0 0.0 0.0 0.0 0.0 0.0 0.0 0.0 0.0 0.0 0.0 0.0 0.0 2.5 9.5 0.0 0.0 0.0 12.0 9.6 0.6 0.0 0.0 0.0 0.0 0.0 0.0 0.0 0.1 3.5 3.8 0.3 0.0 1.8 2.5 1.1 0.5 0.0 0.1 0.1 0.0 0.0 0.0 0.0 1.1 0.0 0.0 0.0 0.6 0.0
0.0 0.0 0.0 0.0 0.0 0.0 0.0 0.0 0.0 0.0 0.0 0.0 0.0 0.0 0.0 0.0 0.0 1.2 0.0 0.0 0.0 0.0 2.3 11.7 3.1 3.4 0.0 0.2 1.1 0.0 0.1 0.2 1.2 0.7 2.0 1.1 0.9 1.5 4.6 0.2 0.0 0.0 0.0 0.1 0.0 0.0 0.1 0.0 0.0 0.0 0.0 0.0 0.0 0.0
0.0 0.0 0.0 0.0 0.0 0.0 0.0 0.0 0.0 0.0 0.0 0.0 0.0 0.0 0.0 0.0 16.5 0.0 0.0 0.0 0.0 0.0 7.6 6.6 6.8 8.7 0.0 0.0 0.0 2.2 0.0 6.9 0.0 3.8 0.7 1.8 2.1 4.1 1.3 0.1 0.0 0.0 0.0 0.0 0.0 0.0 0.0 0.0 0.0 0.0 0.0 0.0 0.0 0.0
0.0 0.0 0.0 0.0 0.0 0.0 0.0 0.0 0.0 0.0 0.0 0.0 0.0 30.6 50.1 7.8 0.0 0.0 0.0 13.4 11.3 6.6 2.9 5.6 0.5 8.3 0.0 8.9 6.2 7.9 3.5 5.9 6.4 1.3 0.3 2.6 3.1 0.8 0.3 0.2 0.1 0.0 0.0 0.0 0.0 0.0 0.0 0.1 0.0 0.0 0.0 0.0 0.0 0.0
0.0 0.0 0.0 0.0 0.0 0.0 0.0 0.0 0.0 0.0 0.0 0.0 25.4 13.9 0.0 0.0 0.0 5.2 18.5 19.7 9.6 9.7 3.4 1.0 0.2 4.2 0.0 11.9 8.6 0.0 15.7 6.2 4.6 1.6 2.3 3.9 3.1 1.0 0.2 0.2 0.0 0.0 0.0 0.0 0.0 0.0 0.0 0.0 0.0 0.0 0.0 0.0 0.0 0.0
0.0 0.0 0.0 0.0 0.0 0.0 0.0 0.0 0.0 0.0 0.0 0.0 0.0 0.0 0.0 3.2 9.7 12.5 12.0 10.6 3.2 0.9 0.2 0.0 0.0 0.0 1.2 0.8 10.9 7.7 4.5 10.4 5.0 0.0 5.8 4.2 2.4 0.4 0.0 0.0 0.0 0.0 0.0 0.0 0.0 0.0 0.0 0.0 0.0 0.0 0.0 0.0 0.3 0.2
0.0 0.0 0.0 0.0 0.0 0.0 0.0 0.0 0.0 0.0 0.0 0.0 3.5 9.2 15.3 19.6 19.4 11.6 7.3 4.1 1.3 0.2 0.3 0.1 1.7 1.0 1.8 5.2 11.5 9.6 9.4 6.8 0.7 5.2 2.4 1.1 0.5 0.0 0.0 0.0 0.0 0.0 0.0 0.0 0.0 0.0 0.0 0.0 0.0 0.0 0.4 1.2 1.6 2.9
0.0 0.0 0.0 0.0 0.0 0.0 0.0 0.0 0.0 0.0 0.0 9.2 23.1 23.9 19.0 14.6 9.6 5.7 2.0 0.4 0.5 0.5 0.3 0.2 2.7 5.2 4.1 6.3 7.8 13.1 11.7 6.3 8.6 4.5 2.9 2.5 1.1 0.8 0.4 0.1 0.0 0.0 0.0 0.0 0.0 0.1 0.0 0.0 0.8 1.6 2.3 3.7 3.3 4.7
0.0 0.0 0.0 0.0 0.0 0.0 0.0 0.0 0.0 0.0 5.0 13.6 9.7 10.9 9.9 7.8 5.8 4.5 2.0 0.5 0.7 0.3 0.2 1.0 2.5 6.3 10.3 12.0 9.4 8.6 11.5 9.1 6.3 5.7 5.3 3.8 1.5 1.4 1.2 1.6 1.5 0.6 0.7 2.7 5.1 5.7 4.8 4.3 4.2 5.7 6.2 6.0 4.5 4.9
0.0 0.0 0.0 0.0 0.0 0.0 0.0 0.0 0.0 3.6 5.0 7.9 6.4 7.1 5.8 4.5 5.8 4.5 3.5 3.9 1.9 1.9 0.8 2.7 11.5 11.7 13.3 9.7 10.4 6.6 6.6 6.1 6.4 4.2 3.8 2.8 3.0 3.3 3.3 3.4 4.3 5.1 5.9 6.9 7.8 8.3 8.8 7.7 6.8 7.8 8.4 7.3 7.3 6.1
0.0 2.0 0.0 0.0 0.0 0.0 0.0 8.5 6.6 11.6 10.9 6.0 7.4 6.4 5.2 4.8 7.7 6.3 5.5 5.4 2.1 4.6 8.3 8.4 9.9 9.7 8.6 7.2 7.0 5.0 5.8 4.8 3.5 3.9 4.7 4.3 4.2 4.7 5.1 5.3 6.2 6.0 6.0 6.8 7.7 6.9 7.5 7.4 6.3 4.4 5.7 7.4 6.1 5.9
0.0 0.0 0.0 0.0 0.0 0.0 6.5 5.9 5.3 6.6 5.8 6.9 7.5 8.8 4.2 5.5 6.1 5.2 4.5 4.7 5.4 5.8 3.4 5.5 4.7 5.7 6.5 6.4 7.1 6.8 6.0 7.0 6.3 5.5 6.0 6.4 5.9 6.5 6.3 6.2 7.0 6.2 5.8 6.5 6.2 5.4 5.0 5.0 4.5 5.3 4.6 4.6 4.1 4.7
1.4 0.0 0.0 0.0 2.6 5.0 11.1 6.3 1.2 2.2 5.5 7.2 9.4 8.3 6.0 7.1 8.0 7.7 5.1 4.4 5.1 5.0 3.9 4.9 5.9 5.7 7.2 7.8 7.5 7.6 6.9 6.0 7.1 9.1 10.3 11.0 9.8 8.4 7.9 6.4 5.8 6.3 5.5 6.0 5.9 6.0 5.4 4.7 4.7 4.3 3.8 3.8 4.3 5.3
0.0 0.0 0.0 0.0 0.0 5.5 3.9 3.5 0.0 1.1 5.1 6.4 7.2 7.2 5.9 8.7 7.4 6.4 4.7 3.9 3.4 5.5 8.4 8.8 10.6 11.6 11.2 11.5 9.5 8.4 8.6 8.4 6.3 7.7 12.3 12.0 11.1 8.8 9.2 6.8 6.4 5.6 4.7 4.6 5.1 4.7 3.5 3.6 3.9 3.9 3.8 4.0 3.8 4.3
0.0 2.7 0.0 0.0 1.7 2.8 4.2 4.9 3.2 2.8 3.7 4.2 6.4 4.0 6.8 3.5 4.5 4.3 3.3 1.6 3.0 7.3 9.8 12.0 12.7 16.0 15.4 12.7 10.3 7.8 8.5 6.7 7.7 5.5 7.2 9.3 10.5 6.3 7.1 6.9 5.6 4.7 3.9 4.2 3.7 4.9 3.7 3.3 3.2 2.8 3.2 3.7 3.2 2.9
6.8 0.0 6.4 0.0 2.6 0.9 1.2 3.1 2.4 3.2 1.9 4.9 4.9 2.9 4.4 4.1 3.6 4.1 1.2 2.3 7.8 11.4 13.2 12.9 11.8 11.9 10.0 10.1 10.3 8.4 8.5 6.1 5.8 5.9 6.1 4.8 6.5 5.7 5.8 6.1 4.1 4.6 4.5 4.4 3.5 3.8 3.4 2.3 2.2 2.4 2.1 2.2 2.0 2.1
0.0 5.0 3.8 2.4 1.9 1.4 4.2 4.3 3.3 4.8 4.1 5.2 2.9 2.9 4.0 3.9 4.0 0.6 2.5 6.2 9.4 12.1 12.7 10.7 10.7 9.9 8.4 9.8 5.8 6.5 7.8 4.2 4.8 5.6 5.5 4.9 4.7 4.7 4.0 4.7 4.4 3.8 3.7 4.0 2.6 2.4 2.3 2.2 1.8 1.8 1.6 1.5 1.6 1.9
0.8 6.1 4.8 2.9 2.1 3.3 1.1 1.7 2.0 2.3 2.5 2.4 2.2 3.4 4.2 3.9 0.5 1.2 3.9 6.5 10.1 8.1 7.5 8.6 7.5 7.4 5.8 4.4 4.9 6.0 8.5 5.4 3.6 4.2 5.2 3.6 2.6 4.3 3.1 3.4 3.6 3.3 2.1 2.2 2.0 1.9 2.0 1.8 1.4 1.3 1.2 2.3 2.3 2.2
8.8 7.6 3.2 2.3 1.0 0.7 0.6 0.4 0.7 0.6 1.9 1.4 1.4 3.1 4.0 1.6 1.4 2.1 3.5 6.4 5.8 6.5 7.5 7.6 6.0 5.7 5.4 6.0 5.9 5.9 6.1 4.8 3.7 2.6 4.9 4.0 3.7 3.2 3.2 2.1 1.6 1.7 1.0 1.1 2.2 2.7 2.0 1.4 1.8 2.0 1.9 1.6 1.3 1.3
6.7 2.9 1.3 0.3 0.5 0.3 0.2 0.3 0.5 0.7 0.5 0.5 1.5 1.7 1.1 0.7 0.6 1.7 2.8 5.0 4.6 5.2 5.9 6.3 6.0 4.9 5.3 5.1 4.8 4.1 5.2 4.0 2.4 1.9 3.8 3.1 3.4 3.3 3.2 2.8 2.3 1.8 0.9 1.4 2.0 2.1 1.4 1.0 1.1 0.8 0.9 0.4 0.7 1.1
2.4 1.1 0.0 0.0 0.4 0.5 0.4 0.1 0.2 0.5 0.4 1.2 0.8 1.2 1.4 1.1 1.3 3.3 3.4 3.6 3.5 4.5 4.2 4.0 3.4 3.5 4.0 4.5 4.4 4.4 3.4 2.2 2.0 2.6 1.5 1.2 0.9 1.2 1.7 3.0 3.5 3.1 1.5 1.6 1.6 2.2 2.2 1.6 1.3 0.8 1.1 1.0 0.9 1.8
0.6 0.1 0.3 0.5 0.8 0.9 0.9 0.8 0.6 1.1 1.3 1.2 0.7 1.2 1.4 1.2 3.1 4.3 4.4 4.8 3.9 3.2 2.9 2.9 2.5 2.1 2.3 2.6 2.9 2.9 2.9 2.5 1.6 0.9 0.4 0.6 0.9 1.0 1.2 1.7 1.7 1.1 1.3 1.6 1.6 1.6 1.6 1.7 2.0 1.8 1.9 2.0 1.8 1.3
0.5 0.3 0.1 0.3 1.2 1.5 1.8 1.8 2.2 2.3 2.1 2.1 1.6 1.6 2.3 3.8 6.8 5.6 5.5 4.2 3.1 2.1 2.3 2.4 3.4 2.2 1.7 1.4 1.4 1.5 1.2 1.5 2.3 2.0 1.2 2.2 2.7 2.3 1.5 1.2 0.9 0.9 1.1 1.3 1.3 1.7 1.6 2.2 1.9 2.1 2.4 2.5 2.5 2.5
0.5 1.5 1.6 0.9 1.1 2.2 4.1 3.1 3.1 2.7 1.7 1.5 1.1 0.7 1.4 4.4 7.2 4.6 3.2 2.8 2.2 2.4 2.7 2.3 2.3 1.6 1.8 1.4 1.4 1.2 1.6 1.4 1.9 2.8 2.5 1.8 2.2 1.6 1.4 1.6 1.3 1.2 1.6 2.2 1.9 1.5 1.6 1.3 1.6 3.2 2.7 2.4 3.1 3.1
1.3 1.5 1.0 1.2 2.1 2.6 2.0 1.3 1.2 0.8 0.8 0.7 0.4 0.7 1.2 2.7 3.2 2.3 3.0 3.6 1.9 1.7 1.2 1.3 1.3 1.7 1.2 0.9 1.6 1.5 1.6 1.7 1.2 1.2 1.5 1.8 2.1 2.0 2.2 1.8 1.9 1.6 1.6 1.5 1.6 1.7 1.9 2.0 2.4 2.6 2.1 1.7 1.6 1.8
0.6 0.5 0.7 0.7 1.7 1.4 1.5 2.9 1.8 1.2 1.1 0.7 0.8 0.1 0.9 1.1 1.4 2.0 2.3 2.2 1.2 1.2 1.1 1.2 1.3 1.5 1.5 1.5 1.8 1.7 1.7 1.6 1.3 1.5 1.6 1.8 2.0 1.9 1.6 1.5 1.4 1.4 1.1 1.0 1.2 1.3 1.2 1.3 1.3 1.0 0.9 0.7 1.0 0.7
1.2 1.2 0.7 1.1 1.0 0.8 1.0 1.3 0.7 0.5 0.7 0.7 1.0 0.6 0.8 0.9 2.2 3.3 1.5 1.4 2.1 1.9 2.0 2.1 2.0 2.3 2.5 2.2 2.1 1.9 1.5 1.5 1.4 1.2 1.3 1.2 1.0 0.8 0.7 1.0 1.1 0.9 0.9 0.8 1.0 1.0 0.8 0.7 0.8 0.9 0.9 1.0 0.8 0.6

GFSWCAN_prec_snow_150.txt.gz
Snowfall_Accumulation
0.0 0.0 0.0 0.0 0.0 0.0 0.0 0.0 0.0 0.0 0.0 0.0 0.0 0.0 0.0 0.0 0.0 0.0 0.0 0.0 0.0 7.5 0.7 0.0 0.0 0.2 1.0 1.7 2.0 3.0 2.5 3.2 2.9 4.0 2.3 1.3 2.1 2.0 2.6 1.4 8.8 11.1 13.6 8.2 8.8 8.1 6.7 1.3 0.4 4.3 3.1 1.6 2.3 2.8
0.0 0.0 0.0 0.0 0.0 0.0 0.0 0.0 0.0 0.0 0.0 0.0 0.0 0.0 0.0 0.0 0.0 0.0 0.0 0.0 0.0 0.8 2.2 0.0 0.0 0.0 0.0 0.0 0.0 0.0 2.9 3.9 6.6 7.8 6.8 3.4 2.4 2.0 1.7 3.5 6.0 12.5 10.6 10.6 7.9 6.8 3.9 2.4 2.7 3.3 3.2 3.1 3.4 3.8
0.0 0.0 0.0 0.0 0.0 0.0 0.0 0.0 0.0 0.0 0.0 0.0 0.0 0.0 0.0 0.0 0.0 0.0 0.0 0.0 0.0 6.2 6.9 0.0 0.0 0.0 0.0 0.0 0.0 0.6 0.0 0.0 0.0 0.0 6.7 3.8 2.6 1.8 2.6 2.3 5.6 8.1 7.5 13.1 6.5 4.7 2.0 3.6 2.0 2.2 3.1 3.2 1.6 0.0
0.0 0.0 0.0 0.0 0.0 0.0 0.0 0.0 0.0 0.0 0.0 0.0 0.0 0.0 0.0 0.0 0.0 0.0 0.0 0.0 0.0 4.1 12.1 1.9 0.0 0.0 0.0 0.0 0.0 0.0 0.0 0.0 0.0 0.0 5.2 3.5 2.3 0.2 0.7 0.9 1.5 8.4 7.4 8.0 11.8 11.7 1.7 3.1 3.4 3.6 2.8 1.4 1.5 0.0
0.0 0.0 0.0 0.0 0.0 0.0 0.0 0.0 0.0 0.0 0.0 0.0 0.0 0.0 0.0 0.0 0.0 0.0 0.0 0.0 0.0 0.0 4.2 1.6 0.0 0.0 0.0 0.0 0.0 0.0 0.0 0.0 0.1 3.7 5.4 3.0 0.1 1.1 0.1 0.2 3.7 0.5 2.9 5.1 10.4 7.1 8.9 6.4 8.5 4.7 2.5 0.6 0.0 0.0
0.0 0.0 0.0 0.0 0.0 0.0 0.0 0.0 0.0 0.0 0.0 0.0 0.0 0.0 0.0 0.0 0.0 0.0 11.2 0.0 0.0 0.0 7.7 4.4 0.0 0.0 0.0 0.0 0.0 0.0 0.0 0.0 0.1 3.5 3.0 0.1 0.0 0.8 2.8 1.4 0.0 0.0 1.2 3.0 2.7 2.9 4.1 4.7 0.0 0.0 0.8 1.6 1.2 0.0
0.0 0.0 0.0 0.0 0.0 0.0 0.0 0.0 0.0 0.0 0.0 0.0 0.0 0.0 0.0 0.0 0.0 2.5 9.5 0.0 0.0 0.0 12.0 9.6 0.6 0.0 0.0 0.0 0.0 0.0 0.0 0.0 0.1 3.5 3.8 0.3 0.0 1.8 2.5 1.1 0.5 0.0 0.1 0.1 0.0 0.0 0.0 0.0 1.1 0.0 0.0 0.0 0.6 0.0
0.0 0.0 0.0 0.0 0.0 0.0 0.0 0.0 0.0 0.0 0.0 0.0 0.0 0.0 0.0 0.0 0.0 1.2 0.0 0.0 0.0 0.0 2.3 11.7 3.1 3.4 0.0 0.2 1.1 0.0 0.1 0.2 1.2 0.7 2.0 1.1 0.9 1.5 4.6 0.2 0.0 0.0 0.0 0.1 0.0 0.0 0.1 0.0 0.0 0.0 0.0 0.0 0.0 0.0
0.0 0.0 0.0 0.0 0.0 0.0 0.0 0.0 0.0 0.0 0.0 0.0 0.0 0.0 0.0 0.0 16.5 0.0 0.0 0.0 0.0 0.0 7.6 6.6 6.8 8.7 0.0 0.0 0.0 2.2 0.0 6.9 0.0 3.8 0.7 1.8 2.1 4.1 1.3 0.1 0.0 0.0 0.0 0.0 0.0 0.0 0.0 0.0 0.0 0.0 0.0 0.0 0.0 0.0
0.0 0.0 0.0 0.0 0.0 0.0 0.0 0.0 0.0 0.0 0.0 0.0 0.0 30.6 50.2 7.8 0.0 0.0 0.0 13.4 11.3 6.6 2.9 5.6 0.5 8.3 0.0 8.9 6.2 7.9 3.5 5.9 6.4 1.3 0.3 2.6 3.1 0.8 0.3 0.2 0.1 0.0 0.0 0.0 0.0 0.0 0.0 0.1 0.0 0.0 0.0 0.0 0.0 0.0
0.0 0.0 0.0 0.0 0.0 0.0 0.0 0.0 0.0 0.0 0.0 0.0 25.4 13.9 0.0 0.0 0.0 5.2 18.5 19.7 9.6 9.7 3.4 1.0 0.2 4.2 0.0 11.9 8.6 0.0 15.7 6.2 4.6 1.6 2.3 3.9 3.1 1.0 0.2 0.2 0.0 0.0 0.0 0.0 0.0 0.0 0.0 0.0 0.0 0.0 0.0 0.0 0.0 0.0
0.0 0.0 0.0 0.0 0.0 0.0 0.0 0.0 0.0 0.0 0.0 0.0 0.0 0.0 0.0 3.2 9.7 12.5 12.0 10.6 3.2 0.9 0.2 0.0 0.0 0.0 1.2 0.8 10.9 7.7 4.5 10.4 5.0 0.0 5.8 4.2 2.4 0.4 0.0 0.0 0.0 0.0 0.0 0.0 0.0 0.0 0.0 0.0 0.0 0.0 0.0 0.0 0.3 0.2
0.0 0.0 0.0 0.0 0.0 0.0 0.0 0.0 0.0 0.0 0.0 0.0 3.5 9.2 15.3 19.6 19.4 11.6 7.3 4.1 1.3 0.2 0.3 0.1 1.7 1.0 1.8 5.2 11.5 9.6 9.4 6.8 0.7 5.2 2.4 1.1 0.5 0.0 0.0 0.0 0.0 0.0 0.0 0.0 0.0 0.0 0.0 0.0 0.0 0.0 0.4 1.2 1.6 2.9
0.0 0.0 0.0 0.0 0.0 0.0 0.0 0.0 0.0 0.0 0.0 9.2 23.1 23.9 19.0 14.6 9.6 5.7 2.0 0.4 0.5 0.5 0.3 0.2 2.7 5.2 4.1 6.3 7.8 13.1 11.7 6.3 8.6 4.5 2.9 2.5 1.1 0.8 0.4 0.1 0.0 0.0 0.0 0.0 0.0 0.1 0.0 0.0 0.8 1.6 2.3 3.7 3.3 4.7
0.0 0.0 0.0 0.0 0.0 0.0 0.0 0.0 0.0 0.0 5.0 13.6 9.7 10.9 9.9 7.8 5.8 4.5 2.0 0.5 0.7 0.3 0.2 1.0 2.5 6.3 10.3 12.0 9.4 8.6 11.5 9.1 6.3 5.7 5.3 3.8 1.5 1.4 1.2 1.6 1.5 0.6 0.7 2.7 5.1 5.7 4.8 4.3 4.2 5.7 6.2 6.0 4.5 4.9
0.0 0.0 0.0 0.0 0.0 0.0 0.0 0.0 0.0 3.6 5.0 7.9 6.5 7.2 5.9 4.6 5.8 4.6 3.5 3.9 1.9 1.9 0.8 2.7 11.5 11.7 13.3 9.7 10.4 6.6 6.6 6.1 6.4 4.3 3.8 2.8 3.0 3.3 3.3 3.4 4.3 5.1 5.9 6.9 7.8 8.3 8.8 7.7 6.8 7.8 8.4 7.3 7.3 6.1
0.0 2.0 0.0 0.0 0.0 0.0 0.0 8.5 6.6 11.6 10.9 6.0 7.5 6.6 5.2 4.9 7.8 6.3 5.5 5.4 2.1 4.6 8.3 8.4 9.9 9.7 8.6 7.2 7.0 5.0 5.8 4.8 3.5 3.9 4.7 4.3 4.2 4.7 5.1 5.3 6.2 6.0 6.0 6.8 7.7 6.9 7.5 7.4 6.3 4.4 5.7 7.4 6.1 5.9
0.0 0.0 0.0 0.0 0.0 0.0 6.5 5.9 5.3 6.6 5.9 7.0 7.6 9.0 4.3 5.7 6.1 5.2 4.5 4.7 5.4 5.8 3.4 5.5 4.7 5.7 6.5 6.4 7.1 6.9 6.0 7.0 6.3 5.5 6.0 6.4 5.9 6.5 6.3 6.2 7.0 6.2 5.8 6.5 6.2 5.4 5.0 5.0 4.5 5.3 4.6 4.6 4.1 4.7
1.4 0.0 0.0 0.0 2.6 5.0 11.1 6.3 1.2 2.2 5.7 7.3 9.6 8.4 6.0 7.2 8.1 7.7 5.1 4.4 5.1 5.0 3.9 4.9 5.9 5.7 7.3 7.8 7.6 7.6 6.9 6.0 7.1 9.1 10.3 11.0 9.8 8.4 7.9 6.4 5.8 6.3 5.5 6.0 5.9 6.0 5.4 4.7 4.7 4.3 3.8 3.8 4.3 5.3
0.0 0.0 0.0 0.0 0.0 5.5 3.9 3.5 0.0 1.1 5.1 6.4 7.2 7.2 5.9 8.8 7.4 6.4 4.7 3.9 3.4 5.5 8.4 8.9 10.6 11.6 11.2 11.5 9.5 8.4 8.6 8.4 6.3 7.7 12.3 12.1 11.1 8.8 9.2 6.8 6.4 5.6 4.7 4.6 5.2 4.7 3.5 3.6 3.9 3.9 3.8 4.0 3.9 4.4
0.0 2.7 0.0 0.0 1.7 2.8 4.2 4.9 3.2 2.8 3.8 4.3 6.4 4.0 6.9 3.5 4.5 4.3 3.3 1.6 3.0 7.3 9.8 12.0 12.7 16.0 15.4 12.7 10.3 7.8 8.5 6.7 7.7 5.5 7.2 9.3 10.5 6.3 7.1 7.0 5.6 4.7 3.9 4.2 3.7 4.9 3.7 3.3 3.2 2.8 3.2 3.8 3.2 2.9
6.8 0.0 6.4 0.0 2.6 0.9 1.2 3.1 2.4 3.2 1.9 4.9 4.9 2.9 4.4 4.2 3.6 4.1 1.2 2.3 7.8 11.4 13.2 12.9 11.8 11.9 10.0 10.1 10.3 8.4 8.5 6.1 5.8 5.9 6.1 4.8 6.5 5.7 5.8 6.1 4.1 4.6 4.6 4.5 3.5 3.8 3.4 2.3 2.2 2.4 2.1 2.2 2.0 2.1
0.0 5.0 3.8 2.4 1.9 1.4 4.2 4.3 3.3 4.8 4.1 5.2 2.9 2.9 4.0 3.9 4.0 0.6 2.5 6.2 9.4 12.1 12.7 10.7 10.7 9.9 8.4 9.8 5.8 6.5 7.8 4.2 4.8 5.6 5.5 4.9 4.7 4.7 4.0 4.8 4.4 3.8 3.8 4.0 2.6 2.4 2.3 2.2 1.8 1.8 1.6 1.5 1.7 2.0
0.8 6.1 4.8 2.9 2.1 3.3 1.1 1.7 2.0 2.3 2.5 2.4 2.2 3.4 4.2 3.9 0.5 1.2 3.9 6.5 10.1 8.1 7.5 8.6 7.5 7.4 5.8 4.4 4.9 6.0 8.5 5.4 3.6 4.2 5.2 3.6 2.6 4.4 3.1 3.4 3.6 3.4 2.1 2.2 2.0 1.9 2.0 1.8 1.4 1.3 1.2 2.4 2.3 2.2
8.8 7.6 3.2 2.3 1.0 0.7 0.6 0.4 0.7 0.6 1.9 1.4 1.4 3.1 4.0 1.6 1.4 2.1 3.5 6.4 5.8 6.5 7.5 7.6 6.0 5.7 5.4 6.0 5.9 5.9 6.1 4.8 3.7 2.6 5.0 4.0 3.7 3.3 3.2 2.1 1.6 1.7 1.0 1.1 2.2 2.7 2.1 1.5 1.8 2.0 1.9 1.7 1.4 1.3
6.7 2.9 1.3 0.3 0.5 0.3 0.2 0.3 0.5 0.7 0.5 0.5 1.5 1.7 1.1 0.7 0.6 1.7 2.8 5.0 4.6 5.2 5.9 6.3 6.0 4.9 5.3 5.1 4.8 4.1 5.2 4.0 2.4 1.9 3.9 3.2 3.4 3.3 3.3 2.9 2.3 1.8 0.9 1.4 2.0 2.1 1.4 1.0 1.1 0.8 0.9 0.4 0.7 1.1
2.4 1.1 0.0 0.0 0.4 0.5 0.4 0.1 0.2 0.5 0.4 1.2 0.8 1.2 1.4 1.1 1.3 3.3 3.4 3.6 3.5 4.5 4.2 4.0 3.4 3.5 4.0 4.5 4.4 4.4 3.4 2.2 2.0 2.6 1.5 1.2 0.9 1.2 1.7 3.0 3.5 3.1 1.5 1.6 1.6 2.2 2.2 1.6 1.3 0.8 1.1 1.0 0.9 1.8
0.6 0.1 0.3 0.5 0.8 0.9 0.9 0.8 0.6 1.1 1.3 1.2 0.7 1.2 1.4 1.2 3.1 4.3 4.4 4.8 3.9 3.2 2.9 2.9 2.5 2.1 2.3 2.6 2.9 2.9 2.9 2.5 1.6 0.9 0.4 0.6 0.9 1.0 1.2 1.7 1.7 1.1 1.3 1.6 1.6 1.6 1.6 1.7 2.0 1.8 1.9 2.0 1.8 1.3
0.5 0.3 0.1 0.3 1.2 1.5 1.8 1.8 2.2 2.3 2.1 2.1 1.6 1.6 2.3 3.8 6.8 5.6 5.5 4.2 3.1 2.1 2.3 2.4 3.4 2.2 1.7 1.4 1.4 1.5 1.2 1.5 2.3 2.0 1.2 2.2 2.7 2.3 1.6 1.2 0.9 0.9 1.1 1.3 1.3 1.7 1.6 2.2 1.9 2.1 2.4 2.5 2.5 2.5
0.5 1.5 1.6 0.9 1.1 2.2 4.1 3.1 3.1 2.7 1.7 1.5 1.1 0.7 1.4 4.4 7.2 4.6 3.2 2.8 2.2 2.4 2.7 2.3 2.3 1.6 1.8 1.4 1.4 1.3 1.6 1.4 2.0 2.8 2.5 1.8 2.2 1.6 1.4 1.6 1.3 1.2 1.6 2.2 1.9 1.5 1.6 1.3 1.6 3.2 2.7 2.4 3.1 3.1
1.3 1.5 1.0 1.2 2.1 2.6 2.0 1.3 1.2 0.8 0.8 0.7 0.4 0.7 1.2 2.7 3.2 2.3 3.0 3.6 1.9 1.7 1.2 1.3 1.3 1.7 1.2 0.9 1.6 1.5 1.7 1.8 1.3 1.2 1.5 2.0 2.1 2.0 2.2 1.8 1.9 1.6 1.6 1.5 1.6 1.7 1.9 2.0 2.4 2.6 2.1 1.7 1.6 1.8
0.6 0.5 0.7 0.7 1.7 1.4 1.5 2.9 1.8 1.2 1.1 0.7 0.8 0.1 0.9 1.1 1.4 2.0 2.3 2.2 1.2 1.2 1.2 1.2 1.3 1.5 1.5 1.5 1.9 1.7 1.7 1.6 1.3 1.5 1.6 1.8 2.0 1.9 1.6 1.5 1.4 1.4 1.1 1.0 1.2 1.3 1.2 1.3 1.3 1.0 0.9 0.7 1.0 0.7
1.2 1.2 0.7 1.1 1.0 0.8 1.0 1.3 0.7 0.5 0.7 0.7 1.0 0.6 0.8 0.9 2.2 3.4 1.5 1.4 2.1 2.0 2.1 2.2 2.1 2.5 2.6 2.2 2.2 2.0 1.5 1.5 1.4 1.2 1.3 1.2 1.0 0.8 0.7 1.0 1.1 0.9 0.9 0.8 1.0 1.0 0.8 0.7 0.8 0.9 0.9 1.0 0.8 0.6

GFSWCAN_prec_snow_153.txt.gz
Snowfall_Accumulation
0.0 0.0 0.0 0.0 0.0 0.0 0.0 0.0 0.0 0.0 0.0 0.0 0.0 0.0 0.0 0.0 0.0 0.0 0.0 0.0 0.0 7.5 0.7 0.0 0.0 0.2 1.0 1.7 2.0 3.0 2.5 3.2 2.9 4.0 2.3 1.3 2.1 2.0 2.6 1.4 8.8 11.1 13.6 8.2 8.8 8.1 6.7 1.3 0.4 4.3 3.1 1.6 2.3 2.8
0.0 0.0 0.0 0.0 0.0 0.0 0.0 0.0 0.0 0.0 0.0 0.0 0.0 0.0 0.0 0.0 0.0 0.0 0.0 0.0 0.0 0.8 2.2 0.0 0.0 0.0 0.0 0.0 0.0 0.0 2.9 3.9 6.6 7.8 6.8 3.4 2.4 2.0 1.7 3.5 6.0 12.5 10.6 10.6 7.9 6.8 3.9 2.4 2.7 3.3 3.2 3.1 3.4 3.8
0.0 0.0 0.0 0.0 0.0 0.0 0.0 0.0 0.0 0.0 0.0 0.0 0.0 0.0 0.0 0.0 0.0 0.0 0.0 0.0 0.0 6.2 6.9 0.0 0.0 0.0 0.0 0.0 0.0 0.6 0.0 0.0 0.0 0.0 6.7 3.8 2.6 1.8 2.6 2.3 5.6 8.1 7.5 13.1 6.5 4.7 2.0 3.6 2.0 2.2 3.1 3.2 1.6 0.0
0.0 0.0 0.0 0.0 0.0 0.0 0.0 0.0 0.0 0.0 0.0 0.0 0.0 0.0 0.0 0.0 0.0 0.0 0.0 0.0 0.0 4.1 13.3 2.2 0.0 0.0 0.0 0.0 0.0 0.0 0.0 0.0 0.0 0.0 5.2 3.5 2.3 0.2 0.7 0.9 1.5 8.4 7.4 8.0 11.8 11.7 1.7 3.1 3.4 3.6 2.8 1.4 1.5 0.0
0.0 0.0 0.0 0.0 0.0 0.0 0.0 0.0 0.0 0.0 0.0 0.0 0.0 0.0 0.0 0.0 0.0 0.0 0.0 0.0 0.0 0.0 4.2 2.1 0.0 0.0 0.0 0.0 0.0 0.0 0.0 0.0 0.1 3.7 5.4 3.0 0.1 1.1 0.1 0.2 3.7 0.5 2.9 5.1 10.4 7.1 8.9 6.4 8.5 4.7 2.5 0.6 0.0 0.0
0.0 0.0 0.0 0.0 0.0 0.0 0.0 0.0 0.0 0.0 0.0 0.0 0.0 0.0 0.0 0.0 0.0 0.0 11.2 0.0 0.0 0.0 7.7 5.4 0.0 0.0 0.0 0.0 0.0 0.0 0.0 0.0 0.1 3.5 3.0 0.1 0.0 0.8 2.8 1.4 0.0 0.0 1.2 3.0 2.7 2.9 4.1 4.7 0.0 0.0 0.8 1.6 1.2 0.0
0.0 0.0 0.0 0.0 0.0 0.0 0.0 0.0 0.0 0.0 0.0 0.0 0.0 0.0 0.0 0.0 0.0 2.5 9.5 0.0 0.0 0.0 12.0 10.0 0.9 0.0 0.0 0.0 0.0 0.0 0.0 0.0 0.1 3.5 3.8 0.3 0.0 1.8 2.5 1.1 0.5 0.0 0.1 0.1 0.0 0.0 0.0 0.0 1.1 0.0 0.0 0.0 0.6 0.0
0.0 0.0 0.0 0.0 0.0 0.0 0.0 0.0 0.0 0.0 0.0 0.0 0.0 0.0 0.0 0.0 0.0 1.2 0.0 0.0 0.0 0.0 2.3 11.8 3.4 3.4 0.0 0.2 1.1 0.0 0.1 0.2 1.2 0.7 2.0 1.1 0.9 1.5 4.6 0.2 0.0 0.0 0.0 0.1 0.0 0.0 0.1 0.0 0.0 0.0 0.0 0.0 0.0 0.0
0.0 0.0 0.0 0.0 0.0 0.0 0.0 0.0 0.0 0.0 0.0 0.0 0.0 0.0 0.0 0.0 16.5 0.0 0.0 0.0 0.0 0.0 7.6 6.6 6.8 8.7 0.0 0.0 0.0 2.2 0.0 6.9 0.0 3.8 0.7 1.8 2.1 4.1 1.3 0.1 0.0 0.0 0.0 0.0 0.0 0.0 0.0 0.0 0.0 0.0 0.0 0.0 0.0 0.0
0.0 0.0 0.0 0.0 0.0 0.0 0.0 0.0 0.0 0.0 0.0 0.0 0.0 30.6 52.0 7.8 0.0 0.0 0.0 13.4 11.3 6.6 2.9 5.6 0.5 8.3 0.0 8.9 6.2 7.9 3.5 5.9 6.4 1.3 0.3 2.6 3.1 0.8 0.3 0.2 0.1 0.0 0.0 0.0 0.0 0.0 0.0 0.1 0.0 0.0 0.0 0.0 0.0 0.0
0.0 0.0 0.0 0.0 0.0 0.0 0.0 0.0 0.0 0.0 0.0 0.0 25.4 14.0 0.0 0.0 0.0 5.2 18.7 19.7 9.6 9.7 3.4 1.0 0.2 4.2 0.0 11.9 8.6 0.0 15.7 6.2 4.6 1.6 2.3 3.9 3.1 1.0 0.2 0.2 0.0 0.0 0.0 0.0 0.0 0.0 0.0 0.0 0.0 0.0 0.0 0.0 0.0 0.0
0.0 0.0 0.0 0.0 0.0 0.0 0.0 0.0 0.0 0.0 0.0 0.0 0.0 0.0 0.0 3.2 9.7 12.5 12.0 10.6 3.2 0.9 0.2 0.0 0.0 0.0 1.2 0.8 10.9 7.7 4.5 10.4 5.0 0.0 5.8 4.2 2.4 0.4 0.0 0.0 0.0 0.0 0.0 0.0 0.0 0.0 0.0 0.0 0.0 0.0 0.0 0.0 0.3 0.2
0.0 0.0 0.0 0.0 0.0 0.0 0.0 0.0 0.0 0.0 0.0 0.0 3.5 9.2 15.3 19.6 19.4 11.6 7.3 4.1 1.3 0.2 0.3 0.1 1.7 1.0 1.8 5.2 11.5 9.6 9.4 6.8 0.7 5.2 2.4 1.1 0.5 0.0 0.0 0.0 0.0 0.0 0.0 0.0 0.0 0.0 0.0 0.0 0.0 0.0 0.4 1.2 1.6 2.9
0.0 0.0 0.0 0.0 0.0 0.0 0.0 0.0 0.0 0.0 0.0 9.3 23.1 23.9 19.0 14.6 9.6 5.7 2.0 0.4 0.5 0.5 0.3 0.2 2.7 5.2 4.1 6.3 7.8 13.1 11.7 6.3 8.6 4.5 2.9 2.5 1.1 0.8 0.4 0.1 0.0 0.0 0.0 0.0 0.0 0.1 0.0 0.0 0.8 1.6 2.3 3.7 3.3 4.7
0.0 0.0 0.0 0.0 0.0 0.0 0.0 0.0 0.0 0.0 5.0 13.6 9.7 10.9 9.9 7.8 5.8 4.5 2.0 0.5 0.7 0.3 0.2 1.0 2.5 6.3 10.3 12.0 9.4 8.6 11.5 9.1 6.3 5.7 5.3 3.8 1.5 1.4 1.2 1.6 1.5 0.6 0.7 2.7 5.1 5.7 4.8 4.3 4.2 5.7 6.2 6.0 4.5 4.9
0.0 0.0 0.0 0.0 0.0 0.0 0.0 0.0 0.0 3.6 5.0 7.9 6.5 7.3 6.0 4.7 5.8 4.6 3.5 3.9 1.9 1.9 0.8 2.7 11.5 11.7 13.3 9.7 10.4 6.6 6.6 6.1 6.4 4.3 3.8 2.8 3.0 3.3 3.3 3.4 4.3 5.1 5.9 6.9 7.8 8.3 8.8 7.7 6.8 7.8 8.4 7.3 7.3 6.1
0.0 2.0 0.0 0.0 0.0 0.0 0.0 8.5 6.6 11.6 10.9 6.0 7.7 6.8 5.4 5.1 8.0 6.3 5.5 5.4 2.1 4.6 8.3 8.4 9.9 9.7 8.6 7.2 7.0 5.0 5.8 4.8 3.5 3.9 4.7 4.3 4.2 4.7 5.1 5.3 6.2 6.0 6.0 6.8 7.7 6.9 7.5 7.4 6.3 4.4 5.7 7.4 6.1 5.9
0.0 0.0 0.0 0.0 0.0 0.0 6.5 5.9 5.3 6.6 5.9 7.0 7.8 9.2 4.4 5.9 6.2 5.2 4.5 4.7 5.4 5.8 3.4 5.5 4.7 5.7 6.5 6.4 7.1 6.9 6.0 7.0 6.3 5.5 6.0 6.4 5.9 6.5 6.3 6.2 7.0 6.2 5.8 6.5 6.2 5.4 5.0 5.0 4.5 5.3 4.6 4.6 4.1 4.7
1.4 0.0 0.0 0.0 2.6 5.0 11.1 6.3 1.2 2.2 5.8 7.4 9.8 8.4 6.1 7.3 8.1 7.7 5.1 4.4 5.1 5.0 3.9 4.9 5.9 5.7 7.3 7.8 7.6 7.6 6.9 6.0 7.1 9.1 10.3 11.0 9.8 8.4 7.9 6.4 5.8 6.3 5.5 6.0 5.9 6.0 5.4 4.7 4.7 4.3 3.8 3.8 4.3 5.3
0.0 0.0 0.0 0.0 0.0 5.5 3.9 3.5 0.0 1.1 5.1 6.5 7.2 7.2 5.9 8.8 7.4 6.4 4.7 3.9 3.4 5.5 8.4 8.9 10.6 11.6 11.2 11.5 9.5 8.4 8.6 8.4 6.3 7.7 12.3 12.1 11.1 8.8 9.2 6.8 6.4 5.6 4.7 4.6 5.2 4.7 3.5 3.6 3.9 3.9 3.8 4.0 3.9 4.4
0.0 2.7 0.0 0.0 1.7 2.8 4.2 4.9 3.2 2.8 3.8 4.3 6.6 4.1 6.9 3.5 4.5 4.3 3.3 1.6 3.0 7.3 9.8 12.0 12.7 16.0 15.4 12.7 10.3 7.8 8.5 6.7 7.7 5.5 7.2 9.4 10.5 6.3 7.1 7.0 5.6 4.7 3.9 4.2 3.7 4.9 3.7 3.3 3.2 2.8 3.2 3.8 3.2 2.9
6.8 0.0 6.4 0.0 2.6 0.9 1.2 3.1 2.4 3.2 1.9 4.9 4.9 2.9 4.4 4.2 3.6 4.1 1.2 2.3 7.8 11.4 13.2 12.9 11.8 11.9 10.0 10.1 10.3 8.4 8.5 6.1 5.8 5.9 6.1 4.8 6.5 5.8 5.9 6.2 4.1 4.7 4.6 4.5 3.5 3.8 3.4 2.3 2.2 2.4 2.1 2.2 2.0 2.1
0.0 5.0 3.8 2.4 1.9 1.4 4.2 4.3 3.3 4.8 4.1 5.2 2.9 2.9 4.0 3.9 4.0 0.6 2.5 6.2 9.4 12.1 12.7 10.7 10.7 9.9 8.4 9.8 5.8 6.5 7.8 4.2 4.8 5.6 5.5 4.9 4.7 4.7 4.0 4.8 4.4 3.8 3.8 4.1 2.6 2.4 2.3 2.2 1.8 1.8 1.6 1.5 1.7 2.0
0.8 6.1 4.8 2.9 2.1 3.3 1.1 1.7 2.0 2.3 2.5 2.4 2.2 3.4 4.2 3.9 0.5 1.2 3.9 6.5 10.1 8.1 7.5 8.6 7.5 7.4 5.8 4.4 4.9 6.0 8.5 5.4 3.6 4.2 5.2 3.6 2.7 4.5 3.1 3.4 3.6 3.4 2.1 2.2 2.0 1.9 2.0 1.8 1.4 1.3 1.2 2.4 2.3 2.2
8.8 7.6 3.2 2.3 1.0 0.7 0.6 0.4 0.7 0.6 1.9 1.4 1.4 3.1 4.0 1.6 1.4 2.1 3.5 6.4 5.8 6.5 7.5 7.6 6.0 5.7 5.4 6.0 5.9 5.9 6.1 4.8 3.7 2.6 5.0 4.0 3.7 3.3 3.3 2.2 1.6 1.7 1.0 1.1 2.2 2.7 2.1 1.5 1.8 2.0 1.9 1.7 1.4 1.3
6.7 2.9 1.3 0.3 0.5 0.3 0.2 0.3 0.5 0.7 0.5 0.5 1.5 1.7 1.1 0.7 0.6 1.7 2.8 5.0 4.6 5.2 5.9 6.3 6.0 4.9 5.3 5.1 4.8 4.1 5.2 4.0 2.4 1.9 3.9 3.2 3.4 3.3 3.3 3.0 2.4 1.9 0.9 1.4 2.0 2.1 1.4 1.0 1.1 0.8 0.9 0.4 0.7 1.1
2.4 1.1 0.0 0.0 0.4 0.5 0.4 0.1 0.2 0.5 0.4 1.2 0.8 1.2 1.4 1.1 1.3 3.3 3.4 3.6 3.5 4.5 4.2 4.0 3.4 3.5 4.0 4.5 4.4 4.4 3.4 2.2 2.0 2.6 1.5 1.2 1.0 1.2 1.7 3.0 3.5 3.1 1.5 1.6 1.6 2.2 2.2 1.6 1.3 0.8 1.1 1.0 0.9 1.8
0.6 0.1 0.3 0.5 0.8 0.9 0.9 0.8 0.6 1.1 1.3 1.2 0.7 1.2 1.4 1.2 3.1 4.3 4.4 4.8 3.9 3.2 2.9 2.9 2.5 2.1 2.3 2.6 2.9 2.9 2.9 2.5 1.6 0.9 0.4 0.6 0.9 1.0 1.2 1.7 1.7 1.1 1.3 1.6 1.6 1.6 1.6 1.7 2.0 1.8 1.9 2.0 1.8 1.3
0.5 0.3 0.1 0.3 1.2 1.5 1.8 1.8 2.2 2.3 2.1 2.1 1.6 1.6 2.3 3.8 6.8 5.6 5.5 4.2 3.1 2.1 2.3 2.4 3.4 2.2 1.7 1.4 1.4 1.5 1.2 1.5 2.3 2.0 1.2 2.2 2.7 2.4 1.6 1.2 0.9 0.9 1.1 1.3 1.3 1.7 1.6 2.2 1.9 2.1 2.4 2.5 2.5 2.5
0.5 1.5 1.6 0.9 1.1 2.2 4.1 3.1 3.1 2.7 1.7 1.5 1.1 0.7 1.4 4.4 7.2 4.6 3.2 2.8 2.2 2.4 2.7 2.3 2.3 1.6 1.8 1.4 1.5 1.3 1.6 1.4 2.0 2.8 2.5 1.8 2.2 1.6 1.4 1.6 1.4 1.2 1.6 2.2 1.9 1.5 1.6 1.3 1.6 3.2 2.7 2.4 3.1 3.1
1.3 1.5 1.0 1.2 2.1 2.6 2.0 1.3 1.2 0.8 0.8 0.7 0.4 0.7 1.2 2.7 3.2 2.3 3.0 3.6 1.9 1.7 1.2 1.4 1.3 1.7 1.2 0.9 1.6 1.5 1.7 1.8 1.3 1.3 1.5 2.0 2.1 2.0 2.2 1.8 1.9 1.6 1.6 1.5 1.6 1.7 1.9 2.0 2.4 2.6 2.1 1.7 1.6 1.8
0.6 0.5 0.8 0.8 1.8 1.4 1.5 2.9 1.8 1.2 1.1 0.7 0.8 0.1 0.9 1.1 1.4 2.0 2.3 2.2 1.2 1.2 1.2 1.2 1.4 1.5 1.5 1.5 1.9 1.7 1.7 1.6 1.3 1.5 1.6 1.8 2.0 1.9 1.6 1.5 1.4 1.4 1.1 1.0 1.2 1.3 1.2 1.3 1.3 1.0 0.9 0.7 1.0 0.7
1.2 1.2 0.7 1.1 1.0 0.8 1.0 1.3 0.7 0.5 0.7 0.7 1.0 0.6 0.8 0.9 2.3 3.5 1.5 1.4 2.2 2.1 2.2 2.4 2.2 2.6 2.7 2.4 2.4 2.1 1.5 1.5 1.4 1.2 1.3 1.2 1.0 0.8 0.8 1.0 1.1 0.9 0.9 0.8 1.0 1.0 0.8 0.7 0.8 0.9 0.9 1.0 0.8 0.6

GFSWCAN_prec_snow_156.txt.gz
Snowfall_Accumulation
0.0 0.0 0.0 0.0 0.0 0.0 0.0 0.0 0.0 0.0 0.0 0.0 0.0 0.0 0.0 0.0 0.0 0.0 0.0 0.0 0.0 7.5 0.7 0.0 0.0 0.2 1.0 1.7 2.0 3.0 2.5 3.2 2.9 4.0 2.4 1.3 2.1 2.0 2.6 1.4 8.8 11.1 13.6 8.2 8.8 8.1 6.7 1.3 0.4 4.3 3.1 1.6 2.3 2.8
0.0 0.0 0.0 0.0 0.0 0.0 0.0 0.0 0.0 0.0 0.0 0.0 0.0 0.0 0.0 0.0 0.0 0.0 0.0 0.0 0.0 0.8 2.2 0.0 0.0 0.0 0.0 0.0 0.0 0.0 2.9 3.9 6.6 7.8 6.8 3.4 2.4 2.0 1.7 3.5 6.0 12.5 10.6 10.6 7.9 6.8 3.9 2.4 2.7 3.3 3.2 3.1 3.4 3.8
0.0 0.0 0.0 0.0 0.0 0.0 0.0 0.0 0.0 0.0 0.0 0.0 0.0 0.0 0.0 0.0 0.0 0.0 0.0 0.0 0.0 6.2 6.9 0.0 0.0 0.0 0.0 0.0 0.0 0.6 0.0 0.0 0.0 0.0 6.7 3.8 2.6 1.8 2.6 2.3 5.6 8.1 7.5 13.1 6.5 4.7 2.0 3.6 2.0 2.2 3.1 3.2 1.6 0.0
0.0 0.0 0.0 0.0 0.0 0.0 0.0 0.0 0.0 0.0 0.0 0.0 0.0 0.0 0.0 0.0 0.0 0.0 0.0 0.0 0.0 4.1 15.7 2.2 0.0 0.0 0.0 0.0 0.0 0.0 0.0 0.0 0.0 0.0 5.2 3.5 2.3 0.2 0.7 0.9 1.5 8.4 7.4 8.0 11.8 11.7 1.7 3.1 3.4 3.6 2.8 1.4 1.5 0.0
0.0 0.0 0.0 0.0 0.0 0.0 0.0 0.0 0.0 0.0 0.0 0.0 0.0 0.0 0.0 0.0 0.0 0.0 0.0 0.0 0.0 0.0 4.9 2.7 0.0 0.0 0.0 0.0 0.0 0.0 0.0 0.0 0.1 3.7 5.4 3.0 0.1 1.1 0.1 0.2 3.7 0.5 2.9 5.1 10.4 7.1 8.9 6.4 8.5 4.7 2.5 0.6 0.0 0.0
0.0 0.0 0.0 0.0 0.0 0.0 0.0 0.0 0.0 0.0 0.0 0.0 0.0 0.0 0.0 0.0 0.0 0.0 11.2 0.0 0.0 0.0 8.9 6.5 0.0 0.0 0.0 0.0 0.0 0.0 0.0 0.0 0.1 3.5 3.0 0.1 0.0 0.8 2.8 1.4 0.0 0.0 1.2 3.0 2.7 2.9 4.1 4.7 0.0 0.0 0.8 1.6 1.2 0.0
0.0 0.0 0.0 0.0 0.0 0.0 0.0 0.0 0.0 0.0 0.0 0.0 0.0 0.0 0.0 0.0 0.0 2.5 9.5 0.0 0.0 0.0 13.0 10.8 2.0 0.0 0.0 0.0 0.0 0.0 0.0 0.0 0.1 3.5 3.8 0.3 0.0 1.8 2.5 1.1 0.5 0.0 0.1 0.1 0.0 0.0 0.0 0.0 1.1 0.0 0.0 0.0 0.6 0.0
0.0 0.0 0.0 0.0 0.0 0.0 0.0 0.0 0.0 0.0 0.0 0.0 0.0 0.0 0.0 0.0 0.0 1.2 0.0 0.0 0.0 0.0 2.3 12.1 3.8 3.4 0.0 0.2 1.1 0.0 0.1 0.2 1.2 0.7 2.0 1.1 0.9 1.5 4.6 0.2 0.0 0.0 0.0 0.1 0.0 0.0 0.1 0.0 0.0 0.0 0.0 0.0 0.0 0.0
0.0 0.0 0.0 0.0 0.0 0.0 0.0 0.0 0.0 0.0 0.0 0.0 0.0 0.0 0.0 0.0 16.5 0.0 0.0 0.0 0.0 0.0 7.7 6.6 6.8 8.7 0.0 0.0 0.0 2.2 0.0 6.9 0.0 3.8 0.7 1.8 2.1 4.1 1.3 0.1 0.0 0.0 0.0 0.0 0.0 0.0 0.0 0.0 0.0 0.0 0.0 0.0 0.0 0.0
0.0 0.0 0.0 0.0 0.0 0.0 0.0 0.0 0.0 0.0 0.0 0.0 0.0 30.6 53.8 7.8 0.0 0.0 0.0 13.4 11.3 6.6 2.9 5.6 0.5 8.3 0.0 8.9 6.2 7.9 3.5 5.9 6.4 1.3 0.3 2.6 3.1 0.8 0.3 0.2 0.1 0.0 0.0 0.0 0.0 0.0 0.0 0.1 0.0 0.0 0.0 0.0 0.0 0.0
0.0 0.0 0.0 0.0 0.0 0.0 0.0 0.0 0.0 0.0 0.0 0.0 26.1 14.5 0.0 0.0 0.0 6.5 19.5 19.9 9.6 9.7 3.4 1.0 0.2 4.2 0.0 11.9 8.6 0.0 15.7 6.2 4.6 1.6 2.3 3.9 3.1 1.0 0.2 0.2 0.0 0.0 0.0 0.0 0.0 0.0 0.0 0.0 0.0 0.0 0.0 0.0 0.0 0.0
0.0 0.0 0.0 0.0 0.0 0.0 0.0 0.0 0.0 0.0 0.0 0.0 0.0 0.0 0.0 3.2 10.1 12.7 12.0 10.6 3.2 0.9 0.2 0.0 0.0 0.0 1.2 0.8 10.9 7.7 4.5 10.4 5.0 0.0 5.8 4.2 2.4 0.4 0.0 0.0 0.0 0.0 0.0 0.0 0.0 0.0 0.0 0.0 0.0 0.0 0.0 0.0 0.3 0.2
0.0 0.0 0.0 0.0 0.0 0.0 0.0 0.0 0.0 0.0 0.0 0.0 3.5 9.2 15.5 19.7 19.4 11.6 7.3 4.1 1.3 0.2 0.3 0.1 1.7 1.0 1.8 5.2 11.5 9.6 9.4 6.8 0.7 5.2 2.4 1.1 0.5 0.0 0.0 0.0 0.0 0.0 0.0 0.0 0.0 0.0 0.0 0.0 0.0 0.0 0.4 1.2 1.6 2.9
0.0 0.0 0.0 0.0 0.0 0.0 0.0 0.0 0.0 0.0 0.0 9.3 23.1 23.9 19.0 14.6 9.6 5.7 2.0 0.4 0.5 0.5 0.3 0.2 2.7 5.2 4.1 6.3 7.8 13.1 11.7 6.3 8.6 4.5 2.9 2.5 1.1 0.8 0.4 0.1 0.0 0.0 0.0 0.0 0.0 0.1 0.0 0.0 0.8 1.6 2.3 3.7 3.3 4.7
0.0 0.0 0.0 0.0 0.0 0.0 0.0 0.0 0.0 0.0 5.0 13.6 9.7 10.9 9.9 7.8 5.8 4.5 2.0 0.5 0.7 0.3 0.2 1.0 2.5 6.3 10.3 12.0 9.4 8.6 11.5 9.1 6.3 5.7 5.3 3.8 1.5 1.4 1.2 1.6 1.5 0.6 0.7 2.7 5.1 5.7 4.8 4.3 4.2 5.7 6.2 6.0 4.5 4.9
0.0 0.0 0.0 0.0 0.0 0.0 0.0 0.0 0.0 3.6 5.0 7.9 6.5 7.6 6.0 4.7 5.8 4.6 3.5 3.9 1.9 1.9 0.8 2.7 11.5 11.7 13.3 9.7 10.4 6.6 6.6 6.1 6.4 4.3 3.8 2.8 3.0 3.3 3.3 3.4 4.3 5.1 5.9 6.9 7.8 8.3 8.8 7.7 6.8 7.8 8.4 7.3 7.3 6.1
0.0 2.0 0.0 0.0 0.0 0.0 0.0 8.5 6.6 11.6 10.9 6.0 7.8 7.1 5.6 5.3 8.0 6.3 5.5 5.4 2.1 4.6 8.3 8.4 9.9 9.7 8.6 7.2 7.0 5.0 5.8 4.8 3.5 3.9 4.7 4.3 4.2 4.7 5.1 5.3 6.2 6.0 6.0 6.8 7.7 6.9 7.5 7.4 6.3 4.4 5.7 7.4 6.1 5.9
0.0 0.0 0.0 0.0 0.0 0.0 6.5 5.9 5.3 6.6 5.9 7.1 8.2 9.7 4.6 6.3 6.4 5.2 4.5 4.7 5.4 5.8 3.4 5.5 4.7 5.7 6.5 6.4 7.1 6.9 6.0 7.0 6.3 5.5 6.0 6.4 5.9 6.5 6.3 6.2 7.0 6.2 5.8 6.5 6.2 5.4 5.0 5.0 4.5 5.3 4.6 4.6 4.1 4.7
1.4 0.0 0.0 0.0 2.6 5.0 11.1 6.3 1.2 2.2 5.9 7.6 10.3 8.8 6.3 7.6 8.2 7.7 5.1 4.4 5.1 5.0 3.9 4.9 5.9 5.7 7.3 7.8 7.6 7.6 6.9 6.0 7.1 9.1 10.3 11.0 9.8 8.4 7.9 6.4 5.8 6.3 5.5 6.0 5.9 6.0 5.4 4.7 4.7 4.3 3.8 3.8 4.3 5.3
0.0 0.0 0.0 0.0 0.0 5.5 3.9 3.5 0.0 1.1 5.1 6.6 7.5 7.4 6.0 8.8 7.4 6.4 4.7 3.9 3.4 5.5 8.4 8.9 10.6 11.6 11.2 11.5 9.5 8.4 8.6 8.4 6.3 7.7 12.3 12.1 11.1 8.8 9.2 6.8 6.4 5.6 4.7 4.6 5.2 4.7 3.5 3.6 3.9 3.9 3.8 4.0 3.9 4.4
0.0 2.7 0.0 0.0 1.7 2.8 4.2 4.9 3.2 2.8 3.8 4.4 6.7 4.1 6.9 3.5 4.5 4.3 3.3 1.6 3.0 7.3 9.8 12.1 12.8 16.0 15.4 12.7 10.3 7.8 8.5 6.7 7.7 5.5 7.2 9.4 10.5 6.3 7.1 7.0 5.6 4.7 3.9 4.2 3.7 4.9 3.7 3.3 3.2 2.8 3.2 3.8 3.2 2.9
6.8 0.0 6.4 0.0 2.6 0.9 1.2 3.1 2.4 3.2 2.0 5.0 4.9 2.9 4.4 4.2 3.6 4.1 1.2 2.3 7.8 11.5 13.2 12.9 11.8 11.9 10.0 10.1 10.3 8.4 8.5 6.1 5.8 5.9 6.1 4.8 6.5 5.8 6.0 6.2 4.2 4.7 4.6 4.5 3.5 3.8 3.4 2.3 2.2 2.4 2.1 2.2 2.0 2.1
0.0 5.0 3.8 2.4 1.9 1.4 4.2 4.3 3.3 4.8 4.1 5.2 2.9 2.9 4.0 3.9 4.0 0.6 2.5 6.2 9.4 12.1 12.7 10.7 10.7 9.9 8.4 9.8 5.8 6.5 7.8 4.2 4.8 5.6 5.5 4.9 4.7 4.7 4.0 4.8 4.4 3.8 3.8 4.1 2.6 2.4 2.3 2.2 1.8 1.8 1.6 1.5 1.7 2.0
0.8 6.1 4.8 2.9 2.1 3.3 1.1 1.7 2.0 2.3 2.5 2.4 2.2 3.4 4.2 3.9 0.5 1.2 3.9 6.5 10.1 8.1 7.5 8.6 7.5 7.4 5.8 4.4 4.9 6.0 8.5 5.4 3.6 4.2 5.2 3.6 2.7 4.6 3.1 3.4 3.6 3.4 2.1 2.2 2.0 1.9 2.0 1.8 1.4 1.3 1.2 2.4 2.3 2.2
8.8 7.6 3.2 2.3 1.0 0.7 0.6 0.4 0.7 0.6 1.9 1.4 1.4 3.1 4.0 1.6 1.4 2.1 3.5 6.4 5.8 6.5 7.5 7.6 6.0 5.7 5.4 6.0 5.9 5.9 6.1 4.8 3.7 2.6 5.0 4.0 3.7 3.3 3.4 2.3 1.7 1.7 1.0 1.1 2.3 2.8 2.1 1.5 1.8 2.0 1.9 1.7 1.4 1.3
6.7 2.9 1.3 0.3 0.5 0.3 0.2 0.3 0.5 0.7 0.5 0.5 1.5 1.7 1.1 0.7 0.6 1.7 2.8 5.0 4.6 5.2 5.9 6.3 6.0 4.9 5.3 5.1 4.8 4.1 5.2 4.0 2.4 1.9 3.9 3.2 3.4 3.3 3.3 3.0 2.6 2.1 0.9 1.4 2.1 2.2 1.4 1.0 1.1 0.8 0.9 0.4 0.7 1.1
2.4 1.1 0.0 0.0 0.4 0.5 0.4 0.1 0.2 0.5 0.4 1.2 0.8 1.2 1.4 1.1 1.3 3.3 3.4 3.6 3.5 4.5 4.2 4.0 3.4 3.5 4.0 4.5 4.4 4.4 3.4 2.2 2.0 2.6 1.5 1.2 1.0 1.2 1.7 3.0 3.5 3.1 1.6 1.6 1.7 2.2 2.2 1.6 1.3 0.8 1.1 1.0 0.9 1.8
0.6 0.1 0.3 0.5 0.8 0.9 0.9 0.8 0.6 1.1 1.3 1.2 0.7 1.2 1.4 1.2 3.1 4.3 4.4 4.8 3.9 3.2 2.9 2.9 2.5 2.1 2.3 2.6 2.9 2.9 2.9 2.5 1.6 0.9 0.4 0.6 1.0 1.1 1.2 1.7 1.7 1.1 1.3 1.6 1.6 1.6 1.6 1.7 2.0 1.8 1.9 2.0 1.8 1.3
0.5 0.3 0.1 0.3 1.2 1.5 1.8 1.8 2.2 2.3 2.1 2.1 1.6 1.6 2.3 3.8 6.8 5.6 5.5 4.2 3.1 2.1 2.3 2.4 3.4 2.2 1.7 1.4 1.4 1.5 1.2 1.5 2.3 2.0 1.2 2.2 2.7 2.4 1.7 1.2 0.9 0.9 1.1 1.3 1.3 1.7 1.6 2.2 1.9 2.1 2.4 2.5 2.5 2.5
0.5 1.5 1.6 0.9 1.1 2.2 4.1 3.1 3.1 2.7 1.7 1.5 1.1 0.7 1.4 4.4 7.3 4.6 3.2 2.8 2.2 2.4 2.7 2.3 2.3 1.6 1.8 1.4 1.5 1.4 1.6 1.4 2.0 2.8 2.5 1.8 2.2 1.6 1.4 1.7 1.5 1.3 1.6 2.2 1.9 1.5 1.6 1.3 1.6 3.2 2.7 2.4 3.1 3.1
1.3 1.5 1.0 1.2 2.1 2.6 2.0 1.3 1.2 0.8 0.8 0.7 0.4 0.7 1.2 2.7 3.2 2.3 3.0 3.6 1.9 1.7 1.2 1.4 1.3 1.7 1.2 0.9 1.6 1.5 1.7 1.8 1.3 1.3 1.5 2.0 2.1 2.0 2.2 1.8 2.0 1.7 1.6 1.5 1.6 1.7 1.9 2.0 2.4 2.6 2.1 1.7 1.6 1.8
0.6 0.5 0.8 0.8 1.8 1.4 1.5 2.9 1.8 1.2 1.1 0.7 0.8 0.1 0.9 1.1 1.4 2.1 2.3 2.2 1.2 1.2 1.3 1.3 1.5 1.5 1.5 1.5 1.9 1.7 1.7 1.6 1.3 1.5 1.6 1.9 2.1 1.9 1.6 1.5 1.4 1.4 1.1 1.0 1.2 1.3 1.2 1.3 1.3 1.0 0.9 0.7 1.0 0.7
1.2 1.2 0.7 1.2 1.0 0.8 1.0 1.3 0.7 0.5 0.7 0.7 1.0 0.6 0.8 0.9 2.3 3.5 1.5 1.4 2.2 2.1 2.2 2.4 2.3 2.7 2.7 2.4 2.4 2.1 1.5 1.5 1.4 1.2 1.3 1.2 1.1 1.0 0.9 1.1 1.1 1.0 0.9 0.8 1.0 1.0 0.8 0.7 0.8 0.9 0.9 1.0 0.8 0.6

GFSWCAN_prec_snow_159.txt.gz
Snowfall_Accumulation
0.0 0.0 0.0 0.0 0.0 0.0 0.0 0.0 0.0 0.0 0.0 0.0 0.0 0.0 0.0 0.0 0.0 0.0 0.0 0.0 0.0 7.5 0.7 0.0 0.0 0.2 1.0 1.7 2.1 3.0 2.5 3.7 3.8 4.8 2.8 1.5 2.1 2.0 2.6 1.4 8.8 11.1 13.6 8.2 8.8 8.1 6.7 1.3 0.4 4.3 3.1 1.6 2.3 2.8
0.0 0.0 0.0 0.0 0.0 0.0 0.0 0.0 0.0 0.0 0.0 0.0 0.0 0.0 0.0 0.0 0.0 0.0 0.0 0.0 0.0 0.8 2.2 0.0 0.0 0.0 0.0 0.0 0.0 0.0 2.9 3.9 6.6 7.9 6.8 3.4 2.4 2.0 1.7 3.5 6.0 12.5 10.6 10.6 7.9 6.8 3.9 2.4 2.7 3.3 3.2 3.1 3.4 3.8
0.0 0.0 0.0 0.0 0.0 0.0 0.0 0.0 0.0 0.0 0.0 0.0 0.0 0.0 0.0 0.0 0.0 0.0 0.0 0.0 0.0 6.2 6.9 0.0 0.0 0.0 0.0 0.0 0.0 0.6 0.0 0.0 0.0 0.0 6.7 3.9 2.6 1.8 2.6 2.3 5.6 8.1 7.5 13.1 6.5 4.7 2.0 3.6 2.0 2.2 3.1 3.2 1.6 0.0
0.0 0.0 0.0 0.0 0.0 0.0 0.0 0.0 0.0 0.0 0.0 0.0 0.0 0.0 0.0 0.0 0.0 0.0 0.0 0.0 0.0 4.1 16.0 2.2 0.0 0.0 0.0 0.0 0.0 0.0 0.0 0.0 0.0 0.0 5.2 3.5 2.3 0.2 0.7 0.9 1.5 8.4 7.4 8.0 11.8 11.7 1.7 3.1 3.4 3.6 2.8 1.4 1.5 0.0
0.0 0.0 0.0 0.0 0.0 0.0 0.0 0.0 0.0 0.0 0.0 0.0 0.0 0.0 0.0 0.0 0.0 0.0 0.0 0.0 0.0 0.0 4.9 3.6 0.0 0.0 0.0 0.0 0.0 0.0 0.0 0.0 0.1 3.7 5.4 3.0 0.1 1.1 0.1 0.2 3.7 0.5 2.9 5.1 10.4 7.1 8.9 6.4 8.5 4.7 2.5 0.6 0.0 0.0
0.0 0.0 0.0 0.0 0.0 0.0 0.0 0.0 0.0 0.0 0.0 0.0 0.0 0.0 0.0 0.0 0.0 0.0 11.2 0.0 0.0 0.0 8.9 6.5 0.0 0.0 0.0 0.0 0.0 0.0 0.0 0.0 0.1 3.5 3.1 0.1 0.0 0.8 2.8 1.4 0.0 0.0 1.2 3.0 2.7 2.9 4.1 4.7 0.0 0.0 0.8 1.6 1.2 0.0
0.0 0.0 0.0 0.0 0.0 0.0 0.0 0.0 0.0 0.0 0.0 0.0 0.0 0.0 0.0 0.0 0.0 2.5 9.5 0.0 0.0 0.0 14.5 12.5 3.6 2.3 0.0 0.0 0.0 0.0 0.0 0.0 0.1 3.5 3.8 0.3 0.0 1.8 2.5 1.1 0.5 0.0 0.1 0.1 0.0 0.0 0.0 0.0 1.1 0.0 0.0 0.0 0.6 0.0
0.0 0.0 0.0 0.0 0.0 0.0 0.0 0.0 0.0 0.0 0.0 0.0 0.0 0.0 0.0 0.0 0.0 1.2 0.0 0.0 0.0 0.0 2.3 13.5 4.9 5.0 0.0 0.2 1.1 0.0 0.1 0.2 1.2 0.7 2.0 1.1 0.9 1.5 4.6 0.2 0.0 0.0 0.0 0.1 0.0 0.0 0.1 0.0 0.0 0.0 0.0 0.0 0.0 0.0
0.0 0.0 0.0 0.0 0.0 0.0 0.0 0.0 0.0 0.0 0.0 0.0 0.0 0.0 0.0 0.0 16.5 0.0 0.0 0.0 0.0 0.0 8.0 7.0 6.8 9.0 0.0 0.0 0.0 2.2 0.0 6.9 0.0 3.8 0.7 1.8 2.1 4.1 1.3 0.1 0.0 0.0 0.0 0.0 0.0 0.0 0.0 0.0 0.0 0.0 0.0 0.0 0.0 0.0
0.0 0.0 0.0 0.0 0.0 0.0 0.0 0.0 0.0 0.0 0.0 0.0 0.0 30.6 54.9 7.8 0.0 0.0 0.0 13.4 11.3 6.6 2.9 5.6 0.5 8.3 0.0 8.9 6.2 7.9 3.5 5.9 6.4 1.3 0.3 2.6 3.1 0.8 0.3 0.2 0.1 0.0 0.0 0.0 0.0 0.0 0.0 0.1 0.0 0.0 0.0 0.0 0.0 0.0
0.0 0.0 0.0 0.0 0.0 0.0 0.0 0.0 0.0 0.0 0.0 0.0 26.7 15.5 0.0 0.0 0.0 6.5 21.1 20.4 9.6 9.7 3.4 1.0 0.2 4.2 0.0 11.9 8.6 0.0 15.7 6.2 4.6 1.6 2.3 3.9 3.1 1.0 0.2 0.2 0.0 0.0 0.0 0.0 0.0 0.0 0.0 0.0 0.0 0.0 0.0 0.0 0.0 0.0
0.0 0.0 0.0 0.0 0.0 0.0 0.0 0.0 0.0 0.0 0.0 0.0 0.0 0.0 0.0 3.2 10.9 13.4 12.1 10.6 3.2 0.9 0.2 0.0 0.0 0.0 1.2 0.8 10.9 7.7 4.5 10.4 5.0 0.0 5.8 4.2 2.4 0.4 0.0 0.0 0.0 0.0 0.0 0.0 0.0 0.0 0.0 0.0 0.0 0.0 0.0 0.0 0.3 0.2
0.0 0.0 0.0 0.0 0.0 0.0 0.0 0.0 0.0 0.0 0.0 0.0 3.5 9.2 15.5 19.9 19.5 11.6 7.3 4.1 1.3 0.2 0.3 0.1 1.7 1.0 1.8 5.2 11.5 9.6 9.4 6.8 0.7 5.2 2.4 1.1 0.5 0.0 0.0 0.0 0.0 0.0 0.0 0.0 0.0 0.0 0.0 0.0 0.0 0.0 0.4 1.2 1.6 2.9
0.0 0.0 0.0 0.0 0.0 0.0 0.0 0.0 0.0 0.0 0.0 9.3 23.1 23.9 19.0 14.6 9.6 5.7 2.0 0.4 0.5 0.5 0.3 0.2 2.7 5.2 4.1 6.3 7.8 13.1 11.7 6.3 8.6 4.5 2.9 2.5 1.1 0.8 0.4 0.1 0.0 0.0 0.0 0.0 0.0 0.1 0.0 0.0 0.8 1.6 2.3 3.7 3.3 4.7
0.0 0.0 0.0 0.0 0.0 0.0 0.0 0.0 0.0 0.0 5.0 13.6 9.7 10.9 9.9 7.8 5.8 4.5 2.0 0.5 0.7 0.3 0.2 1.0 2.5 6.3 10.3 12.0 9.4 8.6 11.5 9.1 6.3 5.7 5.3 3.8 1.5 1.4 1.2 1.6 1.5 0.6 0.7 2.7 5.1 5.7 4.8 4.3 4.2 5.7 6.2 6.0 4.5 4.9
0.0 0.0 0.0 0.0 0.0 0.0 0.0 0.0 0.0 3.6 5.0 7.9 6.5 7.6 6.1 4.7 5.8 4.6 3.5 3.9 1.9 1.9 0.8 2.7 11.5 11.7 13.3 9.7 10.4 6.6 6.6 6.1 6.4 4.3 3.8 2.8 3.0 3.3 3.3 3.4 4.3 5.1 5.9 6.9 7.8 8.3 8.8 7.7 6.8 7.8 8.4 7.3 7.3 6.1
0.0 2.0 0.0 0.0 0.0 0.0 0.0 8.5 6.6 11.6 10.9 6.0 8.0 7.2 5.6 5.3 8.0 6.3 5.5 5.4 2.1 4.6 8.3 8.4 9.9 9.7 8.6 7.2 7.0 5.0 5.8 4.8 3.5 3.9 4.7 4.3 4.2 4.7 5.1 5.3 6.2 6.0 6.0 6.8 7.7 6.9 7.5 7.4 6.3 4.4 5.7 7.4 6.1 5.9
0.0 0.0 0.0 0.0 0.0 0.0 6.5 5.9 5.3 6.6 5.9 7.3 8.5 9.7 4.6 6.3 6.4 5.2 4.5 4.7 5.4 5.8 3.4 5.5 4.7 5.7 6.5 6.4 7.1 6.9 6.0 7.0 6.3 5.5 6.0 6.4 5.9 6.5 6.3 6.2 7.0 6.2 5.8 6.5 6.2 5.4 5.0 5.0 4.5 5.3 4.6 4.6 4.1 4.7
1.4 0.0 0.0 0.0 2.6 5.0 11.1 6.3 1.2 2.2 6.1 7.9 10.7 9.1 6.5 8.0 8.2 7.7 5.1 4.4 5.1 5.0 3.9 4.9 5.9 5.7 7.3 7.8 7.6 7.6 6.9 6.0 7.1 9.1 10.3 11.0 9.8 8.4 7.9 6.4 5.8 6.3 5.5 6.0 5.9 6.0 5.4 4.7 4.7 4.3 3.8 3.8 4.3 5.3
0.0 0.0 0.0 0.0 0.0 5.5 3.9 3.5 0.0 1.1 5.2 7.0 7.8 7.4 6.1 8.9 7.4 6.4 4.7 3.9 3.4 5.5 8.4 8.9 10.6 11.6 11.2 11.5 9.5 8.4 8.6 8.4 6.3 7.7 12.3 12.1 11.1 8.8 9.2 6.8 6.4 5.6 4.7 4.6 5.2 4.7 3.5 3.6 3.9 3.9 3.8 4.0 3.9 4.4
0.0 2.7 0.0 0.0 1.7 2.8 4.2 4.9 3.2 2.8 3.8 4.6 6.9 4.1 6.9 3.5 4.5 4.3 3.3 1.6 3.0 7.3 9.8 12.1 12.8 16.0 15.4 12.7 10.3 7.8 8.5 6.7 7.7 5.5 7.2 9.4 10.5 6.3 7.1 7.0 5.6 4.7 3.9 4.2 3.7 4.9 3.7 3.3 3.2 2.8 3.2 3.8 3.2 2.9
6.8 0.0 6.4 0.0 2.6 0.9 1.2 3.1 2.4 3.2 2.0 5.1 4.9 2.9 4.4 4.2 3.6 4.1 1.2 2.3 7.8 11.5 13.2 12.9 11.8 11.9 10.0 10.1 10.3 8.4 8.5 6.1 5.8 5.9 6.1 4.8 6.5 5.8 6.0 6.2 4.2 4.7 4.6 4.5 3.5 3.8 3.4 2.3 2.2 2.4 2.1 2.2 2.0 2.1
0.0 5.0 3.8 2.4 1.9 1.4 4.2 4.3 3.3 4.8 4.1 5.2 2.9 2.9 4.0 3.9 4.0 0.6 2.5 6.2 9.4 12.2 12.7 10.7 10.7 9.9 8.4 9.8 5.8 6.5 7.8 4.2 4.8 5.6 5.5 4.9 4.7 4.7 4.0 4.8 4.4 3.8 3.8 4.1 2.6 2.4 2.3 2.2 1.8 1.8 1.6 1.5 1.7 2.0
0.8 6.1 4.8 2.9 2.1 3.3 1.1 1.7 2.0 2.3 2.5 2.4 2.2 3.4 4.2 3.9 0.5 1.2 3.9 6.5 10.1 8.1 7.5 8.6 7.5 7.4 5.8 4.4 4.9 6.0 8.5 5.4 3.6 4.2 5.2 3.6 2.7 4.6 3.1 3.4 3.6 3.4 2.1 2.2 2.0 1.9 2.0 1.8 1.4 1.3 1.2 2.4 2.3 2.2
8.8 7.6 3.2 2.3 1.0 0.7 0.6 0.4 0.7 0.6 1.9 1.4 1.4 3.1 4.0 1.6 1.4 2.1 3.5 6.4 5.8 6.5 7.5 7.6 6.0 5.7 5.4 6.0 5.9 5.9 6.1 4.8 3.7 2.6 5.0 4.0 3.7 3.3 3.5 2.3 1.7 1.7 1.0 1.2 2.3 2.8 2.1 1.6 1.9 2.1 1.9 1.7 1.4 1.3
6.7 2.9 1.3 0.3 0.5 0.3 0.2 0.3 0.5 0.7 0.5 0.5 1.5 1.7 1.1 0.7 0.6 1.7 2.8 5.0 4.6 5.2 5.9 6.3 6.0 4.9 5.3 5.1 4.8 4.1 5.2 4.0 2.4 1.9 3.9 3.2 3.4 3.3 3.3 3.0 2.6 2.1 0.9 1.4 2.1 2.2 1.5 1.1 1.2 0.9 0.9 0.4 0.7 1.1
2.4 1.1 0.0 0.0 0.4 0.5 0.4 0.1 0.2 0.5 0.4 1.2 0.8 1.2 1.4 1.1 1.3 3.3 3.4 3.6 3.5 4.5 4.2 4.0 3.4 3.5 4.0 4.5 4.4 4.4 3.4 2.2 2.0 2.6 1.5 1.2 1.0 1.2 1.7 3.0 3.5 3.1 1.6 1.6 1.7 2.3 2.3 1.7 1.4 0.8 1.1 1.0 0.9 1.8
0.6 0.1 0.3 0.5 0.8 0.9 0.9 0.8 0.6 1.1 1.3 1.2 0.7 1.2 1.4 1.2 3.1 4.3 4.4 4.8 3.9 3.2 2.9 2.9 2.5 2.1 2.3 2.6 2.9 2.9 2.9 2.5 1.6 0.9 0.4 0.6 1.0 1.1 1.2 1.7 1.7 1.1 1.3 1.6 1.7 1.8 1.7 1.8 2.0 1.9 1.9 2.0 1.8 1.3
0.5 0.3 0.1 0.3 1.2 1.5 1.8 1.8 2.2 2.3 2.1 2.1 1.6 1.6 2.3 3.8 6.9 5.6 5.5 4.2 3.1 2.1 2.3 2.4 3.4 2.2 1.7 1.4 1.4 1.5 1.2 1.5 2.3 2.0 1.2 2.2 2.7 2.4 1.7 1.2 0.9 0.9 1.1 1.3 1.3 1.7 1.6 2.2 1.9 2.1 2.4 2.5 2.5 2.5
0.5 1.5 1.6 0.9 1.1 2.2 4.1 3.1 3.1 2.7 1.7 1.5 1.1 0.7 1.4 4.4 7.3 4.6 3.2 2.8 2.2 2.4 2.7 2.3 2.3 1.6 1.8 1.4 1.5 1.4 1.6 1.4 2.0 2.8 2.5 1.8 2.2 1.6 1.4 1.7 1.5 1.3 1.6 2.2 1.9 1.5 1.7 1.3 1.6 3.2 2.7 2.4 3.2 3.1
1.3 1.5 1.0 1.2 2.1 2.7 2.0 1.3 1.2 0.8 0.8 0.7 0.4 0.7 1.2 2.7 3.3 2.3 3.0 3.6 1.9 1.7 1.2 1.4 1.3 1.7 1.2 0.9 1.6 1.5 1.7 1.8 1.3 1.3 1.5 2.0 2.1 2.0 2.2 1.8 2.0 1.8 1.7 1.6 1.6 1.7 1.9 2.0 2.4 2.6 2.2 1.8 1.6 1.8
0.6 0.5 0.8 0.8 1.8 1.4 1.5 2.9 1.8 1.2 1.1 0.7 0.9 0.2 0.9 1.1 1.4 2.1 2.3 2.2 1.2 1.2 1.3 1.3 1.5 1.5 1.5 1.5 1.9 1.7 1.7 1.6 1.3 1.5 1.6 1.9 2.1 1.9 1.6 1.5 1.4 1.5 1.3 1.1 1.2 1.3 1.2 1.3 1.3 1.0 1.0 0.8 1.0 0.7
1.2 1.2 0.7 1.2 1.0 0.8 1.0 1.3 0.7 0.5 0.7 0.7 1.1 0.7 0.8 0.9 2.3 3.5 1.5 1.5 2.2 2.1 2.2 2.4 2.4 2.8 2.7 2.4 2.4 2.1 1.5 1.5 1.4 1.2 1.3 1.2 1.1 1.0 1.1 1.4 1.4 1.2 1.0 0.8 1.0 1.0 0.8 0.8 0.8 0.9 0.9 1.0 0.8 0.6

GFSWCAN_prec_snow_162.txt.gz
Snowfall_Accumulation
0.0 0.0 0.0 0.0 0.0 0.0 0.0 0.0 0.0 0.0 0.0 0.0 0.0 0.0 0.0 0.0 0.0 0.0 0.0 0.0 0.0 7.9 0.7 0.0 0.0 0.2 1.9 2.3 2.3 3.0 3.0 4.3 5.0 6.2 3.8 2.4 2.5 2.0 2.6 1.4 8.9 11.1 13.6 8.2 8.8 8.3 6.7 1.3 0.4 4.3 3.1 1.6 2.3 2.8
0.0 0.0 0.0 0.0 0.0 0.0 0.0 0.0 0.0 0.0 0.0 0.0 0.0 0.0 0.0 0.0 0.0 0.0 0.0 0.0 0.0 0.8 2.2 0.0 0.0 0.0 0.0 0.0 1.3 0.0 2.9 3.9 6.6 7.9 6.9 3.4 2.5 2.1 1.8 3.5 6.0 12.5 10.6 10.6 7.9 6.8 3.9 2.4 2.7 3.3 3.2 3.1 3.4 3.8
0.0 0.0 0.0 0.0 0.0 0.0 0.0 0.0 0.0 0.0 0.0 0.0 0.0 0.0 0.0 0.0 0.0 0.0 0.0 0.0 0.0 6.2 6.9 0.0 0.0 0.0 0.0 0.0 0.0 3.1 0.0 0.0 0.0 0.0 6.7 4.0 2.6 1.8 2.6 2.3 5.6 8.1 7.5 13.1 6.5 4.7 2.0 3.6 2.0 2.2 3.1 3.2 1.6 0.0
0.0 0.0 0.0 0.0 0.0 0.0 0.0 0.0 0.0 0.0 0.0 0.0 0.0 0.0 0.0 0.0 0.0 0.0 0.0 0.0 0.0 4.1 16.2 2.2 0.0 0.0 0.0 0.0 0.0 0.0 0.0 0.0 0.0 0.0 5.2 3.5 2.3 0.2 0.7 0.9 1.5 8.4 7.4 8.0 11.8 11.7 1.7 3.1 3.4 3.6 2.8 1.4 1.5 0.0
0.0 0.0 0.0 0.0 0.0 0.0 0.0 0.0 0.0 0.0 0.0 0.0 0.0 0.0 0.0 0.0 0.0 0.0 0.0 0.0 0.0 0.0 5.1 3.6 0.0 0.0 0.0 0.0 0.0 0.0 0.0 0.0 0.1 4.1 5.4 3.1 0.1 1.1 0.1 0.2 3.7 0.5 2.9 5.1 10.4 7.1 8.9 6.4 8.5 4.7 2.5 0.6 0.0 0.0
0.0 0.0 0.0 0.0 0.0 0.0 0.0 0.0 0.0 0.0 0.0 0.0 0.0 0.0 0.0 0.0 0.0 0.0 12.9 0.0 0.0 0.0 9.4 6.5 0.0 0.0 0.0 0.0 0.0 0.0 0.0 0.0 2.4 4.9 3.3 0.1 0.0 0.8 2.8 1.4 0.0 0.0 1.2 3.0 2.7 2.9 4.1 4.7 0.0 0.0 0.8 1.6 1.2 0.0
0.0 0.0 0.0 0.0 0.0 0.0 0.0 0.0 0.0 0.0 0.0 0.0 0.0 0.0 0.0 0.0 0.0 2.5 10.9 0.0 0.0 0.0 15.7 12.9 3.6 2.3 0.0 0.0 0.0 0.0 0.0 0.9 0.7 4.3 4.0 0.4 0.0 1.8 2.5 1.1 0.5 0.0 0.1 0.1 0.0 0.0 0.0 0.0 1.1 0.0 0.0 0.0 0.6 0.0
0.0 0.0 0.0 0.0 0.0 0.0 0.0 0.0 0.0 0.0 0.0 0.0 0.0 0.0 0.0 0.0 0.0 1.2 0.0 0.0 0.0 0.0 2.3 14.4 4.9 8.1 0.0 3.0 3.5 0.0 0.7 0.5 1.2 0.7 2.0 1.1 0.9 1.5 4.6 0.2 0.0 0.0 0.0 0.1 0.0 0.0 0.1 0.0 0.0 0.0 0.0 0.0 0.0 0.0
0.0 0.0 0.0 0.0 0.0 0.0 0.0 0.0 0.0 0.0 0.0 0.0 0.0 0.0 0.0 0.0 17.0 0.0 0.0 0.0 0.0 0.0 9.0 8.4 8.4 11.4 0.0 0.7 0.4 2.5 0.0 6.9 0.0 3.8 0.7 1.8 2.1 4.1 1.3 0.1 0.0 0.0 0.0 0.0 0.0 0.0 0.0 0.0 0.0 0.0 0.0 0.0 0.0 0.0
0.0 0.0 0.0 0.0 0.0 0.0 0.0 0.0 0.0 0.0 0.0 0.0 0.0 31.2 55.5 7.8 0.0 0.0 0.0 13.4 11.3 6.6 2.9 6.4 1.7 9.2 0.0 8.9 6.2 7.9 3.5 5.9 6.4 1.3 0.3 2.6 3.1 0.8 0.3 0.2 0.1 0.0 0.0 0.0 0.0 0.0 0.0 0.1 0.0 0.0 0.0 0.0 0.0 0.0
0.0 0.0 0.0 0.0 0.0 0.0 0.0 0.0 0.0 0.0 0.0 0.0 26.9 15.5 0.0 0.0 0.0 6.5 22.3 20.4 10.3 9.7 3.4 1.0 0.6 4.4 0.0 11.9 8.6 0.0 15.7 6.2 4.6 1.6 2.3 3.9 3.1 1.0 0.2 0.2 0.0 0.0 0.0 0.0 0.0 0.0 0.0 0.0 0.0 0.0 0.0 0.0 0.0 0.0
0.0 0.0 0.0 0.0 0.0 0.0 0.0 0.0 0.0 0.0 0.0 0.0 0.0 0.0 0.0 3.2 10.9 14.2 12.1 10.9 3.2 0.9 0.2 0.0 0.0 0.0 1.2 0.8 10.9 7.7 4.5 10.4 5.0 0.0 5.8 4.2 2.4 0.4 0.0 0.0 0.0 0.0 0.0 0.0 0.0 0.0 0.0 0.0 0.0 0.0 0.0 0.0 0.3 0.2
0.0 0.0 0.0 0.0 0.0 0.0 0.0 0.0 0.0 0.0 0.0 0.0 3.5 9.2 16.0 20.3 19.6 11.8 7.4 4.1 1.3 0.2 0.3 0.1 1.7 1.0 1.8 5.2 11.5 9.6 9.4 6.8 0.7 5.2 2.4 1.1 0.5 0.0 0.0 0.0 0.0 0.0 0.0 0.0 0.0 0.0 0.0 0.0 0.0 0.0 0.4 1.2 1.6 2.9
0.0 0.0 0.0 0.0 0.0 0.0 0.0 0.0 0.0 0.0 0.0 9.3 23.1 23.9 19.0 14.6 9.6 5.7 2.0 0.4 0.5 0.5 0.3 0.2 2.7 5.2 4.1 6.3 7.8 13.1 11.7 6.3 8.6 4.5 2.9 2.5 1.1 0.8 0.4 0.1 0.0 0.0 0.0 0.0 0.0 0.1 0.0 0.0 0.8 1.6 2.3 3.7 3.3 4.7
0.0 0.0 0.0 0.0 0.0 0.0 0.0 0.0 0.0 0.0 5.0 13.7 9.7 10.9 9.9 7.8 5.8 4.5 2.0 0.5 0.7 0.3 0.2 1.0 2.5 6.3 10.3 12.0 9.4 8.6 11.5 9.1 6.3 5.7 5.3 3.8 1.5 1.4 1.2 1.6 1.5 0.6 0.7 2.7 5.1 5.7 4.8 4.3 4.2 5.7 6.2 6.0 4.5 4.9
0.0 0.0 0.0 0.0 0.0 0.0 0.0 0.0 0.0 3.6 5.0 7.9 6.5 7.6 6.1 4.7 5.8 4.6 3.5 3.9 1.9 1.9 0.8 2.7 11.5 11.7 13.3 9.7 10.4 6.6 6.6 6.1 6.4 4.3 3.8 2.8 3.0 3.3 3.3 3.4 4.3 5.1 5.9 6.9 7.8 8.3 8.8 7.7 6.8 7.8 8.4 7.3 7.3 6.1
0.0 2.0 0.0 0.0 0.0 0.0 0.0 8.5 6.6 11.6 10.9 6.0 8.1 7.3 5.6 5.3 8.0 6.3 5.5 5.4 2.1 4.6 8.3 8.4 9.9 9.7 8.6 7.2 7.0 5.0 5.8 4.8 3.5 3.9 4.7 4.3 4.2 4.7 5.1 5.3 6.2 6.0 6.0 6.8 7.7 6.9 7.5 7.4 6.3 4.4 5.7 7.4 6.1 5.9
0.0 0.0 0.0 0.0 0.0 0.0 6.5 5.9 5.3 6.6 5.9 7.3 8.6 9.8 4.6 6.3 6.4 5.2 4.5 4.7 5.4 5.8 3.4 5.5 4.7 5.7 6.5 6.4 7.1 6.9 6.0 7.0 6.3 5.5 6.0 6.4 5.9 6.5 6.3 6.2 7.0 6.2 5.8 6.5 6.2 5.4 5.0 5.0 4.5 5.3 4.6 4.6 4.1 4.7
1.4 0.0 0.0 0.0 2.6 5.0 11.1 6.3 1.2 2.2 6.2 8.0 10.8 9.1 6.5 8.0 8.2 7.7 5.1 4.4 5.1 5.0 3.9 4.9 5.9 5.7 7.3 7.8 7.6 7.6 6.9 6.0 7.1 9.1 10.3 11.0 9.8 8.4 7.9 6.4 5.8 6.3 5.5 6.0 5.9 6.0 5.4 4.7 4.7 4.3 3.8 3.8 4.3 5.3
0.0 0.0 0.0 0.0 0.0 5.5 3.9 3.5 0.0 1.1 5.2 7.2 8.0 7.4 6.1 9.1 7.5 6.4 4.7 3.9 3.4 5.5 8.4 8.9 10.6 11.6 11.2 11.5 9.5 8.4 8.6 8.4 6.3 7.7 12.3 12.1 11.1 8.8 9.2 6.8 6.4 5.6 4.7 4.6 5.2 4.7 3.5 3.6 3.9 3.9 3.8 4.0 3.9 4.4
0.0 2.7 0.0 0.0 1.7 2.8 4.2 4.9 3.2 2.8 3.9 4.6 7.1 4.1 7.0 3.5 4.5 4.3 3.3 1.6 3.0 7.3 9.8 12.1 12.8 16.0 15.4 12.7 10.3 7.8 8.5 6.7 7.7 5.5 7.2 9.4 10.5 6.3 7.1 7.0 5.6 4.7 3.9 4.2 3.7 4.9 3.7 3.3 3.2 2.8 3.2 3.8 3.2 2.9
6.8 0.0 6.4 0.0 2.6 0.9 1.2 3.1 2.4 3.2 2.0 5.2 4.9 2.9 4.4 4.2 3.6 4.1 1.2 2.3 7.8 11.5 13.2 12.9 11.8 11.9 10.0 10.1 10.3 8.4 8.5 6.1 5.8 5.9 6.1 4.8 6.5 5.8 6.0 6.2 4.2 4.7 4.6 4.5 3.5 3.8 3.4 2.3 2.2 2.4 2.1 2.2 2.0 2.1
0.0 5.0 3.8 2.4 1.9 1.4 4.2 4.3 3.3 4.8 4.1 5.2 2.9 2.9 4.0 3.9 4.0 0.6 2.5 6.2 9.4 12.2 12.7 10.7 10.7 9.9 8.4 9.8 5.8 6.5 7.8 4.2 4.8 5.6 5.5 4.9 4.7 4.7 4.0 4.8 4.4 3.8 3.8 4.1 2.6 2.4 2.3 2.2 1.8 1.8 1.6 1.5 1.7 2.0
0.8 6.1 4.8 2.9 2.1 3.3 1.1 1.7 2.0 2.3 2.5 2.4 2.2 3.4 4.2 3.9 0.5 1.2 3.9 6.5 10.1 8.1 7.5 8.6 7.5 7.4 5.8 4.4 4.9 6.0 8.5 5.4 3.6 4.2 5.2 3.6 2.7 4.6 3.1 3.4 3.6 3.4 2.1 2.2 2.0 1.9 2.0 1.8 1.4 1.3 1.3 2.4 2.3 2.2
8.8 7.6 3.2 2.3 1.0 0.7 0.6 0.4 0.7 0.6 1.9 1.4 1.4 3.1 4.0 1.6 1.4 2.1 3.5 6.4 5.8 6.5 7.5 7.6 6.0 5.7 5.4 6.0 5.9 5.9 6.1 4.8 3.7 2.6 5.0 4.0 3.7 3.3 3.5 2.4 1.8 1.7 1.1 1.2 2.3 2.8 2.1 1.6 1.9 2.1 1.9 1.7 1.4 1.3
6.7 2.9 1.3 0.3 0.5 0.3 0.2 0.3 0.5 0.7 0.5 0.5 1.5 1.7 1.1 0.7 0.6 1.7 2.8 5.0 4.6 5.2 5.9 6.3 6.0 4.9 5.3 5.1 4.8 4.1 5.2 4.0 2.4 1.9 3.9 3.2 3.4 3.3 3.3 3.0 2.6 2.1 0.9 1.4 2.1 2.3 1.6 1.2 1.3 1.0 1.0 0.5 0.7 1.1
2.4 1.1 0.0 0.0 0.4 0.5 0.4 0.1 0.2 0.5 0.4 1.2 0.8 1.2 1.4 1.1 1.3 3.3 3.4 3.6 3.5 4.5 4.2 4.0 3.4 3.5 4.0 4.5 4.4 4.4 3.4 2.2 2.0 2.6 1.5 1.2 1.0 1.2 1.7 3.0 3.5 3.1 1.6 1.6 1.7 2.3 2.3 1.8 1.5 1.0 1.3 1.1 1.0 1.8
0.6 0.1 0.3 0.5 0.8 0.9 0.9 0.8 0.6 1.1 1.3 1.2 0.7 1.2 1.4 1.2 3.1 4.3 4.4 4.8 3.9 3.2 2.9 2.9 2.5 2.1 2.3 2.6 2.9 2.9 2.9 2.5 1.6 0.9 0.4 0.6 1.0 1.1 1.2 1.7 1.7 1.1 1.3 1.6 1.7 1.8 1.9 1.8 2.1 1.9 2.0 2.0 1.9 1.3
0.5 0.3 0.1 0.3 1.2 1.5 1.8 1.8 2.2 2.3 2.1 2.1 1.6 1.6 2.3 3.8 6.9 5.6 5.5 4.2 3.1 2.1 2.3 2.4 3.4 2.2 1.7 1.4 1.4 1.5 1.2 1.5 2.3 2.0 1.2 2.2 2.7 2.4 1.7 1.2 0.9 0.9 1.1 1.3 1.3 1.7 1.7 2.3 1.9 2.1 2.4 2.5 2.5 2.6
0.5 1.5 1.6 0.9 1.1 2.2 4.1 3.1 3.1 2.7 1.7 1.5 1.1 0.7 1.4 4.4 7.4 4.7 3.2 2.8 2.2 2.4 2.7 2.3 2.3 1.6 1.8 1.4 1.5 1.4 1.6 1.4 2.0 2.8 2.5 1.8 2.2 1.6 1.4 1.7 1.5 1.3 1.6 2.2 2.0 1.6 1.8 1.4 1.6 3.2 2.7 2.4 3.3 3.1
1.3 1.5 1.0 1.2 2.1 2.7 2.0 1.3 1.2 0.8 0.8 0.8 0.5 0.7 1.2 2.7 3.3 2.4 3.1 3.6 1.9 1.7 1.2 1.4 1.3 1.7 1.2 0.9 1.6 1.5 1.7 1.8 1.3 1.3 1.5 2.0 2.1 2.0 2.2 1.8 2.0 1.8 1.9 1.8 1.8 1.8 2.0 2.1 2.4 2.6 2.2 1.8 1.6 1.8
0.6 0.5 0.8 0.8 1.8 1.4 1.5 2.9 1.8 1.2 1.1 0.7 0.9 0.2 1.0 1.2 1.4 2.1 2.4 2.3 1.2 1.2 1.3 1.3 1.5 1.5 1.5 1.5 1.9 1.7 1.7 1.6 1.3 1.5 1.6 1.9 2.1 1.9 1.6 1.5 1.4 1.5 1.3 1.3 1.5 1.5 1.3 1.4 1.5 1.1 1.0 0.8 1.0 0.8
1.2 1.2 0.7 1.2 1.0 0.8 1.0 1.3 0.7 0.5 0.7 0.7 1.1 0.7 0.8 0.9 2.3 3.5 1.6 1.5 2.3 2.2 2.3 2.5 2.4 2.8 2.8 2.4 2.4 2.2 1.5 1.5 1.4 1.2 1.3 1.2 1.1 1.1 1.2 1.5 1.5 1.3 1.0 0.9 1.2 1.2 1.0 1.0 1.0 1.0 0.9 1.0 0.8 0.6